<?xml version="1.0" encoding="UTF-8" standalone="no" ?>
<gpx xmlns="http://www.topografix.com/GPX/1/1" xmlns:xsi="http://www.w3.org/2001/XMLSchema-instance" xsi:schemaLocation="http://www.topografix.com/GPX/1/1 http://www.topografix.com/GPX/1/1/gpx.xsd" version="1.1" creator="VisuGPX - https://www.visugpx.com">
  <metadata>
    <name>Croix du Sergent Pinelli (Taillefer)</name>
  </metadata>
  <trk>
    <name><![CDATA[2022-11-06 16:14:08]]></name>
    <trkseg>
      <trkpt lat="45.04659" lon="5.87267">
        <ele>1677.16</ele>
        <time>2022-11-06T07:44:29Z</time>
      </trkpt>
      <trkpt lat="45.04657" lon="5.87266">
        <ele>1677.16</ele>
        <time>2022-11-06T07:44:30Z</time>
      </trkpt>
      <trkpt lat="45.04635" lon="5.87263">
        <ele>1678.6</ele>
        <time>2022-11-06T07:44:50Z</time>
      </trkpt>
      <trkpt lat="45.04618" lon="5.87257">
        <ele>1682.44</ele>
        <time>2022-11-06T07:45:05Z</time>
      </trkpt>
      <trkpt lat="45.04598" lon="5.87245">
        <ele>1684.37</ele>
        <time>2022-11-06T07:45:22Z</time>
      </trkpt>
      <trkpt lat="45.04595" lon="5.87244">
        <ele>1684.37</ele>
        <time>2022-11-06T07:45:24Z</time>
      </trkpt>
      <trkpt lat="45.04581" lon="5.87235">
        <ele>1684.85</ele>
        <time>2022-11-06T07:45:39Z</time>
      </trkpt>
      <trkpt lat="45.04566" lon="5.87226">
        <ele>1686.77</ele>
        <time>2022-11-06T07:45:55Z</time>
      </trkpt>
      <trkpt lat="45.04554" lon="5.87209">
        <ele>1688.21</ele>
        <time>2022-11-06T07:46:09Z</time>
      </trkpt>
      <trkpt lat="45.0454" lon="5.87199">
        <ele>1690.14</ele>
        <time>2022-11-06T07:46:24Z</time>
      </trkpt>
      <trkpt lat="45.04526" lon="5.87195">
        <ele>1693.02</ele>
        <time>2022-11-06T07:46:47Z</time>
      </trkpt>
      <trkpt lat="45.04516" lon="5.87184">
        <ele>1695.42</ele>
        <time>2022-11-06T07:47:10Z</time>
      </trkpt>
      <trkpt lat="45.04522" lon="5.87165">
        <ele>1698.79</ele>
        <time>2022-11-06T07:47:34Z</time>
      </trkpt>
      <trkpt lat="45.04537" lon="5.87149">
        <ele>1701.19</ele>
        <time>2022-11-06T07:47:55Z</time>
      </trkpt>
      <trkpt lat="45.04552" lon="5.87131">
        <ele>1704.07</ele>
        <time>2022-11-06T07:48:17Z</time>
      </trkpt>
      <trkpt lat="45.04563" lon="5.87111">
        <ele>1707.44</ele>
        <time>2022-11-06T07:48:37Z</time>
      </trkpt>
      <trkpt lat="45.04577" lon="5.87101">
        <ele>1710.32</ele>
        <time>2022-11-06T07:48:58Z</time>
      </trkpt>
      <trkpt lat="45.04591" lon="5.87084">
        <ele>1713.21</ele>
        <time>2022-11-06T07:49:19Z</time>
      </trkpt>
      <trkpt lat="45.04593" lon="5.87058">
        <ele>1715.61</ele>
        <time>2022-11-06T07:49:44Z</time>
      </trkpt>
      <trkpt lat="45.04581" lon="5.87029">
        <ele>1718.01</ele>
        <time>2022-11-06T07:50:06Z</time>
      </trkpt>
      <trkpt lat="45.04566" lon="5.87017">
        <ele>1719.94</ele>
        <time>2022-11-06T07:50:25Z</time>
      </trkpt>
      <trkpt lat="45.04549" lon="5.87">
        <ele>1722.82</ele>
        <time>2022-11-06T07:50:47Z</time>
      </trkpt>
      <trkpt lat="45.0453" lon="5.86987">
        <ele>1724.26</ele>
        <time>2022-11-06T07:51:05Z</time>
      </trkpt>
      <trkpt lat="45.0451" lon="5.86975">
        <ele>1727.15</ele>
        <time>2022-11-06T07:51:24Z</time>
      </trkpt>
      <trkpt lat="45.04505" lon="5.86969">
        <ele>1728.11</ele>
        <time>2022-11-06T07:51:30Z</time>
      </trkpt>
      <trkpt lat="45.04492" lon="5.8696">
        <ele>1729.55</ele>
        <time>2022-11-06T07:51:44Z</time>
      </trkpt>
      <trkpt lat="45.04473" lon="5.86946">
        <ele>1732.43</ele>
        <time>2022-11-06T07:52:06Z</time>
      </trkpt>
      <trkpt lat="45.04462" lon="5.86933">
        <ele>1733.88</ele>
        <time>2022-11-06T07:52:19Z</time>
      </trkpt>
      <trkpt lat="45.04448" lon="5.86921">
        <ele>1734.36</ele>
        <time>2022-11-06T07:52:35Z</time>
      </trkpt>
      <trkpt lat="45.04438" lon="5.86909">
        <ele>1734.84</ele>
        <time>2022-11-06T07:52:47Z</time>
      </trkpt>
      <trkpt lat="45.04435" lon="5.86903">
        <ele>1735.32</ele>
        <time>2022-11-06T07:52:51Z</time>
      </trkpt>
      <trkpt lat="45.04434" lon="5.86901">
        <ele>1735.8</ele>
        <time>2022-11-06T07:52:52Z</time>
      </trkpt>
      <trkpt lat="45.04426" lon="5.86892">
        <ele>1735.8</ele>
        <time>2022-11-06T07:53:02Z</time>
      </trkpt>
      <trkpt lat="45.04409" lon="5.8688">
        <ele>1736.76</ele>
        <time>2022-11-06T07:53:18Z</time>
      </trkpt>
      <trkpt lat="45.04407" lon="5.86877">
        <ele>1736.76</ele>
        <time>2022-11-06T07:53:21Z</time>
      </trkpt>
      <trkpt lat="45.04392" lon="5.86862">
        <ele>1736.28</ele>
        <time>2022-11-06T07:53:38Z</time>
      </trkpt>
      <trkpt lat="45.0439" lon="5.86861">
        <ele>1735.8</ele>
        <time>2022-11-06T07:53:40Z</time>
      </trkpt>
      <trkpt lat="45.04388" lon="5.86861">
        <ele>1735.32</ele>
        <time>2022-11-06T07:53:42Z</time>
      </trkpt>
      <trkpt lat="45.04387" lon="5.8686">
        <ele>1734.84</ele>
        <time>2022-11-06T07:53:43Z</time>
      </trkpt>
      <trkpt lat="45.04385" lon="5.8686">
        <ele>1734.36</ele>
        <time>2022-11-06T07:53:45Z</time>
      </trkpt>
      <trkpt lat="45.04381" lon="5.86856">
        <ele>1738.68</ele>
        <time>2022-11-06T07:53:49Z</time>
      </trkpt>
      <trkpt lat="45.04364" lon="5.8684">
        <ele>1739.16</ele>
        <time>2022-11-06T07:54:06Z</time>
      </trkpt>
      <trkpt lat="45.04351" lon="5.86823">
        <ele>1739.64</ele>
        <time>2022-11-06T07:54:19Z</time>
      </trkpt>
      <trkpt lat="45.04351" lon="5.86821">
        <ele>1739.64</ele>
        <time>2022-11-06T07:54:20Z</time>
      </trkpt>
      <trkpt lat="45.04347" lon="5.86811">
        <ele>1740.12</ele>
        <time>2022-11-06T07:54:27Z</time>
      </trkpt>
      <trkpt lat="45.04337" lon="5.86792">
        <ele>1740.12</ele>
        <time>2022-11-06T07:54:40Z</time>
      </trkpt>
      <trkpt lat="45.04325" lon="5.86773">
        <ele>1740.6</ele>
        <time>2022-11-06T07:54:57Z</time>
      </trkpt>
      <trkpt lat="45.04315" lon="5.86756">
        <ele>1742.05</ele>
        <time>2022-11-06T07:55:11Z</time>
      </trkpt>
      <trkpt lat="45.04304" lon="5.8674">
        <ele>1743.01</ele>
        <time>2022-11-06T07:55:27Z</time>
      </trkpt>
      <trkpt lat="45.04299" lon="5.86734">
        <ele>1743.49</ele>
        <time>2022-11-06T07:55:32Z</time>
      </trkpt>
      <trkpt lat="45.04294" lon="5.86731">
        <ele>1743.49</ele>
        <time>2022-11-06T07:55:36Z</time>
      </trkpt>
      <trkpt lat="45.0428" lon="5.86721">
        <ele>1743.97</ele>
        <time>2022-11-06T07:55:50Z</time>
      </trkpt>
      <trkpt lat="45.04252" lon="5.86709">
        <ele>1742.53</ele>
        <time>2022-11-06T07:56:15Z</time>
      </trkpt>
      <trkpt lat="45.04229" lon="5.86694">
        <ele>1741.08</ele>
        <time>2022-11-06T07:56:34Z</time>
      </trkpt>
      <trkpt lat="45.0421" lon="5.86683">
        <ele>1739.16</ele>
        <time>2022-11-06T07:56:51Z</time>
      </trkpt>
      <trkpt lat="45.04186" lon="5.86676">
        <ele>1737.72</ele>
        <time>2022-11-06T07:57:07Z</time>
      </trkpt>
      <trkpt lat="45.04168" lon="5.86672">
        <ele>1736.76</ele>
        <time>2022-11-06T07:57:20Z</time>
      </trkpt>
      <trkpt lat="45.0416" lon="5.86669">
        <ele>1735.8</ele>
        <time>2022-11-06T07:57:33Z</time>
      </trkpt>
      <trkpt lat="45.04162" lon="5.86667">
        <ele>1735.8</ele>
        <time>2022-11-06T07:57:36Z</time>
      </trkpt>
      <trkpt lat="45.04163" lon="5.86666">
        <ele>1735.8</ele>
        <time>2022-11-06T07:57:37Z</time>
      </trkpt>
      <trkpt lat="45.04163" lon="5.86655">
        <ele>1733.88</ele>
        <time>2022-11-06T07:57:55Z</time>
      </trkpt>
      <trkpt lat="45.04164" lon="5.86652">
        <ele>1733.39</ele>
        <time>2022-11-06T07:58:34Z</time>
      </trkpt>
      <trkpt lat="45.04165" lon="5.86654">
        <ele>1734.36</ele>
        <time>2022-11-06T07:58:58Z</time>
      </trkpt>
      <trkpt lat="45.04162" lon="5.86657">
        <ele>1734.84</ele>
        <time>2022-11-06T07:59:01Z</time>
      </trkpt>
      <trkpt lat="45.04161" lon="5.86658">
        <ele>1734.84</ele>
        <time>2022-11-06T07:59:02Z</time>
      </trkpt>
      <trkpt lat="45.04161" lon="5.86658">
        <ele>1734.84</ele>
        <time>2022-11-06T07:59:03Z</time>
      </trkpt>
      <trkpt lat="45.0416" lon="5.8666">
        <ele>1734.84</ele>
        <time>2022-11-06T07:59:04Z</time>
      </trkpt>
      <trkpt lat="45.04159" lon="5.86661">
        <ele>1734.84</ele>
        <time>2022-11-06T07:59:05Z</time>
      </trkpt>
      <trkpt lat="45.04142" lon="5.86678">
        <ele>1735.32</ele>
        <time>2022-11-06T07:59:18Z</time>
      </trkpt>
      <trkpt lat="45.04141" lon="5.86679">
        <ele>1735.32</ele>
        <time>2022-11-06T07:59:19Z</time>
      </trkpt>
      <trkpt lat="45.0414" lon="5.8668">
        <ele>1735.32</ele>
        <time>2022-11-06T07:59:20Z</time>
      </trkpt>
      <trkpt lat="45.04139" lon="5.86681">
        <ele>1735.8</ele>
        <time>2022-11-06T07:59:21Z</time>
      </trkpt>
      <trkpt lat="45.04137" lon="5.86683">
        <ele>1735.8</ele>
        <time>2022-11-06T07:59:22Z</time>
      </trkpt>
      <trkpt lat="45.04136" lon="5.86683">
        <ele>1735.8</ele>
        <time>2022-11-06T07:59:23Z</time>
      </trkpt>
      <trkpt lat="45.04135" lon="5.86685">
        <ele>1735.8</ele>
        <time>2022-11-06T07:59:24Z</time>
      </trkpt>
      <trkpt lat="45.04134" lon="5.86686">
        <ele>1735.8</ele>
        <time>2022-11-06T07:59:25Z</time>
      </trkpt>
      <trkpt lat="45.04131" lon="5.86689">
        <ele>1736.28</ele>
        <time>2022-11-06T07:59:29Z</time>
      </trkpt>
      <trkpt lat="45.0413" lon="5.8669">
        <ele>1736.28</ele>
        <time>2022-11-06T07:59:30Z</time>
      </trkpt>
      <trkpt lat="45.04129" lon="5.86691">
        <ele>1736.76</ele>
        <time>2022-11-06T07:59:31Z</time>
      </trkpt>
      <trkpt lat="45.04128" lon="5.86692">
        <ele>1736.76</ele>
        <time>2022-11-06T07:59:32Z</time>
      </trkpt>
      <trkpt lat="45.04127" lon="5.86693">
        <ele>1736.76</ele>
        <time>2022-11-06T07:59:33Z</time>
      </trkpt>
      <trkpt lat="45.04126" lon="5.86694">
        <ele>1736.76</ele>
        <time>2022-11-06T07:59:34Z</time>
      </trkpt>
      <trkpt lat="45.0411" lon="5.8671">
        <ele>1738.2</ele>
        <time>2022-11-06T07:59:50Z</time>
      </trkpt>
      <trkpt lat="45.04096" lon="5.86722">
        <ele>1740.6</ele>
        <time>2022-11-06T08:00:05Z</time>
      </trkpt>
      <trkpt lat="45.0408" lon="5.86737">
        <ele>1742.53</ele>
        <time>2022-11-06T08:00:17Z</time>
      </trkpt>
      <trkpt lat="45.04076" lon="5.86741">
        <ele>1743.01</ele>
        <time>2022-11-06T08:00:21Z</time>
      </trkpt>
      <trkpt lat="45.04075" lon="5.86743">
        <ele>1743.01</ele>
        <time>2022-11-06T08:00:22Z</time>
      </trkpt>
      <trkpt lat="45.04069" lon="5.86753">
        <ele>1743.97</ele>
        <time>2022-11-06T08:00:28Z</time>
      </trkpt>
      <trkpt lat="45.04068" lon="5.86754">
        <ele>1743.97</ele>
        <time>2022-11-06T08:00:29Z</time>
      </trkpt>
      <trkpt lat="45.04068" lon="5.86756">
        <ele>1743.97</ele>
        <time>2022-11-06T08:00:30Z</time>
      </trkpt>
      <trkpt lat="45.04068" lon="5.86759">
        <ele>1743.97</ele>
        <time>2022-11-06T08:00:31Z</time>
      </trkpt>
      <trkpt lat="45.04067" lon="5.86761">
        <ele>1743.97</ele>
        <time>2022-11-06T08:00:32Z</time>
      </trkpt>
      <trkpt lat="45.04063" lon="5.86781">
        <ele>1743.97</ele>
        <time>2022-11-06T08:00:43Z</time>
      </trkpt>
      <trkpt lat="45.04063" lon="5.86783">
        <ele>1743.97</ele>
        <time>2022-11-06T08:00:44Z</time>
      </trkpt>
      <trkpt lat="45.04062" lon="5.86785">
        <ele>1744.45</ele>
        <time>2022-11-06T08:00:45Z</time>
      </trkpt>
      <trkpt lat="45.04062" lon="5.86787">
        <ele>1743.97</ele>
        <time>2022-11-06T08:00:46Z</time>
      </trkpt>
      <trkpt lat="45.04061" lon="5.86789">
        <ele>1744.45</ele>
        <time>2022-11-06T08:00:47Z</time>
      </trkpt>
      <trkpt lat="45.0406" lon="5.8679">
        <ele>1744.45</ele>
        <time>2022-11-06T08:00:48Z</time>
      </trkpt>
      <trkpt lat="45.04059" lon="5.86792">
        <ele>1743.97</ele>
        <time>2022-11-06T08:00:49Z</time>
      </trkpt>
      <trkpt lat="45.04059" lon="5.86794">
        <ele>1743.97</ele>
        <time>2022-11-06T08:00:50Z</time>
      </trkpt>
      <trkpt lat="45.04059" lon="5.86796">
        <ele>1743.97</ele>
        <time>2022-11-06T08:00:51Z</time>
      </trkpt>
      <trkpt lat="45.04059" lon="5.86798">
        <ele>1743.97</ele>
        <time>2022-11-06T08:00:52Z</time>
      </trkpt>
      <trkpt lat="45.04058" lon="5.868">
        <ele>1744.45</ele>
        <time>2022-11-06T08:00:53Z</time>
      </trkpt>
      <trkpt lat="45.04052" lon="5.86825">
        <ele>1744.45</ele>
        <time>2022-11-06T08:01:05Z</time>
      </trkpt>
      <trkpt lat="45.0405" lon="5.86844">
        <ele>1745.41</ele>
        <time>2022-11-06T08:01:18Z</time>
      </trkpt>
      <trkpt lat="45.04054" lon="5.86864">
        <ele>1748.29</ele>
        <time>2022-11-06T08:01:33Z</time>
      </trkpt>
      <trkpt lat="45.0406" lon="5.86874">
        <ele>1751.66</ele>
        <time>2022-11-06T08:01:47Z</time>
      </trkpt>
      <trkpt lat="45.04064" lon="5.86888">
        <ele>1755.02</ele>
        <time>2022-11-06T08:02:00Z</time>
      </trkpt>
      <trkpt lat="45.04064" lon="5.86905">
        <ele>1758.39</ele>
        <time>2022-11-06T08:02:14Z</time>
      </trkpt>
      <trkpt lat="45.04065" lon="5.86917">
        <ele>1761.27</ele>
        <time>2022-11-06T08:02:27Z</time>
      </trkpt>
      <trkpt lat="45.04066" lon="5.86934">
        <ele>1764.16</ele>
        <time>2022-11-06T08:02:43Z</time>
      </trkpt>
      <trkpt lat="45.0407" lon="5.86949">
        <ele>1767.52</ele>
        <time>2022-11-06T08:02:59Z</time>
      </trkpt>
      <trkpt lat="45.04074" lon="5.86961">
        <ele>1770.41</ele>
        <time>2022-11-06T08:03:14Z</time>
      </trkpt>
      <trkpt lat="45.04074" lon="5.86976">
        <ele>1773.77</ele>
        <time>2022-11-06T08:03:31Z</time>
      </trkpt>
      <trkpt lat="45.04077" lon="5.86994">
        <ele>1777.13</ele>
        <time>2022-11-06T08:03:48Z</time>
      </trkpt>
      <trkpt lat="45.04085" lon="5.87007">
        <ele>1780.02</ele>
        <time>2022-11-06T08:04:04Z</time>
      </trkpt>
      <trkpt lat="45.04091" lon="5.87021">
        <ele>1782.9</ele>
        <time>2022-11-06T08:04:19Z</time>
      </trkpt>
      <trkpt lat="45.04092" lon="5.87033">
        <ele>1785.79</ele>
        <time>2022-11-06T08:04:34Z</time>
      </trkpt>
      <trkpt lat="45.04094" lon="5.87044">
        <ele>1789.15</ele>
        <time>2022-11-06T08:04:48Z</time>
      </trkpt>
      <trkpt lat="45.04093" lon="5.87046">
        <ele>1789.63</ele>
        <time>2022-11-06T08:04:50Z</time>
      </trkpt>
      <trkpt lat="45.04092" lon="5.87067">
        <ele>1792.52</ele>
        <time>2022-11-06T08:05:08Z</time>
      </trkpt>
      <trkpt lat="45.04095" lon="5.87081">
        <ele>1795.4</ele>
        <time>2022-11-06T08:05:25Z</time>
      </trkpt>
      <trkpt lat="45.04095" lon="5.87092">
        <ele>1798.76</ele>
        <time>2022-11-06T08:05:39Z</time>
      </trkpt>
      <trkpt lat="45.04097" lon="5.87103">
        <ele>1801.65</ele>
        <time>2022-11-06T08:05:54Z</time>
      </trkpt>
      <trkpt lat="45.04099" lon="5.87117">
        <ele>1805.01</ele>
        <time>2022-11-06T08:06:13Z</time>
      </trkpt>
      <trkpt lat="45.04098" lon="5.87127">
        <ele>1807.9</ele>
        <time>2022-11-06T08:06:30Z</time>
      </trkpt>
      <trkpt lat="45.04094" lon="5.87136">
        <ele>1810.78</ele>
        <time>2022-11-06T08:06:48Z</time>
      </trkpt>
      <trkpt lat="45.04088" lon="5.87152">
        <ele>1814.15</ele>
        <time>2022-11-06T08:07:07Z</time>
      </trkpt>
      <trkpt lat="45.04082" lon="5.87164">
        <ele>1817.99</ele>
        <time>2022-11-06T08:07:28Z</time>
      </trkpt>
      <trkpt lat="45.04077" lon="5.87177">
        <ele>1820.87</ele>
        <time>2022-11-06T08:07:47Z</time>
      </trkpt>
      <trkpt lat="45.04076" lon="5.87187">
        <ele>1823.76</ele>
        <time>2022-11-06T08:08:07Z</time>
      </trkpt>
      <trkpt lat="45.04075" lon="5.87188">
        <ele>1824.24</ele>
        <time>2022-11-06T08:08:08Z</time>
      </trkpt>
      <trkpt lat="45.04072" lon="5.872">
        <ele>1827.12</ele>
        <time>2022-11-06T08:08:26Z</time>
      </trkpt>
      <trkpt lat="45.0407" lon="5.87213">
        <ele>1830.01</ele>
        <time>2022-11-06T08:08:44Z</time>
      </trkpt>
      <trkpt lat="45.04068" lon="5.87225">
        <ele>1833.37</ele>
        <time>2022-11-06T08:09:02Z</time>
      </trkpt>
      <trkpt lat="45.04067" lon="5.87237">
        <ele>1836.26</ele>
        <time>2022-11-06T08:09:21Z</time>
      </trkpt>
      <trkpt lat="45.04065" lon="5.87242">
        <ele>1839.14</ele>
        <time>2022-11-06T08:09:41Z</time>
      </trkpt>
      <trkpt lat="45.04065" lon="5.87241">
        <ele>1839.62</ele>
        <time>2022-11-06T08:10:05Z</time>
      </trkpt>
      <trkpt lat="45.04065" lon="5.87242">
        <ele>1839.62</ele>
        <time>2022-11-06T08:10:30Z</time>
      </trkpt>
      <trkpt lat="45.04065" lon="5.87242">
        <ele>1837.22</ele>
        <time>2022-11-06T08:11:04Z</time>
      </trkpt>
      <trkpt lat="45.04064" lon="5.87243">
        <ele>1840.58</ele>
        <time>2022-11-06T08:11:14Z</time>
      </trkpt>
      <trkpt lat="45.04065" lon="5.87243">
        <ele>1842.5</ele>
        <time>2022-11-06T08:11:17Z</time>
      </trkpt>
      <trkpt lat="45.04063" lon="5.87243">
        <ele>1840.58</ele>
        <time>2022-11-06T08:11:39Z</time>
      </trkpt>
      <trkpt lat="45.04063" lon="5.8725">
        <ele>1840.58</ele>
        <time>2022-11-06T08:12:04Z</time>
      </trkpt>
      <trkpt lat="45.0406" lon="5.87261">
        <ele>1840.58</ele>
        <time>2022-11-06T08:12:18Z</time>
      </trkpt>
      <trkpt lat="45.04051" lon="5.87267">
        <ele>1840.58</ele>
        <time>2022-11-06T08:12:33Z</time>
      </trkpt>
      <trkpt lat="45.04049" lon="5.87269">
        <ele>1844.43</ele>
        <time>2022-11-06T08:12:37Z</time>
      </trkpt>
      <trkpt lat="45.04045" lon="5.87276">
        <ele>1847.31</ele>
        <time>2022-11-06T08:12:53Z</time>
      </trkpt>
      <trkpt lat="45.04046" lon="5.87284">
        <ele>1849.71</ele>
        <time>2022-11-06T08:13:06Z</time>
      </trkpt>
      <trkpt lat="45.04044" lon="5.87287">
        <ele>1851.16</ele>
        <time>2022-11-06T08:13:13Z</time>
      </trkpt>
      <trkpt lat="45.04037" lon="5.87291">
        <ele>1854.04</ele>
        <time>2022-11-06T08:13:26Z</time>
      </trkpt>
      <trkpt lat="45.04031" lon="5.87298">
        <ele>1855.96</ele>
        <time>2022-11-06T08:13:40Z</time>
      </trkpt>
      <trkpt lat="45.04035" lon="5.87304">
        <ele>1857.4</ele>
        <time>2022-11-06T08:14:01Z</time>
      </trkpt>
      <trkpt lat="45.0404" lon="5.87311">
        <ele>1859.81</ele>
        <time>2022-11-06T08:14:15Z</time>
      </trkpt>
      <trkpt lat="45.04037" lon="5.87313">
        <ele>1862.21</ele>
        <time>2022-11-06T08:14:23Z</time>
      </trkpt>
      <trkpt lat="45.04035" lon="5.8732">
        <ele>1864.61</ele>
        <time>2022-11-06T08:14:36Z</time>
      </trkpt>
      <trkpt lat="45.04032" lon="5.87327">
        <ele>1866.54</ele>
        <time>2022-11-06T08:14:51Z</time>
      </trkpt>
      <trkpt lat="45.04027" lon="5.87335">
        <ele>1868.94</ele>
        <time>2022-11-06T08:15:07Z</time>
      </trkpt>
      <trkpt lat="45.04027" lon="5.87342">
        <ele>1870.38</ele>
        <time>2022-11-06T08:15:23Z</time>
      </trkpt>
      <trkpt lat="45.04027" lon="5.87349">
        <ele>1873.75</ele>
        <time>2022-11-06T08:15:36Z</time>
      </trkpt>
      <trkpt lat="45.04026" lon="5.87355">
        <ele>1876.15</ele>
        <time>2022-11-06T08:15:49Z</time>
      </trkpt>
      <trkpt lat="45.04023" lon="5.87357">
        <ele>1878.07</ele>
        <time>2022-11-06T08:15:56Z</time>
      </trkpt>
      <trkpt lat="45.04016" lon="5.87359">
        <ele>1880</ele>
        <time>2022-11-06T08:16:08Z</time>
      </trkpt>
      <trkpt lat="45.04013" lon="5.87365">
        <ele>1881.92</ele>
        <time>2022-11-06T08:16:23Z</time>
      </trkpt>
      <trkpt lat="45.0401" lon="5.87372">
        <ele>1885.28</ele>
        <time>2022-11-06T08:16:39Z</time>
      </trkpt>
      <trkpt lat="45.04014" lon="5.8738">
        <ele>1887.21</ele>
        <time>2022-11-06T08:16:54Z</time>
      </trkpt>
      <trkpt lat="45.04011" lon="5.87387">
        <ele>1889.61</ele>
        <time>2022-11-06T08:17:09Z</time>
      </trkpt>
      <trkpt lat="45.04014" lon="5.87394">
        <ele>1891.53</ele>
        <time>2022-11-06T08:17:22Z</time>
      </trkpt>
      <trkpt lat="45.04016" lon="5.87402">
        <ele>1893.93</ele>
        <time>2022-11-06T08:17:35Z</time>
      </trkpt>
      <trkpt lat="45.04015" lon="5.87409">
        <ele>1896.82</ele>
        <time>2022-11-06T08:17:50Z</time>
      </trkpt>
      <trkpt lat="45.04018" lon="5.87417">
        <ele>1898.74</ele>
        <time>2022-11-06T08:18:06Z</time>
      </trkpt>
      <trkpt lat="45.04016" lon="5.87422">
        <ele>1900.18</ele>
        <time>2022-11-06T08:18:13Z</time>
      </trkpt>
      <trkpt lat="45.04011" lon="5.87432">
        <ele>1901.63</ele>
        <time>2022-11-06T08:18:30Z</time>
      </trkpt>
      <trkpt lat="45.0401" lon="5.87442">
        <ele>1904.51</ele>
        <time>2022-11-06T08:18:45Z</time>
      </trkpt>
      <trkpt lat="45.0401" lon="5.87448">
        <ele>1907.39</ele>
        <time>2022-11-06T08:18:56Z</time>
      </trkpt>
      <trkpt lat="45.04009" lon="5.87454">
        <ele>1907.39</ele>
        <time>2022-11-06T08:19:16Z</time>
      </trkpt>
      <trkpt lat="45.04008" lon="5.87461">
        <ele>1909.8</ele>
        <time>2022-11-06T08:19:30Z</time>
      </trkpt>
      <trkpt lat="45.04008" lon="5.87468">
        <ele>1913.16</ele>
        <time>2022-11-06T08:19:44Z</time>
      </trkpt>
      <trkpt lat="45.04007" lon="5.87471">
        <ele>1914.12</ele>
        <time>2022-11-06T08:19:56Z</time>
      </trkpt>
      <trkpt lat="45.04006" lon="5.8748">
        <ele>1917.49</ele>
        <time>2022-11-06T08:20:12Z</time>
      </trkpt>
      <trkpt lat="45.04007" lon="5.87488">
        <ele>1918.93</ele>
        <time>2022-11-06T08:20:27Z</time>
      </trkpt>
      <trkpt lat="45.04006" lon="5.87494">
        <ele>1921.81</ele>
        <time>2022-11-06T08:20:46Z</time>
      </trkpt>
      <trkpt lat="45.04006" lon="5.87504">
        <ele>1924.22</ele>
        <time>2022-11-06T08:21:07Z</time>
      </trkpt>
      <trkpt lat="45.04004" lon="5.87514">
        <ele>1927.58</ele>
        <time>2022-11-06T08:21:27Z</time>
      </trkpt>
      <trkpt lat="45.04002" lon="5.87527">
        <ele>1930.46</ele>
        <time>2022-11-06T08:21:51Z</time>
      </trkpt>
      <trkpt lat="45.03995" lon="5.87531">
        <ele>1933.83</ele>
        <time>2022-11-06T08:22:12Z</time>
      </trkpt>
      <trkpt lat="45.03995" lon="5.87531">
        <ele>1934.79</ele>
        <time>2022-11-06T08:22:37Z</time>
      </trkpt>
      <trkpt lat="45.03995" lon="5.87531">
        <ele>1934.31</ele>
        <time>2022-11-06T08:22:50Z</time>
      </trkpt>
      <trkpt lat="45.03994" lon="5.87531">
        <ele>1936.71</ele>
        <time>2022-11-06T08:23:14Z</time>
      </trkpt>
      <trkpt lat="45.0399" lon="5.87531">
        <ele>1935.75</ele>
        <time>2022-11-06T08:23:40Z</time>
      </trkpt>
      <trkpt lat="45.03983" lon="5.87526">
        <ele>1935.75</ele>
        <time>2022-11-06T08:23:54Z</time>
      </trkpt>
      <trkpt lat="45.03976" lon="5.87524">
        <ele>1935.75</ele>
        <time>2022-11-06T08:24:08Z</time>
      </trkpt>
      <trkpt lat="45.0397" lon="5.87518">
        <ele>1940.08</ele>
        <time>2022-11-06T08:24:21Z</time>
      </trkpt>
      <trkpt lat="45.03967" lon="5.87517">
        <ele>1942.96</ele>
        <time>2022-11-06T08:24:26Z</time>
      </trkpt>
      <trkpt lat="45.03956" lon="5.87514">
        <ele>1945.36</ele>
        <time>2022-11-06T08:24:44Z</time>
      </trkpt>
      <trkpt lat="45.03948" lon="5.87508">
        <ele>1946.81</ele>
        <time>2022-11-06T08:25:00Z</time>
      </trkpt>
      <trkpt lat="45.03942" lon="5.87505">
        <ele>1949.21</ele>
        <time>2022-11-06T08:25:15Z</time>
      </trkpt>
      <trkpt lat="45.03933" lon="5.87504">
        <ele>1951.61</ele>
        <time>2022-11-06T08:25:32Z</time>
      </trkpt>
      <trkpt lat="45.03928" lon="5.87506">
        <ele>1954.5</ele>
        <time>2022-11-06T08:25:46Z</time>
      </trkpt>
      <trkpt lat="45.03922" lon="5.87513">
        <ele>1956.42</ele>
        <time>2022-11-06T08:26:05Z</time>
      </trkpt>
      <trkpt lat="45.03918" lon="5.87512">
        <ele>1957.86</ele>
        <time>2022-11-06T08:26:21Z</time>
      </trkpt>
      <trkpt lat="45.03911" lon="5.87507">
        <ele>1959.78</ele>
        <time>2022-11-06T08:26:36Z</time>
      </trkpt>
      <trkpt lat="45.03903" lon="5.87507">
        <ele>1962.67</ele>
        <time>2022-11-06T08:26:53Z</time>
      </trkpt>
      <trkpt lat="45.03896" lon="5.87509">
        <ele>1964.59</ele>
        <time>2022-11-06T08:27:09Z</time>
      </trkpt>
      <trkpt lat="45.03889" lon="5.87509">
        <ele>1966.99</ele>
        <time>2022-11-06T08:27:25Z</time>
      </trkpt>
      <trkpt lat="45.03883" lon="5.87511">
        <ele>1969.4</ele>
        <time>2022-11-06T08:27:41Z</time>
      </trkpt>
      <trkpt lat="45.03876" lon="5.87513">
        <ele>1971.8</ele>
        <time>2022-11-06T08:27:58Z</time>
      </trkpt>
      <trkpt lat="45.03877" lon="5.87521">
        <ele>1973.24</ele>
        <time>2022-11-06T08:28:13Z</time>
      </trkpt>
      <trkpt lat="45.03876" lon="5.87527">
        <ele>1976.61</ele>
        <time>2022-11-06T08:28:29Z</time>
      </trkpt>
      <trkpt lat="45.0387" lon="5.87529">
        <ele>1977.09</ele>
        <time>2022-11-06T08:28:44Z</time>
      </trkpt>
      <trkpt lat="45.03864" lon="5.87533">
        <ele>1979.01</ele>
        <time>2022-11-06T08:28:58Z</time>
      </trkpt>
      <trkpt lat="45.03859" lon="5.87538">
        <ele>1981.9</ele>
        <time>2022-11-06T08:29:14Z</time>
      </trkpt>
      <trkpt lat="45.03861" lon="5.87547">
        <ele>1983.34</ele>
        <time>2022-11-06T08:29:28Z</time>
      </trkpt>
      <trkpt lat="45.03867" lon="5.87555">
        <ele>1984.78</ele>
        <time>2022-11-06T08:29:43Z</time>
      </trkpt>
      <trkpt lat="45.03875" lon="5.87561">
        <ele>1987.18</ele>
        <time>2022-11-06T08:29:58Z</time>
      </trkpt>
      <trkpt lat="45.03867" lon="5.87563">
        <ele>1988.62</ele>
        <time>2022-11-06T08:30:11Z</time>
      </trkpt>
      <trkpt lat="45.03862" lon="5.8757">
        <ele>1990.07</ele>
        <time>2022-11-06T08:30:25Z</time>
      </trkpt>
      <trkpt lat="45.03859" lon="5.87578">
        <ele>1991.99</ele>
        <time>2022-11-06T08:30:40Z</time>
      </trkpt>
      <trkpt lat="45.03856" lon="5.87588">
        <ele>1994.39</ele>
        <time>2022-11-06T08:30:55Z</time>
      </trkpt>
      <trkpt lat="45.03854" lon="5.87598">
        <ele>1996.8</ele>
        <time>2022-11-06T08:31:10Z</time>
      </trkpt>
      <trkpt lat="45.03854" lon="5.87603">
        <ele>1997.28</ele>
        <time>2022-11-06T08:31:26Z</time>
      </trkpt>
      <trkpt lat="45.0385" lon="5.8761">
        <ele>1999.2</ele>
        <time>2022-11-06T08:31:39Z</time>
      </trkpt>
      <trkpt lat="45.03852" lon="5.87615">
        <ele>2001.6</ele>
        <time>2022-11-06T08:31:52Z</time>
      </trkpt>
      <trkpt lat="45.03854" lon="5.87617">
        <ele>2003.04</ele>
        <time>2022-11-06T08:32:05Z</time>
      </trkpt>
      <trkpt lat="45.03854" lon="5.87617">
        <ele>2000.16</ele>
        <time>2022-11-06T08:32:17Z</time>
      </trkpt>
      <trkpt lat="45.03854" lon="5.87617">
        <ele>1999.68</ele>
        <time>2022-11-06T08:32:18Z</time>
      </trkpt>
      <trkpt lat="45.03854" lon="5.87617">
        <ele>2002.56</ele>
        <time>2022-11-06T08:32:32Z</time>
      </trkpt>
      <trkpt lat="45.03854" lon="5.87618">
        <ele>2006.41</ele>
        <time>2022-11-06T08:32:49Z</time>
      </trkpt>
      <trkpt lat="45.03853" lon="5.87617">
        <ele>2003.04</ele>
        <time>2022-11-06T08:33:09Z</time>
      </trkpt>
      <trkpt lat="45.03853" lon="5.87617">
        <ele>2003.04</ele>
        <time>2022-11-06T08:33:28Z</time>
      </trkpt>
      <trkpt lat="45.03853" lon="5.87617">
        <ele>2003.04</ele>
        <time>2022-11-06T08:33:52Z</time>
      </trkpt>
      <trkpt lat="45.03855" lon="5.87616">
        <ele>2003.04</ele>
        <time>2022-11-06T08:34:13Z</time>
      </trkpt>
      <trkpt lat="45.03854" lon="5.87616">
        <ele>2003.04</ele>
        <time>2022-11-06T08:34:35Z</time>
      </trkpt>
      <trkpt lat="45.03854" lon="5.87616">
        <ele>2003.04</ele>
        <time>2022-11-06T08:35:12Z</time>
      </trkpt>
      <trkpt lat="45.03854" lon="5.87624">
        <ele>2003.04</ele>
        <time>2022-11-06T08:35:32Z</time>
      </trkpt>
      <trkpt lat="45.03852" lon="5.87631">
        <ele>2003.04</ele>
        <time>2022-11-06T08:35:46Z</time>
      </trkpt>
      <trkpt lat="45.03849" lon="5.87638">
        <ele>2003.04</ele>
        <time>2022-11-06T08:36:01Z</time>
      </trkpt>
      <trkpt lat="45.0385" lon="5.87649">
        <ele>2003.04</ele>
        <time>2022-11-06T08:36:18Z</time>
      </trkpt>
      <trkpt lat="45.0385" lon="5.87657">
        <ele>2011.22</ele>
        <time>2022-11-06T08:36:33Z</time>
      </trkpt>
      <trkpt lat="45.0385" lon="5.87659">
        <ele>2012.18</ele>
        <time>2022-11-06T08:36:35Z</time>
      </trkpt>
      <trkpt lat="45.0385" lon="5.87665">
        <ele>2015.06</ele>
        <time>2022-11-06T08:36:48Z</time>
      </trkpt>
      <trkpt lat="45.03849" lon="5.87672">
        <ele>2017.94</ele>
        <time>2022-11-06T08:37:04Z</time>
      </trkpt>
      <trkpt lat="45.03848" lon="5.87677">
        <ele>2019.87</ele>
        <time>2022-11-06T08:37:16Z</time>
      </trkpt>
      <trkpt lat="45.0384" lon="5.87682">
        <ele>2021.79</ele>
        <time>2022-11-06T08:37:30Z</time>
      </trkpt>
      <trkpt lat="45.0384" lon="5.87688">
        <ele>2023.23</ele>
        <time>2022-11-06T08:37:46Z</time>
      </trkpt>
      <trkpt lat="45.03841" lon="5.87689">
        <ele>2024.19</ele>
        <time>2022-11-06T08:37:49Z</time>
      </trkpt>
      <trkpt lat="45.03846" lon="5.87695">
        <ele>2026.12</ele>
        <time>2022-11-06T08:38:05Z</time>
      </trkpt>
      <trkpt lat="45.03843" lon="5.87702">
        <ele>2028.52</ele>
        <time>2022-11-06T08:38:19Z</time>
      </trkpt>
      <trkpt lat="45.03843" lon="5.8771">
        <ele>2030.92</ele>
        <time>2022-11-06T08:38:34Z</time>
      </trkpt>
      <trkpt lat="45.03849" lon="5.87716">
        <ele>2032.84</ele>
        <time>2022-11-06T08:38:49Z</time>
      </trkpt>
      <trkpt lat="45.03849" lon="5.87716">
        <ele>2033.33</ele>
        <time>2022-11-06T08:38:50Z</time>
      </trkpt>
      <trkpt lat="45.03853" lon="5.87724">
        <ele>2034.77</ele>
        <time>2022-11-06T08:39:02Z</time>
      </trkpt>
      <trkpt lat="45.03856" lon="5.87731">
        <ele>2036.21</ele>
        <time>2022-11-06T08:39:16Z</time>
      </trkpt>
      <trkpt lat="45.03855" lon="5.87734">
        <ele>2037.65</ele>
        <time>2022-11-06T08:39:33Z</time>
      </trkpt>
      <trkpt lat="45.03855" lon="5.87739">
        <ele>2038.61</ele>
        <time>2022-11-06T08:39:46Z</time>
      </trkpt>
      <trkpt lat="45.0385" lon="5.8774">
        <ele>2040.54</ele>
        <time>2022-11-06T08:40:03Z</time>
      </trkpt>
      <trkpt lat="45.03846" lon="5.87746">
        <ele>2042.94</ele>
        <time>2022-11-06T08:40:17Z</time>
      </trkpt>
      <trkpt lat="45.03844" lon="5.87753">
        <ele>2044.86</ele>
        <time>2022-11-06T08:40:30Z</time>
      </trkpt>
      <trkpt lat="45.0384" lon="5.87757">
        <ele>2046.78</ele>
        <time>2022-11-06T08:40:42Z</time>
      </trkpt>
      <trkpt lat="45.03837" lon="5.87766">
        <ele>2049.19</ele>
        <time>2022-11-06T08:40:57Z</time>
      </trkpt>
      <trkpt lat="45.03831" lon="5.87772">
        <ele>2051.11</ele>
        <time>2022-11-06T08:41:14Z</time>
      </trkpt>
      <trkpt lat="45.03826" lon="5.87781">
        <ele>2053.03</ele>
        <time>2022-11-06T08:41:30Z</time>
      </trkpt>
      <trkpt lat="45.0382" lon="5.87789">
        <ele>2055.44</ele>
        <time>2022-11-06T08:41:44Z</time>
      </trkpt>
      <trkpt lat="45.03813" lon="5.87799">
        <ele>2057.84</ele>
        <time>2022-11-06T08:42:00Z</time>
      </trkpt>
      <trkpt lat="45.0381" lon="5.87806">
        <ele>2059.76</ele>
        <time>2022-11-06T08:42:14Z</time>
      </trkpt>
      <trkpt lat="45.03807" lon="5.8781">
        <ele>2062.17</ele>
        <time>2022-11-06T08:42:21Z</time>
      </trkpt>
      <trkpt lat="45.03804" lon="5.87817">
        <ele>2063.61</ele>
        <time>2022-11-06T08:42:34Z</time>
      </trkpt>
      <trkpt lat="45.038" lon="5.87825">
        <ele>2064.57</ele>
        <time>2022-11-06T08:42:47Z</time>
      </trkpt>
      <trkpt lat="45.03797" lon="5.87834">
        <ele>2066.97</ele>
        <time>2022-11-06T08:43:00Z</time>
      </trkpt>
      <trkpt lat="45.03795" lon="5.87846">
        <ele>2068.89</ele>
        <time>2022-11-06T08:43:14Z</time>
      </trkpt>
      <trkpt lat="45.03791" lon="5.87856">
        <ele>2071.3</ele>
        <time>2022-11-06T08:43:27Z</time>
      </trkpt>
      <trkpt lat="45.03791" lon="5.87864">
        <ele>2071.78</ele>
        <time>2022-11-06T08:43:43Z</time>
      </trkpt>
      <trkpt lat="45.03792" lon="5.87875">
        <ele>2075.62</ele>
        <time>2022-11-06T08:43:58Z</time>
      </trkpt>
      <trkpt lat="45.0379" lon="5.87887">
        <ele>2078.03</ele>
        <time>2022-11-06T08:44:15Z</time>
      </trkpt>
      <trkpt lat="45.03792" lon="5.87899">
        <ele>2079.47</ele>
        <time>2022-11-06T08:44:29Z</time>
      </trkpt>
      <trkpt lat="45.03791" lon="5.87908">
        <ele>2081.87</ele>
        <time>2022-11-06T08:44:45Z</time>
      </trkpt>
      <trkpt lat="45.03791" lon="5.87908">
        <ele>2077.55</ele>
        <time>2022-11-06T08:44:53Z</time>
      </trkpt>
      <trkpt lat="45.03791" lon="5.87908">
        <ele>2080.43</ele>
        <time>2022-11-06T08:45:08Z</time>
      </trkpt>
      <trkpt lat="45.03791" lon="5.87907">
        <ele>2083.79</ele>
        <time>2022-11-06T08:45:20Z</time>
      </trkpt>
      <trkpt lat="45.0379" lon="5.87907">
        <ele>2087.16</ele>
        <time>2022-11-06T08:45:23Z</time>
      </trkpt>
      <trkpt lat="45.0379" lon="5.87912">
        <ele>2083.79</ele>
        <time>2022-11-06T08:45:33Z</time>
      </trkpt>
      <trkpt lat="45.03788" lon="5.87927">
        <ele>2084.76</ele>
        <time>2022-11-06T08:45:49Z</time>
      </trkpt>
      <trkpt lat="45.03785" lon="5.87943">
        <ele>2087.64</ele>
        <time>2022-11-06T08:46:05Z</time>
      </trkpt>
      <trkpt lat="45.03789" lon="5.87954">
        <ele>2089.56</ele>
        <time>2022-11-06T08:46:22Z</time>
      </trkpt>
      <trkpt lat="45.03793" lon="5.87962">
        <ele>2091.49</ele>
        <time>2022-11-06T08:46:36Z</time>
      </trkpt>
      <trkpt lat="45.03795" lon="5.87972">
        <ele>2093.41</ele>
        <time>2022-11-06T08:46:49Z</time>
      </trkpt>
      <trkpt lat="45.03798" lon="5.87976">
        <ele>2094.37</ele>
        <time>2022-11-06T08:47:05Z</time>
      </trkpt>
      <trkpt lat="45.03798" lon="5.87987">
        <ele>2096.77</ele>
        <time>2022-11-06T08:47:20Z</time>
      </trkpt>
      <trkpt lat="45.03797" lon="5.88">
        <ele>2099.18</ele>
        <time>2022-11-06T08:47:35Z</time>
      </trkpt>
      <trkpt lat="45.03798" lon="5.88009">
        <ele>2100.62</ele>
        <time>2022-11-06T08:47:48Z</time>
      </trkpt>
      <trkpt lat="45.03798" lon="5.88017">
        <ele>2102.54</ele>
        <time>2022-11-06T08:48:02Z</time>
      </trkpt>
      <trkpt lat="45.03799" lon="5.88027">
        <ele>2104.46</ele>
        <time>2022-11-06T08:48:17Z</time>
      </trkpt>
      <trkpt lat="45.03801" lon="5.88036">
        <ele>2106.39</ele>
        <time>2022-11-06T08:48:31Z</time>
      </trkpt>
      <trkpt lat="45.03801" lon="5.88049">
        <ele>2108.31</ele>
        <time>2022-11-06T08:48:46Z</time>
      </trkpt>
      <trkpt lat="45.03801" lon="5.88059">
        <ele>2110.71</ele>
        <time>2022-11-06T08:48:59Z</time>
      </trkpt>
      <trkpt lat="45.03802" lon="5.88071">
        <ele>2112.63</ele>
        <time>2022-11-06T08:49:15Z</time>
      </trkpt>
      <trkpt lat="45.03801" lon="5.88082">
        <ele>2115.52</ele>
        <time>2022-11-06T08:49:30Z</time>
      </trkpt>
      <trkpt lat="45.03803" lon="5.8809">
        <ele>2117.44</ele>
        <time>2022-11-06T08:49:44Z</time>
      </trkpt>
      <trkpt lat="45.03801" lon="5.881">
        <ele>2118.88</ele>
        <time>2022-11-06T08:49:56Z</time>
      </trkpt>
      <trkpt lat="45.038" lon="5.88102">
        <ele>2119.36</ele>
        <time>2022-11-06T08:49:58Z</time>
      </trkpt>
      <trkpt lat="45.03799" lon="5.88117">
        <ele>2122.73</ele>
        <time>2022-11-06T08:50:13Z</time>
      </trkpt>
      <trkpt lat="45.038" lon="5.88129">
        <ele>2124.17</ele>
        <time>2022-11-06T08:50:27Z</time>
      </trkpt>
      <trkpt lat="45.03798" lon="5.88146">
        <ele>2126.57</ele>
        <time>2022-11-06T08:50:44Z</time>
      </trkpt>
      <trkpt lat="45.03797" lon="5.88156">
        <ele>2127.05</ele>
        <time>2022-11-06T08:50:55Z</time>
      </trkpt>
      <trkpt lat="45.03797" lon="5.8817">
        <ele>2128.02</ele>
        <time>2022-11-06T08:51:11Z</time>
      </trkpt>
      <trkpt lat="45.03798" lon="5.88177">
        <ele>2129.46</ele>
        <time>2022-11-06T08:51:22Z</time>
      </trkpt>
      <trkpt lat="45.03798" lon="5.8818">
        <ele>2130.9</ele>
        <time>2022-11-06T08:51:43Z</time>
      </trkpt>
      <trkpt lat="45.03798" lon="5.8818">
        <ele>2130.9</ele>
        <time>2022-11-06T08:52:09Z</time>
      </trkpt>
      <trkpt lat="45.03797" lon="5.8818">
        <ele>2131.38</ele>
        <time>2022-11-06T08:52:36Z</time>
      </trkpt>
      <trkpt lat="45.03797" lon="5.8818">
        <ele>2130.9</ele>
        <time>2022-11-06T08:53:10Z</time>
      </trkpt>
      <trkpt lat="45.03797" lon="5.8818">
        <ele>2130.9</ele>
        <time>2022-11-06T08:53:36Z</time>
      </trkpt>
      <trkpt lat="45.03798" lon="5.88181">
        <ele>2128.02</ele>
        <time>2022-11-06T08:54:01Z</time>
      </trkpt>
      <trkpt lat="45.03798" lon="5.88181">
        <ele>2131.38</ele>
        <time>2022-11-06T08:54:06Z</time>
      </trkpt>
      <trkpt lat="45.03798" lon="5.88181">
        <ele>2132.34</ele>
        <time>2022-11-06T08:54:08Z</time>
      </trkpt>
      <trkpt lat="45.03798" lon="5.88181">
        <ele>2129.46</ele>
        <time>2022-11-06T08:54:12Z</time>
      </trkpt>
      <trkpt lat="45.03798" lon="5.88181">
        <ele>2128.5</ele>
        <time>2022-11-06T08:54:14Z</time>
      </trkpt>
      <trkpt lat="45.03798" lon="5.88181">
        <ele>2131.38</ele>
        <time>2022-11-06T08:54:24Z</time>
      </trkpt>
      <trkpt lat="45.03798" lon="5.88181">
        <ele>2129.94</ele>
        <time>2022-11-06T08:54:51Z</time>
      </trkpt>
      <trkpt lat="45.03798" lon="5.88182">
        <ele>2130.42</ele>
        <time>2022-11-06T08:55:10Z</time>
      </trkpt>
      <trkpt lat="45.03798" lon="5.88182">
        <ele>2131.86</ele>
        <time>2022-11-06T08:55:15Z</time>
      </trkpt>
      <trkpt lat="45.03798" lon="5.88183">
        <ele>2131.38</ele>
        <time>2022-11-06T08:55:40Z</time>
      </trkpt>
      <trkpt lat="45.03798" lon="5.88183">
        <ele>2131.38</ele>
        <time>2022-11-06T08:56:19Z</time>
      </trkpt>
      <trkpt lat="45.03798" lon="5.88187">
        <ele>2134.74</ele>
        <time>2022-11-06T08:56:36Z</time>
      </trkpt>
      <trkpt lat="45.03798" lon="5.88188">
        <ele>2134.74</ele>
        <time>2022-11-06T08:56:37Z</time>
      </trkpt>
      <trkpt lat="45.03796" lon="5.88197">
        <ele>2134.26</ele>
        <time>2022-11-06T08:56:45Z</time>
      </trkpt>
      <trkpt lat="45.03794" lon="5.88205">
        <ele>2134.26</ele>
        <time>2022-11-06T08:56:51Z</time>
      </trkpt>
      <trkpt lat="45.0379" lon="5.88223">
        <ele>2133.78</ele>
        <time>2022-11-06T08:57:05Z</time>
      </trkpt>
      <trkpt lat="45.03786" lon="5.88239">
        <ele>2133.3</ele>
        <time>2022-11-06T08:57:17Z</time>
      </trkpt>
      <trkpt lat="45.03783" lon="5.88248">
        <ele>2133.78</ele>
        <time>2022-11-06T08:57:24Z</time>
      </trkpt>
      <trkpt lat="45.03779" lon="5.88261">
        <ele>2133.3</ele>
        <time>2022-11-06T08:57:36Z</time>
      </trkpt>
      <trkpt lat="45.03778" lon="5.88269">
        <ele>2133.3</ele>
        <time>2022-11-06T08:57:43Z</time>
      </trkpt>
      <trkpt lat="45.03778" lon="5.88285">
        <ele>2133.3</ele>
        <time>2022-11-06T08:57:56Z</time>
      </trkpt>
      <trkpt lat="45.0378" lon="5.88295">
        <ele>2133.78</ele>
        <time>2022-11-06T08:58:11Z</time>
      </trkpt>
      <trkpt lat="45.03783" lon="5.88308">
        <ele>2133.78</ele>
        <time>2022-11-06T08:58:23Z</time>
      </trkpt>
      <trkpt lat="45.03783" lon="5.88312">
        <ele>2133.78</ele>
        <time>2022-11-06T08:58:27Z</time>
      </trkpt>
      <trkpt lat="45.03785" lon="5.88332">
        <ele>2133.78</ele>
        <time>2022-11-06T08:58:43Z</time>
      </trkpt>
      <trkpt lat="45.03786" lon="5.88337">
        <ele>2135.71</ele>
        <time>2022-11-06T08:58:56Z</time>
      </trkpt>
      <trkpt lat="45.03786" lon="5.88339">
        <ele>2135.23</ele>
        <time>2022-11-06T08:59:11Z</time>
      </trkpt>
      <trkpt lat="45.03787" lon="5.88346">
        <ele>2134.26</ele>
        <time>2022-11-06T08:59:25Z</time>
      </trkpt>
      <trkpt lat="45.03787" lon="5.8835">
        <ele>2134.26</ele>
        <time>2022-11-06T08:59:28Z</time>
      </trkpt>
      <trkpt lat="45.03787" lon="5.88367">
        <ele>2136.67</ele>
        <time>2022-11-06T08:59:42Z</time>
      </trkpt>
      <trkpt lat="45.03786" lon="5.88371">
        <ele>2136.67</ele>
        <time>2022-11-06T08:59:45Z</time>
      </trkpt>
      <trkpt lat="45.03786" lon="5.88392">
        <ele>2137.15</ele>
        <time>2022-11-06T08:59:59Z</time>
      </trkpt>
      <trkpt lat="45.03784" lon="5.88397">
        <ele>2138.11</ele>
        <time>2022-11-06T09:00:03Z</time>
      </trkpt>
      <trkpt lat="45.03785" lon="5.88402">
        <ele>2138.11</ele>
        <time>2022-11-06T09:00:07Z</time>
      </trkpt>
      <trkpt lat="45.03788" lon="5.88409">
        <ele>2138.11</ele>
        <time>2022-11-06T09:00:12Z</time>
      </trkpt>
      <trkpt lat="45.03788" lon="5.88414">
        <ele>2139.07</ele>
        <time>2022-11-06T09:00:16Z</time>
      </trkpt>
      <trkpt lat="45.03789" lon="5.88418">
        <ele>2139.55</ele>
        <time>2022-11-06T09:00:19Z</time>
      </trkpt>
      <trkpt lat="45.03792" lon="5.88434">
        <ele>2140.03</ele>
        <time>2022-11-06T09:00:33Z</time>
      </trkpt>
      <trkpt lat="45.03792" lon="5.88443">
        <ele>2141.47</ele>
        <time>2022-11-06T09:00:42Z</time>
      </trkpt>
      <trkpt lat="45.03791" lon="5.88456">
        <ele>2142.44</ele>
        <time>2022-11-06T09:00:54Z</time>
      </trkpt>
      <trkpt lat="45.03791" lon="5.8846">
        <ele>2142.92</ele>
        <time>2022-11-06T09:00:57Z</time>
      </trkpt>
      <trkpt lat="45.03792" lon="5.88461">
        <ele>2143.4</ele>
        <time>2022-11-06T09:00:58Z</time>
      </trkpt>
      <trkpt lat="45.03795" lon="5.88479">
        <ele>2143.4</ele>
        <time>2022-11-06T09:01:11Z</time>
      </trkpt>
      <trkpt lat="45.03793" lon="5.88481">
        <ele>2142.44</ele>
        <time>2022-11-06T09:01:27Z</time>
      </trkpt>
      <trkpt lat="45.03794" lon="5.8849">
        <ele>2142.92</ele>
        <time>2022-11-06T09:01:43Z</time>
      </trkpt>
      <trkpt lat="45.03795" lon="5.88491">
        <ele>2142.92</ele>
        <time>2022-11-06T09:01:44Z</time>
      </trkpt>
      <trkpt lat="45.03796" lon="5.88495">
        <ele>2142.44</ele>
        <time>2022-11-06T09:01:47Z</time>
      </trkpt>
      <trkpt lat="45.03795" lon="5.88499">
        <ele>2141.95</ele>
        <time>2022-11-06T09:01:50Z</time>
      </trkpt>
      <trkpt lat="45.03795" lon="5.88511">
        <ele>2143.4</ele>
        <time>2022-11-06T09:02:00Z</time>
      </trkpt>
      <trkpt lat="45.03797" lon="5.88527">
        <ele>2142.44</ele>
        <time>2022-11-06T09:02:14Z</time>
      </trkpt>
      <trkpt lat="45.03798" lon="5.88531">
        <ele>2141.47</ele>
        <time>2022-11-06T09:02:17Z</time>
      </trkpt>
      <trkpt lat="45.03798" lon="5.88535">
        <ele>2140.99</ele>
        <time>2022-11-06T09:02:20Z</time>
      </trkpt>
      <trkpt lat="45.03797" lon="5.88537">
        <ele>2140.99</ele>
        <time>2022-11-06T09:02:21Z</time>
      </trkpt>
      <trkpt lat="45.03795" lon="5.88558">
        <ele>2139.07</ele>
        <time>2022-11-06T09:02:38Z</time>
      </trkpt>
      <trkpt lat="45.03793" lon="5.88572">
        <ele>2136.67</ele>
        <time>2022-11-06T09:02:52Z</time>
      </trkpt>
      <trkpt lat="45.03793" lon="5.88573">
        <ele>2136.67</ele>
        <time>2022-11-06T09:02:53Z</time>
      </trkpt>
      <trkpt lat="45.03792" lon="5.88588">
        <ele>2134.74</ele>
        <time>2022-11-06T09:03:06Z</time>
      </trkpt>
      <trkpt lat="45.03788" lon="5.88598">
        <ele>2132.34</ele>
        <time>2022-11-06T09:03:19Z</time>
      </trkpt>
      <trkpt lat="45.03787" lon="5.88602">
        <ele>2131.86</ele>
        <time>2022-11-06T09:03:23Z</time>
      </trkpt>
      <trkpt lat="45.03787" lon="5.88604">
        <ele>2131.38</ele>
        <time>2022-11-06T09:03:24Z</time>
      </trkpt>
      <trkpt lat="45.03788" lon="5.88608">
        <ele>2131.38</ele>
        <time>2022-11-06T09:03:27Z</time>
      </trkpt>
      <trkpt lat="45.03786" lon="5.88622">
        <ele>2128.98</ele>
        <time>2022-11-06T09:03:41Z</time>
      </trkpt>
      <trkpt lat="45.03781" lon="5.8863">
        <ele>2128.02</ele>
        <time>2022-11-06T09:03:50Z</time>
      </trkpt>
      <trkpt lat="45.03781" lon="5.88633">
        <ele>2127.53</ele>
        <time>2022-11-06T09:03:52Z</time>
      </trkpt>
      <trkpt lat="45.0378" lon="5.88643">
        <ele>2125.61</ele>
        <time>2022-11-06T09:04:04Z</time>
      </trkpt>
      <trkpt lat="45.03779" lon="5.88651">
        <ele>2125.61</ele>
        <time>2022-11-06T09:04:11Z</time>
      </trkpt>
      <trkpt lat="45.0378" lon="5.88659">
        <ele>2125.61</ele>
        <time>2022-11-06T09:04:22Z</time>
      </trkpt>
      <trkpt lat="45.03778" lon="5.88666">
        <ele>2125.61</ele>
        <time>2022-11-06T09:04:30Z</time>
      </trkpt>
      <trkpt lat="45.03775" lon="5.88671">
        <ele>2124.65</ele>
        <time>2022-11-06T09:04:37Z</time>
      </trkpt>
      <trkpt lat="45.03773" lon="5.88673">
        <ele>2124.17</ele>
        <time>2022-11-06T09:04:41Z</time>
      </trkpt>
      <trkpt lat="45.03771" lon="5.88679">
        <ele>2123.69</ele>
        <time>2022-11-06T09:04:50Z</time>
      </trkpt>
      <trkpt lat="45.0377" lon="5.88679">
        <ele>2123.69</ele>
        <time>2022-11-06T09:04:51Z</time>
      </trkpt>
      <trkpt lat="45.03767" lon="5.88681">
        <ele>2122.73</ele>
        <time>2022-11-06T09:04:54Z</time>
      </trkpt>
      <trkpt lat="45.03767" lon="5.88683">
        <ele>2121.77</ele>
        <time>2022-11-06T09:04:55Z</time>
      </trkpt>
      <trkpt lat="45.03768" lon="5.88684">
        <ele>2121.77</ele>
        <time>2022-11-06T09:04:56Z</time>
      </trkpt>
      <trkpt lat="45.03772" lon="5.8869">
        <ele>2122.25</ele>
        <time>2022-11-06T09:05:05Z</time>
      </trkpt>
      <trkpt lat="45.03776" lon="5.887">
        <ele>2121.77</ele>
        <time>2022-11-06T09:05:20Z</time>
      </trkpt>
      <trkpt lat="45.03769" lon="5.88704">
        <ele>2120.81</ele>
        <time>2022-11-06T09:05:32Z</time>
      </trkpt>
      <trkpt lat="45.03761" lon="5.88707">
        <ele>2121.29</ele>
        <time>2022-11-06T09:05:45Z</time>
      </trkpt>
      <trkpt lat="45.03757" lon="5.8871">
        <ele>2123.69</ele>
        <time>2022-11-06T09:05:56Z</time>
      </trkpt>
      <trkpt lat="45.03753" lon="5.88713">
        <ele>2124.17</ele>
        <time>2022-11-06T09:06:00Z</time>
      </trkpt>
      <trkpt lat="45.03747" lon="5.88723">
        <ele>2125.13</ele>
        <time>2022-11-06T09:06:13Z</time>
      </trkpt>
      <trkpt lat="45.03746" lon="5.88725">
        <ele>2123.69</ele>
        <time>2022-11-06T09:06:19Z</time>
      </trkpt>
      <trkpt lat="45.03742" lon="5.88733">
        <ele>2125.13</ele>
        <time>2022-11-06T09:06:33Z</time>
      </trkpt>
      <trkpt lat="45.03741" lon="5.88734">
        <ele>2125.13</ele>
        <time>2022-11-06T09:06:34Z</time>
      </trkpt>
      <trkpt lat="45.03741" lon="5.88735">
        <ele>2125.13</ele>
        <time>2022-11-06T09:06:35Z</time>
      </trkpt>
      <trkpt lat="45.0374" lon="5.88738">
        <ele>2124.17</ele>
        <time>2022-11-06T09:06:37Z</time>
      </trkpt>
      <trkpt lat="45.0373" lon="5.88755">
        <ele>2121.77</ele>
        <time>2022-11-06T09:06:52Z</time>
      </trkpt>
      <trkpt lat="45.03725" lon="5.88772">
        <ele>2121.29</ele>
        <time>2022-11-06T09:07:07Z</time>
      </trkpt>
      <trkpt lat="45.03724" lon="5.88775">
        <ele>2120.81</ele>
        <time>2022-11-06T09:07:10Z</time>
      </trkpt>
      <trkpt lat="45.03723" lon="5.88791">
        <ele>2120.32</ele>
        <time>2022-11-06T09:07:24Z</time>
      </trkpt>
      <trkpt lat="45.03722" lon="5.88795">
        <ele>2119.84</ele>
        <time>2022-11-06T09:07:27Z</time>
      </trkpt>
      <trkpt lat="45.03721" lon="5.88801">
        <ele>2119.36</ele>
        <time>2022-11-06T09:07:32Z</time>
      </trkpt>
      <trkpt lat="45.03715" lon="5.88817">
        <ele>2119.36</ele>
        <time>2022-11-06T09:07:47Z</time>
      </trkpt>
      <trkpt lat="45.03715" lon="5.8882">
        <ele>2119.36</ele>
        <time>2022-11-06T09:07:49Z</time>
      </trkpt>
      <trkpt lat="45.0371" lon="5.88832">
        <ele>2117.92</ele>
        <time>2022-11-06T09:08:04Z</time>
      </trkpt>
      <trkpt lat="45.03704" lon="5.88838">
        <ele>2117.44</ele>
        <time>2022-11-06T09:08:18Z</time>
      </trkpt>
      <trkpt lat="45.03706" lon="5.88853">
        <ele>2117.92</ele>
        <time>2022-11-06T09:08:33Z</time>
      </trkpt>
      <trkpt lat="45.03706" lon="5.88864">
        <ele>2117.44</ele>
        <time>2022-11-06T09:08:48Z</time>
      </trkpt>
      <trkpt lat="45.03702" lon="5.88876">
        <ele>2118.88</ele>
        <time>2022-11-06T09:09:03Z</time>
      </trkpt>
      <trkpt lat="45.03694" lon="5.88886">
        <ele>2119.36</ele>
        <time>2022-11-06T09:09:19Z</time>
      </trkpt>
      <trkpt lat="45.03691" lon="5.88889">
        <ele>2122.73</ele>
        <time>2022-11-06T09:09:27Z</time>
      </trkpt>
      <trkpt lat="45.03691" lon="5.88889">
        <ele>2123.69</ele>
        <time>2022-11-06T09:09:30Z</time>
      </trkpt>
      <trkpt lat="45.03684" lon="5.88895">
        <ele>2122.73</ele>
        <time>2022-11-06T09:09:44Z</time>
      </trkpt>
      <trkpt lat="45.03681" lon="5.88898">
        <ele>2123.21</ele>
        <time>2022-11-06T09:09:49Z</time>
      </trkpt>
      <trkpt lat="45.03677" lon="5.88905">
        <ele>2122.73</ele>
        <time>2022-11-06T09:10:01Z</time>
      </trkpt>
      <trkpt lat="45.03673" lon="5.88912">
        <ele>2122.73</ele>
        <time>2022-11-06T09:10:12Z</time>
      </trkpt>
      <trkpt lat="45.03665" lon="5.88919">
        <ele>2123.69</ele>
        <time>2022-11-06T09:10:24Z</time>
      </trkpt>
      <trkpt lat="45.03662" lon="5.8892">
        <ele>2124.17</ele>
        <time>2022-11-06T09:10:27Z</time>
      </trkpt>
      <trkpt lat="45.03653" lon="5.88923">
        <ele>2125.13</ele>
        <time>2022-11-06T09:10:42Z</time>
      </trkpt>
      <trkpt lat="45.03649" lon="5.88926">
        <ele>2126.57</ele>
        <time>2022-11-06T09:11:00Z</time>
      </trkpt>
      <trkpt lat="45.03646" lon="5.88926">
        <ele>2126.57</ele>
        <time>2022-11-06T09:11:03Z</time>
      </trkpt>
      <trkpt lat="45.03645" lon="5.88926">
        <ele>2126.09</ele>
        <time>2022-11-06T09:11:04Z</time>
      </trkpt>
      <trkpt lat="45.03636" lon="5.88922">
        <ele>2124.65</ele>
        <time>2022-11-06T09:11:16Z</time>
      </trkpt>
      <trkpt lat="45.03629" lon="5.88926">
        <ele>2125.61</ele>
        <time>2022-11-06T09:11:29Z</time>
      </trkpt>
      <trkpt lat="45.03623" lon="5.8893">
        <ele>2127.53</ele>
        <time>2022-11-06T09:11:41Z</time>
      </trkpt>
      <trkpt lat="45.03622" lon="5.88929">
        <ele>2127.53</ele>
        <time>2022-11-06T09:11:42Z</time>
      </trkpt>
      <trkpt lat="45.03621" lon="5.88928">
        <ele>2127.53</ele>
        <time>2022-11-06T09:11:43Z</time>
      </trkpt>
      <trkpt lat="45.0362" lon="5.88928">
        <ele>2127.53</ele>
        <time>2022-11-06T09:11:44Z</time>
      </trkpt>
      <trkpt lat="45.03619" lon="5.88927">
        <ele>2128.02</ele>
        <time>2022-11-06T09:11:45Z</time>
      </trkpt>
      <trkpt lat="45.03618" lon="5.88926">
        <ele>2128.02</ele>
        <time>2022-11-06T09:11:46Z</time>
      </trkpt>
      <trkpt lat="45.0361" lon="5.88926">
        <ele>2128.02</ele>
        <time>2022-11-06T09:11:54Z</time>
      </trkpt>
      <trkpt lat="45.03601" lon="5.88935">
        <ele>2127.53</ele>
        <time>2022-11-06T09:12:08Z</time>
      </trkpt>
      <trkpt lat="45.03596" lon="5.88939">
        <ele>2128.5</ele>
        <time>2022-11-06T09:12:15Z</time>
      </trkpt>
      <trkpt lat="45.03595" lon="5.88941">
        <ele>2128.5</ele>
        <time>2022-11-06T09:12:16Z</time>
      </trkpt>
      <trkpt lat="45.03589" lon="5.88947">
        <ele>2128.5</ele>
        <time>2022-11-06T09:12:29Z</time>
      </trkpt>
      <trkpt lat="45.03584" lon="5.88949">
        <ele>2130.42</ele>
        <time>2022-11-06T09:12:43Z</time>
      </trkpt>
      <trkpt lat="45.03584" lon="5.88958">
        <ele>2132.82</ele>
        <time>2022-11-06T09:12:56Z</time>
      </trkpt>
      <trkpt lat="45.03588" lon="5.88969">
        <ele>2134.26</ele>
        <time>2022-11-06T09:13:10Z</time>
      </trkpt>
      <trkpt lat="45.03589" lon="5.88974">
        <ele>2136.19</ele>
        <time>2022-11-06T09:13:26Z</time>
      </trkpt>
      <trkpt lat="45.03588" lon="5.88976">
        <ele>2136.19</ele>
        <time>2022-11-06T09:13:43Z</time>
      </trkpt>
      <trkpt lat="45.03587" lon="5.8898">
        <ele>2135.23</ele>
        <time>2022-11-06T09:13:59Z</time>
      </trkpt>
      <trkpt lat="45.03588" lon="5.88981">
        <ele>2135.23</ele>
        <time>2022-11-06T09:14:28Z</time>
      </trkpt>
      <trkpt lat="45.03587" lon="5.88981">
        <ele>2135.23</ele>
        <time>2022-11-06T09:14:43Z</time>
      </trkpt>
      <trkpt lat="45.03588" lon="5.8898">
        <ele>2136.19</ele>
        <time>2022-11-06T09:15:09Z</time>
      </trkpt>
      <trkpt lat="45.03588" lon="5.88982">
        <ele>2133.3</ele>
        <time>2022-11-06T09:15:23Z</time>
      </trkpt>
      <trkpt lat="45.03587" lon="5.88983">
        <ele>2136.67</ele>
        <time>2022-11-06T09:15:28Z</time>
      </trkpt>
      <trkpt lat="45.03587" lon="5.88983">
        <ele>2136.67</ele>
        <time>2022-11-06T09:15:29Z</time>
      </trkpt>
      <trkpt lat="45.03581" lon="5.88989">
        <ele>2135.23</ele>
        <time>2022-11-06T09:15:44Z</time>
      </trkpt>
      <trkpt lat="45.03573" lon="5.88983">
        <ele>2136.19</ele>
        <time>2022-11-06T09:15:57Z</time>
      </trkpt>
      <trkpt lat="45.03568" lon="5.88985">
        <ele>2136.67</ele>
        <time>2022-11-06T09:16:12Z</time>
      </trkpt>
      <trkpt lat="45.03568" lon="5.88985">
        <ele>2136.19</ele>
        <time>2022-11-06T09:16:34Z</time>
      </trkpt>
      <trkpt lat="45.03568" lon="5.88984">
        <ele>2136.19</ele>
        <time>2022-11-06T09:17:08Z</time>
      </trkpt>
      <trkpt lat="45.0357" lon="5.88981">
        <ele>2136.19</ele>
        <time>2022-11-06T09:17:27Z</time>
      </trkpt>
      <trkpt lat="45.03576" lon="5.88987">
        <ele>2135.71</ele>
        <time>2022-11-06T09:17:41Z</time>
      </trkpt>
      <trkpt lat="45.03581" lon="5.88988">
        <ele>2137.15</ele>
        <time>2022-11-06T09:17:52Z</time>
      </trkpt>
      <trkpt lat="45.03584" lon="5.88987">
        <ele>2136.67</ele>
        <time>2022-11-06T09:17:55Z</time>
      </trkpt>
      <trkpt lat="45.03588" lon="5.88982">
        <ele>2136.67</ele>
        <time>2022-11-06T09:18:07Z</time>
      </trkpt>
      <trkpt lat="45.03589" lon="5.88983">
        <ele>2136.19</ele>
        <time>2022-11-06T09:18:45Z</time>
      </trkpt>
      <trkpt lat="45.03589" lon="5.88983">
        <ele>2132.82</ele>
        <time>2022-11-06T09:18:55Z</time>
      </trkpt>
      <trkpt lat="45.03589" lon="5.88982">
        <ele>2128.98</ele>
        <time>2022-11-06T09:18:57Z</time>
      </trkpt>
      <trkpt lat="45.03589" lon="5.88982">
        <ele>2127.05</ele>
        <time>2022-11-06T09:19:00Z</time>
      </trkpt>
      <trkpt lat="45.03589" lon="5.88982">
        <ele>2132.34</ele>
        <time>2022-11-06T09:19:03Z</time>
      </trkpt>
      <trkpt lat="45.03589" lon="5.88982">
        <ele>2136.19</ele>
        <time>2022-11-06T09:19:05Z</time>
      </trkpt>
      <trkpt lat="45.03589" lon="5.88982">
        <ele>2140.99</ele>
        <time>2022-11-06T09:19:07Z</time>
      </trkpt>
      <trkpt lat="45.03589" lon="5.88982">
        <ele>2137.63</ele>
        <time>2022-11-06T09:19:15Z</time>
      </trkpt>
      <trkpt lat="45.03589" lon="5.88982">
        <ele>2135.71</ele>
        <time>2022-11-06T09:19:18Z</time>
      </trkpt>
      <trkpt lat="45.03589" lon="5.88982">
        <ele>2138.59</ele>
        <time>2022-11-06T09:19:22Z</time>
      </trkpt>
      <trkpt lat="45.03589" lon="5.88983">
        <ele>2134.74</ele>
        <time>2022-11-06T09:19:34Z</time>
      </trkpt>
      <trkpt lat="45.03589" lon="5.88983">
        <ele>2131.38</ele>
        <time>2022-11-06T09:19:36Z</time>
      </trkpt>
      <trkpt lat="45.03589" lon="5.88982">
        <ele>2134.74</ele>
        <time>2022-11-06T09:19:47Z</time>
      </trkpt>
      <trkpt lat="45.03589" lon="5.88982">
        <ele>2134.74</ele>
        <time>2022-11-06T09:19:48Z</time>
      </trkpt>
      <trkpt lat="45.03589" lon="5.88982">
        <ele>2138.11</ele>
        <time>2022-11-06T09:19:52Z</time>
      </trkpt>
      <trkpt lat="45.03589" lon="5.88981">
        <ele>2133.78</ele>
        <time>2022-11-06T09:20:01Z</time>
      </trkpt>
      <trkpt lat="45.03589" lon="5.88981">
        <ele>2132.82</ele>
        <time>2022-11-06T09:20:04Z</time>
      </trkpt>
      <trkpt lat="45.03588" lon="5.88981">
        <ele>2136.19</ele>
        <time>2022-11-06T09:20:19Z</time>
      </trkpt>
      <trkpt lat="45.03589" lon="5.88981">
        <ele>2133.78</ele>
        <time>2022-11-06T09:21:17Z</time>
      </trkpt>
      <trkpt lat="45.03589" lon="5.88981">
        <ele>2137.63</ele>
        <time>2022-11-06T09:21:20Z</time>
      </trkpt>
      <trkpt lat="45.03589" lon="5.88981">
        <ele>2140.51</ele>
        <time>2022-11-06T09:21:23Z</time>
      </trkpt>
      <trkpt lat="45.03589" lon="5.88981">
        <ele>2137.15</ele>
        <time>2022-11-06T09:21:30Z</time>
      </trkpt>
      <trkpt lat="45.03589" lon="5.88981">
        <ele>2132.82</ele>
        <time>2022-11-06T09:21:32Z</time>
      </trkpt>
      <trkpt lat="45.03589" lon="5.8898">
        <ele>2136.19</ele>
        <time>2022-11-06T09:22:05Z</time>
      </trkpt>
      <trkpt lat="45.03589" lon="5.8898">
        <ele>2139.07</ele>
        <time>2022-11-06T09:22:07Z</time>
      </trkpt>
      <trkpt lat="45.03589" lon="5.8898">
        <ele>2135.23</ele>
        <time>2022-11-06T09:22:11Z</time>
      </trkpt>
      <trkpt lat="45.03589" lon="5.8898">
        <ele>2133.3</ele>
        <time>2022-11-06T09:22:14Z</time>
      </trkpt>
      <trkpt lat="45.03589" lon="5.8898">
        <ele>2135.23</ele>
        <time>2022-11-06T09:22:27Z</time>
      </trkpt>
      <trkpt lat="45.03589" lon="5.8898">
        <ele>2138.59</ele>
        <time>2022-11-06T09:22:30Z</time>
      </trkpt>
      <trkpt lat="45.03589" lon="5.8898">
        <ele>2137.15</ele>
        <time>2022-11-06T09:22:34Z</time>
      </trkpt>
      <trkpt lat="45.03589" lon="5.8898">
        <ele>2133.78</ele>
        <time>2022-11-06T09:22:50Z</time>
      </trkpt>
      <trkpt lat="45.03589" lon="5.88981">
        <ele>2137.15</ele>
        <time>2022-11-06T09:23:07Z</time>
      </trkpt>
      <trkpt lat="45.03589" lon="5.8898">
        <ele>2135.23</ele>
        <time>2022-11-06T09:24:02Z</time>
      </trkpt>
      <trkpt lat="45.03588" lon="5.88982">
        <ele>2139.07</ele>
        <time>2022-11-06T09:24:21Z</time>
      </trkpt>
      <trkpt lat="45.03588" lon="5.88982">
        <ele>2140.03</ele>
        <time>2022-11-06T09:24:23Z</time>
      </trkpt>
      <trkpt lat="45.03588" lon="5.88982">
        <ele>2136.67</ele>
        <time>2022-11-06T09:24:34Z</time>
      </trkpt>
      <trkpt lat="45.03589" lon="5.88982">
        <ele>2135.23</ele>
        <time>2022-11-06T09:25:01Z</time>
      </trkpt>
      <trkpt lat="45.03588" lon="5.88982">
        <ele>2135.23</ele>
        <time>2022-11-06T09:25:19Z</time>
      </trkpt>
      <trkpt lat="45.03587" lon="5.88982">
        <ele>2135.23</ele>
        <time>2022-11-06T09:25:48Z</time>
      </trkpt>
      <trkpt lat="45.03584" lon="5.88976">
        <ele>2135.23</ele>
        <time>2022-11-06T09:26:08Z</time>
      </trkpt>
      <trkpt lat="45.03575" lon="5.88975">
        <ele>2135.23</ele>
        <time>2022-11-06T09:26:23Z</time>
      </trkpt>
      <trkpt lat="45.03572" lon="5.88971">
        <ele>2135.23</ele>
        <time>2022-11-06T09:26:28Z</time>
      </trkpt>
      <trkpt lat="45.0357" lon="5.88967">
        <ele>2134.74</ele>
        <time>2022-11-06T09:26:32Z</time>
      </trkpt>
      <trkpt lat="45.03569" lon="5.88964">
        <ele>2133.78</ele>
        <time>2022-11-06T09:26:35Z</time>
      </trkpt>
      <trkpt lat="45.03566" lon="5.8895">
        <ele>2132.82</ele>
        <time>2022-11-06T09:26:49Z</time>
      </trkpt>
      <trkpt lat="45.03562" lon="5.88944">
        <ele>2132.34</ele>
        <time>2022-11-06T09:26:55Z</time>
      </trkpt>
      <trkpt lat="45.03563" lon="5.88942">
        <ele>2131.86</ele>
        <time>2022-11-06T09:26:57Z</time>
      </trkpt>
      <trkpt lat="45.03563" lon="5.88931">
        <ele>2130.9</ele>
        <time>2022-11-06T09:27:13Z</time>
      </trkpt>
      <trkpt lat="45.03556" lon="5.8892">
        <ele>2132.82</ele>
        <time>2022-11-06T09:27:28Z</time>
      </trkpt>
      <trkpt lat="45.03549" lon="5.88911">
        <ele>2131.86</ele>
        <time>2022-11-06T09:27:43Z</time>
      </trkpt>
      <trkpt lat="45.03544" lon="5.889">
        <ele>2130.42</ele>
        <time>2022-11-06T09:27:58Z</time>
      </trkpt>
      <trkpt lat="45.0354" lon="5.8889">
        <ele>2128.98</ele>
        <time>2022-11-06T09:28:11Z</time>
      </trkpt>
      <trkpt lat="45.03536" lon="5.88878">
        <ele>2128.02</ele>
        <time>2022-11-06T09:28:27Z</time>
      </trkpt>
      <trkpt lat="45.03534" lon="5.88871">
        <ele>2127.05</ele>
        <time>2022-11-06T09:28:45Z</time>
      </trkpt>
      <trkpt lat="45.03534" lon="5.88865">
        <ele>2125.61</ele>
        <time>2022-11-06T09:29:06Z</time>
      </trkpt>
      <trkpt lat="45.03534" lon="5.88864">
        <ele>2124.65</ele>
        <time>2022-11-06T09:29:30Z</time>
      </trkpt>
      <trkpt lat="45.03536" lon="5.88864">
        <ele>2124.17</ele>
        <time>2022-11-06T09:29:36Z</time>
      </trkpt>
      <trkpt lat="45.03535" lon="5.88854">
        <ele>2123.69</ele>
        <time>2022-11-06T09:29:47Z</time>
      </trkpt>
      <trkpt lat="45.03535" lon="5.88852">
        <ele>2122.25</ele>
        <time>2022-11-06T09:29:50Z</time>
      </trkpt>
      <trkpt lat="45.03528" lon="5.88845">
        <ele>2119.84</ele>
        <time>2022-11-06T09:30:02Z</time>
      </trkpt>
      <trkpt lat="45.03526" lon="5.88842">
        <ele>2118.88</ele>
        <time>2022-11-06T09:30:05Z</time>
      </trkpt>
      <trkpt lat="45.03511" lon="5.8883">
        <ele>2115.52</ele>
        <time>2022-11-06T09:30:20Z</time>
      </trkpt>
      <trkpt lat="45.03507" lon="5.88828">
        <ele>2115.04</ele>
        <time>2022-11-06T09:30:24Z</time>
      </trkpt>
      <trkpt lat="45.03506" lon="5.88827">
        <ele>2114.56</ele>
        <time>2022-11-06T09:30:25Z</time>
      </trkpt>
      <trkpt lat="45.03491" lon="5.8882">
        <ele>2111.19</ele>
        <time>2022-11-06T09:30:37Z</time>
      </trkpt>
      <trkpt lat="45.03475" lon="5.8881">
        <ele>2109.27</ele>
        <time>2022-11-06T09:30:51Z</time>
      </trkpt>
      <trkpt lat="45.03471" lon="5.88807">
        <ele>2107.83</ele>
        <time>2022-11-06T09:31:08Z</time>
      </trkpt>
      <trkpt lat="45.03465" lon="5.88799">
        <ele>2106.87</ele>
        <time>2022-11-06T09:31:27Z</time>
      </trkpt>
      <trkpt lat="45.0346" lon="5.888">
        <ele>2106.87</ele>
        <time>2022-11-06T09:31:32Z</time>
      </trkpt>
      <trkpt lat="45.03445" lon="5.88802">
        <ele>2106.87</ele>
        <time>2022-11-06T09:31:45Z</time>
      </trkpt>
      <trkpt lat="45.03434" lon="5.88801">
        <ele>2107.35</ele>
        <time>2022-11-06T09:31:59Z</time>
      </trkpt>
      <trkpt lat="45.03428" lon="5.88797">
        <ele>2107.35</ele>
        <time>2022-11-06T09:32:12Z</time>
      </trkpt>
      <trkpt lat="45.03421" lon="5.8879">
        <ele>2107.35</ele>
        <time>2022-11-06T09:32:26Z</time>
      </trkpt>
      <trkpt lat="45.03417" lon="5.88779">
        <ele>2108.79</ele>
        <time>2022-11-06T09:32:38Z</time>
      </trkpt>
      <trkpt lat="45.0341" lon="5.88774">
        <ele>2109.75</ele>
        <time>2022-11-06T09:32:54Z</time>
      </trkpt>
      <trkpt lat="45.03403" lon="5.88772">
        <ele>2110.23</ele>
        <time>2022-11-06T09:33:07Z</time>
      </trkpt>
      <trkpt lat="45.03397" lon="5.8877">
        <ele>2111.67</ele>
        <time>2022-11-06T09:33:20Z</time>
      </trkpt>
      <trkpt lat="45.03392" lon="5.88768">
        <ele>2112.63</ele>
        <time>2022-11-06T09:33:33Z</time>
      </trkpt>
      <trkpt lat="45.03392" lon="5.88769">
        <ele>2112.63</ele>
        <time>2022-11-06T09:33:58Z</time>
      </trkpt>
      <trkpt lat="45.03384" lon="5.88762">
        <ele>2112.63</ele>
        <time>2022-11-06T09:34:16Z</time>
      </trkpt>
      <trkpt lat="45.03376" lon="5.8876">
        <ele>2115.04</ele>
        <time>2022-11-06T09:34:30Z</time>
      </trkpt>
      <trkpt lat="45.03376" lon="5.88759">
        <ele>2114.08</ele>
        <time>2022-11-06T09:34:49Z</time>
      </trkpt>
      <trkpt lat="45.03374" lon="5.88759">
        <ele>2112.15</ele>
        <time>2022-11-06T09:35:16Z</time>
      </trkpt>
      <trkpt lat="45.03374" lon="5.88755">
        <ele>2115.04</ele>
        <time>2022-11-06T09:35:25Z</time>
      </trkpt>
      <trkpt lat="45.03374" lon="5.88754">
        <ele>2115.52</ele>
        <time>2022-11-06T09:35:26Z</time>
      </trkpt>
      <trkpt lat="45.0337" lon="5.88745">
        <ele>2116</ele>
        <time>2022-11-06T09:35:40Z</time>
      </trkpt>
      <trkpt lat="45.0337" lon="5.8874">
        <ele>2116.96</ele>
        <time>2022-11-06T09:36:00Z</time>
      </trkpt>
      <trkpt lat="45.03364" lon="5.88729">
        <ele>2118.88</ele>
        <time>2022-11-06T09:36:16Z</time>
      </trkpt>
      <trkpt lat="45.03359" lon="5.88723">
        <ele>2121.77</ele>
        <time>2022-11-06T09:36:31Z</time>
      </trkpt>
      <trkpt lat="45.03353" lon="5.88727">
        <ele>2124.65</ele>
        <time>2022-11-06T09:36:44Z</time>
      </trkpt>
      <trkpt lat="45.03348" lon="5.88725">
        <ele>2127.53</ele>
        <time>2022-11-06T09:36:58Z</time>
      </trkpt>
      <trkpt lat="45.03344" lon="5.88722">
        <ele>2128.5</ele>
        <time>2022-11-06T09:37:11Z</time>
      </trkpt>
      <trkpt lat="45.03338" lon="5.88719">
        <ele>2130.9</ele>
        <time>2022-11-06T09:37:26Z</time>
      </trkpt>
      <trkpt lat="45.0333" lon="5.88716">
        <ele>2132.34</ele>
        <time>2022-11-06T09:37:38Z</time>
      </trkpt>
      <trkpt lat="45.03326" lon="5.88713">
        <ele>2133.78</ele>
        <time>2022-11-06T09:37:53Z</time>
      </trkpt>
      <trkpt lat="45.03323" lon="5.8871">
        <ele>2133.78</ele>
        <time>2022-11-06T09:38:05Z</time>
      </trkpt>
      <trkpt lat="45.03318" lon="5.88707">
        <ele>2133.78</ele>
        <time>2022-11-06T09:38:17Z</time>
      </trkpt>
      <trkpt lat="45.03317" lon="5.88707">
        <ele>2136.67</ele>
        <time>2022-11-06T09:38:25Z</time>
      </trkpt>
      <trkpt lat="45.03312" lon="5.88704">
        <ele>2135.23</ele>
        <time>2022-11-06T09:38:41Z</time>
      </trkpt>
      <trkpt lat="45.03311" lon="5.88704">
        <ele>2136.19</ele>
        <time>2022-11-06T09:39:02Z</time>
      </trkpt>
      <trkpt lat="45.03308" lon="5.88703">
        <ele>2135.23</ele>
        <time>2022-11-06T09:39:27Z</time>
      </trkpt>
      <trkpt lat="45.03302" lon="5.88703">
        <ele>2135.71</ele>
        <time>2022-11-06T09:39:36Z</time>
      </trkpt>
      <trkpt lat="45.03301" lon="5.88702">
        <ele>2136.19</ele>
        <time>2022-11-06T09:39:37Z</time>
      </trkpt>
      <trkpt lat="45.03299" lon="5.88702">
        <ele>2136.19</ele>
        <time>2022-11-06T09:39:38Z</time>
      </trkpt>
      <trkpt lat="45.03298" lon="5.88701">
        <ele>2136.67</ele>
        <time>2022-11-06T09:39:39Z</time>
      </trkpt>
      <trkpt lat="45.03297" lon="5.88701">
        <ele>2137.15</ele>
        <time>2022-11-06T09:39:40Z</time>
      </trkpt>
      <trkpt lat="45.03296" lon="5.88699">
        <ele>2137.63</ele>
        <time>2022-11-06T09:39:42Z</time>
      </trkpt>
      <trkpt lat="45.0329" lon="5.8869">
        <ele>2138.11</ele>
        <time>2022-11-06T09:39:55Z</time>
      </trkpt>
      <trkpt lat="45.03286" lon="5.88689">
        <ele>2139.55</ele>
        <time>2022-11-06T09:40:09Z</time>
      </trkpt>
      <trkpt lat="45.03279" lon="5.88686">
        <ele>2139.07</ele>
        <time>2022-11-06T09:40:21Z</time>
      </trkpt>
      <trkpt lat="45.03277" lon="5.88678">
        <ele>2140.51</ele>
        <time>2022-11-06T09:40:36Z</time>
      </trkpt>
      <trkpt lat="45.03276" lon="5.88675">
        <ele>2138.11</ele>
        <time>2022-11-06T09:40:56Z</time>
      </trkpt>
      <trkpt lat="45.03276" lon="5.88675">
        <ele>2138.59</ele>
        <time>2022-11-06T09:41:17Z</time>
      </trkpt>
      <trkpt lat="45.03276" lon="5.88675">
        <ele>2138.59</ele>
        <time>2022-11-06T09:41:37Z</time>
      </trkpt>
      <trkpt lat="45.03276" lon="5.88674">
        <ele>2137.63</ele>
        <time>2022-11-06T09:42:04Z</time>
      </trkpt>
      <trkpt lat="45.03276" lon="5.88675">
        <ele>2140.51</ele>
        <time>2022-11-06T09:42:23Z</time>
      </trkpt>
      <trkpt lat="45.03277" lon="5.88673">
        <ele>2138.59</ele>
        <time>2022-11-06T09:42:44Z</time>
      </trkpt>
      <trkpt lat="45.03279" lon="5.88667">
        <ele>2137.63</ele>
        <time>2022-11-06T09:43:08Z</time>
      </trkpt>
      <trkpt lat="45.03278" lon="5.88657">
        <ele>2135.23</ele>
        <time>2022-11-06T09:43:20Z</time>
      </trkpt>
      <trkpt lat="45.03277" lon="5.88656">
        <ele>2135.23</ele>
        <time>2022-11-06T09:43:21Z</time>
      </trkpt>
      <trkpt lat="45.03274" lon="5.88642">
        <ele>2132.34</ele>
        <time>2022-11-06T09:43:34Z</time>
      </trkpt>
      <trkpt lat="45.03276" lon="5.88626">
        <ele>2132.34</ele>
        <time>2022-11-06T09:43:50Z</time>
      </trkpt>
      <trkpt lat="45.03277" lon="5.88627">
        <ele>2131.38</ele>
        <time>2022-11-06T09:44:14Z</time>
      </trkpt>
      <trkpt lat="45.03277" lon="5.88626">
        <ele>2128.02</ele>
        <time>2022-11-06T09:44:25Z</time>
      </trkpt>
      <trkpt lat="45.03277" lon="5.88626">
        <ele>2131.38</ele>
        <time>2022-11-06T09:44:37Z</time>
      </trkpt>
      <trkpt lat="45.03277" lon="5.88626">
        <ele>2132.82</ele>
        <time>2022-11-06T09:44:40Z</time>
      </trkpt>
      <trkpt lat="45.03276" lon="5.88626">
        <ele>2131.38</ele>
        <time>2022-11-06T09:45:05Z</time>
      </trkpt>
      <trkpt lat="45.03276" lon="5.88625">
        <ele>2131.38</ele>
        <time>2022-11-06T09:45:42Z</time>
      </trkpt>
      <trkpt lat="45.03276" lon="5.88623">
        <ele>2131.38</ele>
        <time>2022-11-06T09:45:46Z</time>
      </trkpt>
      <trkpt lat="45.03274" lon="5.88613">
        <ele>2130.42</ele>
        <time>2022-11-06T09:45:55Z</time>
      </trkpt>
      <trkpt lat="45.03271" lon="5.88607">
        <ele>2129.94</ele>
        <time>2022-11-06T09:46:01Z</time>
      </trkpt>
      <trkpt lat="45.03271" lon="5.88605">
        <ele>2130.42</ele>
        <time>2022-11-06T09:46:18Z</time>
      </trkpt>
      <trkpt lat="45.03271" lon="5.88601">
        <ele>2128.5</ele>
        <time>2022-11-06T09:46:33Z</time>
      </trkpt>
      <trkpt lat="45.03271" lon="5.88601">
        <ele>2128.02</ele>
        <time>2022-11-06T09:46:35Z</time>
      </trkpt>
      <trkpt lat="45.0327" lon="5.886">
        <ele>2128.98</ele>
        <time>2022-11-06T09:46:51Z</time>
      </trkpt>
      <trkpt lat="45.03269" lon="5.88597">
        <ele>2129.46</ele>
        <time>2022-11-06T09:47:04Z</time>
      </trkpt>
      <trkpt lat="45.03267" lon="5.88595">
        <ele>2129.46</ele>
        <time>2022-11-06T09:47:17Z</time>
      </trkpt>
      <trkpt lat="45.03264" lon="5.88592">
        <ele>2131.38</ele>
        <time>2022-11-06T09:47:33Z</time>
      </trkpt>
      <trkpt lat="45.03265" lon="5.88586">
        <ele>2130.9</ele>
        <time>2022-11-06T09:47:49Z</time>
      </trkpt>
      <trkpt lat="45.03266" lon="5.88582">
        <ele>2129.94</ele>
        <time>2022-11-06T09:48:08Z</time>
      </trkpt>
      <trkpt lat="45.03268" lon="5.8858">
        <ele>2128.5</ele>
        <time>2022-11-06T09:48:26Z</time>
      </trkpt>
      <trkpt lat="45.0327" lon="5.88577">
        <ele>2127.05</ele>
        <time>2022-11-06T09:48:43Z</time>
      </trkpt>
      <trkpt lat="45.03268" lon="5.88576">
        <ele>2125.61</ele>
        <time>2022-11-06T09:48:58Z</time>
      </trkpt>
      <trkpt lat="45.03266" lon="5.88573">
        <ele>2128.02</ele>
        <time>2022-11-06T09:49:10Z</time>
      </trkpt>
      <trkpt lat="45.03263" lon="5.88567">
        <ele>2129.46</ele>
        <time>2022-11-06T09:49:22Z</time>
      </trkpt>
      <trkpt lat="45.0326" lon="5.88562">
        <ele>2130.42</ele>
        <time>2022-11-06T09:49:32Z</time>
      </trkpt>
      <trkpt lat="45.03257" lon="5.88557">
        <ele>2132.34</ele>
        <time>2022-11-06T09:49:45Z</time>
      </trkpt>
      <trkpt lat="45.03255" lon="5.88551">
        <ele>2132.82</ele>
        <time>2022-11-06T09:49:58Z</time>
      </trkpt>
      <trkpt lat="45.03255" lon="5.88545">
        <ele>2135.23</ele>
        <time>2022-11-06T09:50:17Z</time>
      </trkpt>
      <trkpt lat="45.03255" lon="5.88545">
        <ele>2138.11</ele>
        <time>2022-11-06T09:50:50Z</time>
      </trkpt>
      <trkpt lat="45.03253" lon="5.88542">
        <ele>2135.23</ele>
        <time>2022-11-06T09:51:07Z</time>
      </trkpt>
      <trkpt lat="45.03253" lon="5.88542">
        <ele>2135.23</ele>
        <time>2022-11-06T09:51:22Z</time>
      </trkpt>
      <trkpt lat="45.03252" lon="5.88541">
        <ele>2135.23</ele>
        <time>2022-11-06T09:51:38Z</time>
      </trkpt>
      <trkpt lat="45.03255" lon="5.88537">
        <ele>2135.23</ele>
        <time>2022-11-06T09:51:51Z</time>
      </trkpt>
      <trkpt lat="45.03252" lon="5.88535">
        <ele>2135.23</ele>
        <time>2022-11-06T09:52:08Z</time>
      </trkpt>
      <trkpt lat="45.03251" lon="5.88535">
        <ele>2140.99</ele>
        <time>2022-11-06T09:52:11Z</time>
      </trkpt>
      <trkpt lat="45.03251" lon="5.88535">
        <ele>2141.47</ele>
        <time>2022-11-06T09:52:12Z</time>
      </trkpt>
      <trkpt lat="45.03251" lon="5.88535">
        <ele>2140.99</ele>
        <time>2022-11-06T09:52:42Z</time>
      </trkpt>
      <trkpt lat="45.03249" lon="5.88529">
        <ele>2141.95</ele>
        <time>2022-11-06T09:52:58Z</time>
      </trkpt>
      <trkpt lat="45.03247" lon="5.88525">
        <ele>2143.4</ele>
        <time>2022-11-06T09:53:13Z</time>
      </trkpt>
      <trkpt lat="45.03246" lon="5.88525">
        <ele>2143.88</ele>
        <time>2022-11-06T09:53:44Z</time>
      </trkpt>
      <trkpt lat="45.03242" lon="5.88521">
        <ele>2144.84</ele>
        <time>2022-11-06T09:53:54Z</time>
      </trkpt>
      <trkpt lat="45.0324" lon="5.8852">
        <ele>2146.28</ele>
        <time>2022-11-06T09:54:11Z</time>
      </trkpt>
      <trkpt lat="45.03236" lon="5.8852">
        <ele>2147.24</ele>
        <time>2022-11-06T09:54:26Z</time>
      </trkpt>
      <trkpt lat="45.03235" lon="5.88521">
        <ele>2146.76</ele>
        <time>2022-11-06T09:54:35Z</time>
      </trkpt>
      <trkpt lat="45.03232" lon="5.88519">
        <ele>2148.68</ele>
        <time>2022-11-06T09:54:47Z</time>
      </trkpt>
      <trkpt lat="45.03231" lon="5.88519">
        <ele>2151.57</ele>
        <time>2022-11-06T09:55:01Z</time>
      </trkpt>
      <trkpt lat="45.0323" lon="5.88518">
        <ele>2151.09</ele>
        <time>2022-11-06T09:55:15Z</time>
      </trkpt>
      <trkpt lat="45.03228" lon="5.88516">
        <ele>2152.53</ele>
        <time>2022-11-06T09:55:35Z</time>
      </trkpt>
      <trkpt lat="45.03225" lon="5.88512">
        <ele>2154.45</ele>
        <time>2022-11-06T09:55:48Z</time>
      </trkpt>
      <trkpt lat="45.03223" lon="5.88509">
        <ele>2155.41</ele>
        <time>2022-11-06T09:56:07Z</time>
      </trkpt>
      <trkpt lat="45.03223" lon="5.8851">
        <ele>2156.86</ele>
        <time>2022-11-06T09:56:28Z</time>
      </trkpt>
      <trkpt lat="45.03221" lon="5.88509">
        <ele>2157.82</ele>
        <time>2022-11-06T09:56:45Z</time>
      </trkpt>
      <trkpt lat="45.03218" lon="5.88514">
        <ele>2158.3</ele>
        <time>2022-11-06T09:57:01Z</time>
      </trkpt>
      <trkpt lat="45.03217" lon="5.88517">
        <ele>2160.22</ele>
        <time>2022-11-06T09:57:17Z</time>
      </trkpt>
      <trkpt lat="45.03216" lon="5.88519">
        <ele>2162.62</ele>
        <time>2022-11-06T09:57:31Z</time>
      </trkpt>
      <trkpt lat="45.03216" lon="5.88521">
        <ele>2161.66</ele>
        <time>2022-11-06T09:58:11Z</time>
      </trkpt>
      <trkpt lat="45.03217" lon="5.88531">
        <ele>2163.1</ele>
        <time>2022-11-06T09:58:24Z</time>
      </trkpt>
      <trkpt lat="45.03215" lon="5.88536">
        <ele>2165.99</ele>
        <time>2022-11-06T09:58:40Z</time>
      </trkpt>
      <trkpt lat="45.03212" lon="5.88539">
        <ele>2165.99</ele>
        <time>2022-11-06T09:58:55Z</time>
      </trkpt>
      <trkpt lat="45.03212" lon="5.88539">
        <ele>2167.91</ele>
        <time>2022-11-06T09:58:59Z</time>
      </trkpt>
      <trkpt lat="45.03209" lon="5.88538">
        <ele>2167.43</ele>
        <time>2022-11-06T09:59:12Z</time>
      </trkpt>
      <trkpt lat="45.03205" lon="5.88538">
        <ele>2169.83</ele>
        <time>2022-11-06T09:59:27Z</time>
      </trkpt>
      <trkpt lat="45.03201" lon="5.88535">
        <ele>2172.72</ele>
        <time>2022-11-06T09:59:43Z</time>
      </trkpt>
      <trkpt lat="45.03199" lon="5.88537">
        <ele>2174.64</ele>
        <time>2022-11-06T09:59:57Z</time>
      </trkpt>
      <trkpt lat="45.03196" lon="5.88533">
        <ele>2175.6</ele>
        <time>2022-11-06T10:00:10Z</time>
      </trkpt>
      <trkpt lat="45.03191" lon="5.88531">
        <ele>2178</ele>
        <time>2022-11-06T10:00:25Z</time>
      </trkpt>
      <trkpt lat="45.03186" lon="5.88533">
        <ele>2181.37</ele>
        <time>2022-11-06T10:00:40Z</time>
      </trkpt>
      <trkpt lat="45.03181" lon="5.88531">
        <ele>2182.81</ele>
        <time>2022-11-06T10:00:52Z</time>
      </trkpt>
      <trkpt lat="45.03175" lon="5.88532">
        <ele>2184.73</ele>
        <time>2022-11-06T10:01:10Z</time>
      </trkpt>
      <trkpt lat="45.03172" lon="5.88538">
        <ele>2185.69</ele>
        <time>2022-11-06T10:01:25Z</time>
      </trkpt>
      <trkpt lat="45.03173" lon="5.88543">
        <ele>2187.62</ele>
        <time>2022-11-06T10:01:42Z</time>
      </trkpt>
      <trkpt lat="45.03175" lon="5.88548">
        <ele>2188.1</ele>
        <time>2022-11-06T10:01:56Z</time>
      </trkpt>
      <trkpt lat="45.03176" lon="5.88552">
        <ele>2190.98</ele>
        <time>2022-11-06T10:02:04Z</time>
      </trkpt>
      <trkpt lat="45.03176" lon="5.88554">
        <ele>2190.02</ele>
        <time>2022-11-06T10:02:11Z</time>
      </trkpt>
      <trkpt lat="45.03172" lon="5.8855">
        <ele>2191.94</ele>
        <time>2022-11-06T10:02:27Z</time>
      </trkpt>
      <trkpt lat="45.03169" lon="5.88552">
        <ele>2191.46</ele>
        <time>2022-11-06T10:02:46Z</time>
      </trkpt>
      <trkpt lat="45.03168" lon="5.88553">
        <ele>2193.39</ele>
        <time>2022-11-06T10:02:54Z</time>
      </trkpt>
      <trkpt lat="45.03164" lon="5.88556">
        <ele>2194.83</ele>
        <time>2022-11-06T10:03:10Z</time>
      </trkpt>
      <trkpt lat="45.03164" lon="5.8856">
        <ele>2197.23</ele>
        <time>2022-11-06T10:03:24Z</time>
      </trkpt>
      <trkpt lat="45.03164" lon="5.88566">
        <ele>2197.23</ele>
        <time>2022-11-06T10:03:40Z</time>
      </trkpt>
      <trkpt lat="45.03167" lon="5.88572">
        <ele>2200.11</ele>
        <time>2022-11-06T10:03:55Z</time>
      </trkpt>
      <trkpt lat="45.03168" lon="5.88577">
        <ele>2202.52</ele>
        <time>2022-11-06T10:04:12Z</time>
      </trkpt>
      <trkpt lat="45.03168" lon="5.88578">
        <ele>2199.15</ele>
        <time>2022-11-06T10:04:16Z</time>
      </trkpt>
      <trkpt lat="45.03168" lon="5.88579">
        <ele>2199.63</ele>
        <time>2022-11-06T10:04:17Z</time>
      </trkpt>
      <trkpt lat="45.03168" lon="5.88579">
        <ele>2203</ele>
        <time>2022-11-06T10:04:20Z</time>
      </trkpt>
      <trkpt lat="45.03169" lon="5.88579">
        <ele>2204.44</ele>
        <time>2022-11-06T10:04:23Z</time>
      </trkpt>
      <trkpt lat="45.03169" lon="5.88584">
        <ele>2204.44</ele>
        <time>2022-11-06T10:04:41Z</time>
      </trkpt>
      <trkpt lat="45.03169" lon="5.8859">
        <ele>2206.36</ele>
        <time>2022-11-06T10:04:59Z</time>
      </trkpt>
      <trkpt lat="45.03172" lon="5.88596">
        <ele>2208.77</ele>
        <time>2022-11-06T10:05:13Z</time>
      </trkpt>
      <trkpt lat="45.03168" lon="5.88599">
        <ele>2210.21</ele>
        <time>2022-11-06T10:05:26Z</time>
      </trkpt>
      <trkpt lat="45.03165" lon="5.88603">
        <ele>2210.21</ele>
        <time>2022-11-06T10:05:42Z</time>
      </trkpt>
      <trkpt lat="45.03163" lon="5.88607">
        <ele>2212.61</ele>
        <time>2022-11-06T10:05:53Z</time>
      </trkpt>
      <trkpt lat="45.03157" lon="5.88606">
        <ele>2215.98</ele>
        <time>2022-11-06T10:06:06Z</time>
      </trkpt>
      <trkpt lat="45.03155" lon="5.88608">
        <ele>2213.57</ele>
        <time>2022-11-06T10:06:21Z</time>
      </trkpt>
      <trkpt lat="45.03155" lon="5.8861">
        <ele>2217.42</ele>
        <time>2022-11-06T10:06:26Z</time>
      </trkpt>
      <trkpt lat="45.03155" lon="5.88611">
        <ele>2220.3</ele>
        <time>2022-11-06T10:06:30Z</time>
      </trkpt>
      <trkpt lat="45.03152" lon="5.88618">
        <ele>2220.78</ele>
        <time>2022-11-06T10:06:44Z</time>
      </trkpt>
      <trkpt lat="45.0315" lon="5.88621">
        <ele>2221.74</ele>
        <time>2022-11-06T10:06:57Z</time>
      </trkpt>
      <trkpt lat="45.03149" lon="5.88628">
        <ele>2224.63</ele>
        <time>2022-11-06T10:07:11Z</time>
      </trkpt>
      <trkpt lat="45.03149" lon="5.88635">
        <ele>2226.07</ele>
        <time>2022-11-06T10:07:25Z</time>
      </trkpt>
      <trkpt lat="45.03147" lon="5.8864">
        <ele>2225.59</ele>
        <time>2022-11-06T10:07:36Z</time>
      </trkpt>
      <trkpt lat="45.03147" lon="5.88642">
        <ele>2227.51</ele>
        <time>2022-11-06T10:07:40Z</time>
      </trkpt>
      <trkpt lat="45.03147" lon="5.88644">
        <ele>2228.95</ele>
        <time>2022-11-06T10:07:57Z</time>
      </trkpt>
      <trkpt lat="45.03146" lon="5.8865">
        <ele>2229.92</ele>
        <time>2022-11-06T10:08:09Z</time>
      </trkpt>
      <trkpt lat="45.03145" lon="5.88656">
        <ele>2230.88</ele>
        <time>2022-11-06T10:08:20Z</time>
      </trkpt>
      <trkpt lat="45.03141" lon="5.8866">
        <ele>2232.8</ele>
        <time>2022-11-06T10:08:31Z</time>
      </trkpt>
      <trkpt lat="45.03137" lon="5.88666">
        <ele>2235.2</ele>
        <time>2022-11-06T10:08:45Z</time>
      </trkpt>
      <trkpt lat="45.03137" lon="5.88667">
        <ele>2237.13</ele>
        <time>2022-11-06T10:08:50Z</time>
      </trkpt>
      <trkpt lat="45.03135" lon="5.8867">
        <ele>2237.61</ele>
        <time>2022-11-06T10:09:04Z</time>
      </trkpt>
      <trkpt lat="45.03132" lon="5.88676">
        <ele>2239.53</ele>
        <time>2022-11-06T10:09:18Z</time>
      </trkpt>
      <trkpt lat="45.0313" lon="5.88685">
        <ele>2241.93</ele>
        <time>2022-11-06T10:09:31Z</time>
      </trkpt>
      <trkpt lat="45.03128" lon="5.88695">
        <ele>2243.37</ele>
        <time>2022-11-06T10:09:45Z</time>
      </trkpt>
      <trkpt lat="45.03126" lon="5.88704">
        <ele>2246.74</ele>
        <time>2022-11-06T10:09:58Z</time>
      </trkpt>
      <trkpt lat="45.03124" lon="5.88709">
        <ele>2248.18</ele>
        <time>2022-11-06T10:10:13Z</time>
      </trkpt>
      <trkpt lat="45.03123" lon="5.88711">
        <ele>2250.58</ele>
        <time>2022-11-06T10:10:32Z</time>
      </trkpt>
      <trkpt lat="45.03122" lon="5.8872">
        <ele>2250.1</ele>
        <time>2022-11-06T10:10:46Z</time>
      </trkpt>
      <trkpt lat="45.0312" lon="5.88726">
        <ele>2252.51</ele>
        <time>2022-11-06T10:10:55Z</time>
      </trkpt>
      <trkpt lat="45.03119" lon="5.88736">
        <ele>2253.95</ele>
        <time>2022-11-06T10:11:05Z</time>
      </trkpt>
      <trkpt lat="45.03118" lon="5.88745">
        <ele>2257.31</ele>
        <time>2022-11-06T10:11:16Z</time>
      </trkpt>
      <trkpt lat="45.03116" lon="5.88753">
        <ele>2258.75</ele>
        <time>2022-11-06T10:11:29Z</time>
      </trkpt>
      <trkpt lat="45.03118" lon="5.88762">
        <ele>2261.16</ele>
        <time>2022-11-06T10:11:43Z</time>
      </trkpt>
      <trkpt lat="45.03118" lon="5.88766">
        <ele>2264.04</ele>
        <time>2022-11-06T10:11:55Z</time>
      </trkpt>
      <trkpt lat="45.03118" lon="5.88767">
        <ele>2265.48</ele>
        <time>2022-11-06T10:12:12Z</time>
      </trkpt>
      <trkpt lat="45.03114" lon="5.88773">
        <ele>2265.96</ele>
        <time>2022-11-06T10:12:27Z</time>
      </trkpt>
      <trkpt lat="45.03109" lon="5.88783">
        <ele>2267.89</ele>
        <time>2022-11-06T10:12:41Z</time>
      </trkpt>
      <trkpt lat="45.03107" lon="5.88792">
        <ele>2269.81</ele>
        <time>2022-11-06T10:12:52Z</time>
      </trkpt>
      <trkpt lat="45.03102" lon="5.888">
        <ele>2271.73</ele>
        <time>2022-11-06T10:13:04Z</time>
      </trkpt>
      <trkpt lat="45.03097" lon="5.88804">
        <ele>2274.14</ele>
        <time>2022-11-06T10:13:16Z</time>
      </trkpt>
      <trkpt lat="45.03094" lon="5.88813">
        <ele>2276.06</ele>
        <time>2022-11-06T10:13:26Z</time>
      </trkpt>
      <trkpt lat="45.03092" lon="5.88814">
        <ele>2277.5</ele>
        <time>2022-11-06T10:13:37Z</time>
      </trkpt>
      <trkpt lat="45.03091" lon="5.88813">
        <ele>2277.5</ele>
        <time>2022-11-06T10:14:07Z</time>
      </trkpt>
      <trkpt lat="45.03091" lon="5.88813">
        <ele>2277.98</ele>
        <time>2022-11-06T10:14:37Z</time>
      </trkpt>
      <trkpt lat="45.03091" lon="5.88812">
        <ele>2278.46</ele>
        <time>2022-11-06T10:14:57Z</time>
      </trkpt>
      <trkpt lat="45.0309" lon="5.88813">
        <ele>2278.94</ele>
        <time>2022-11-06T10:15:36Z</time>
      </trkpt>
      <trkpt lat="45.0309" lon="5.88813">
        <ele>2278.94</ele>
        <time>2022-11-06T10:16:02Z</time>
      </trkpt>
      <trkpt lat="45.03088" lon="5.88823">
        <ele>2278.94</ele>
        <time>2022-11-06T10:16:22Z</time>
      </trkpt>
      <trkpt lat="45.03085" lon="5.88828">
        <ele>2278.94</ele>
        <time>2022-11-06T10:16:27Z</time>
      </trkpt>
      <trkpt lat="45.03085" lon="5.8883">
        <ele>2279.42</ele>
        <time>2022-11-06T10:16:28Z</time>
      </trkpt>
      <trkpt lat="45.03083" lon="5.88833">
        <ele>2279.9</ele>
        <time>2022-11-06T10:16:31Z</time>
      </trkpt>
      <trkpt lat="45.03081" lon="5.8884">
        <ele>2280.38</ele>
        <time>2022-11-06T10:16:36Z</time>
      </trkpt>
      <trkpt lat="45.0308" lon="5.88844">
        <ele>2280.87</ele>
        <time>2022-11-06T10:16:40Z</time>
      </trkpt>
      <trkpt lat="45.03078" lon="5.88852">
        <ele>2282.31</ele>
        <time>2022-11-06T10:16:45Z</time>
      </trkpt>
      <trkpt lat="45.03077" lon="5.88854">
        <ele>2282.79</ele>
        <time>2022-11-06T10:16:46Z</time>
      </trkpt>
      <trkpt lat="45.03071" lon="5.88873">
        <ele>2283.75</ele>
        <time>2022-11-06T10:16:59Z</time>
      </trkpt>
      <trkpt lat="45.0307" lon="5.88877">
        <ele>2284.23</ele>
        <time>2022-11-06T10:17:02Z</time>
      </trkpt>
      <trkpt lat="45.03067" lon="5.88885">
        <ele>2285.67</ele>
        <time>2022-11-06T10:17:12Z</time>
      </trkpt>
      <trkpt lat="45.03062" lon="5.88897">
        <ele>2287.59</ele>
        <time>2022-11-06T10:17:24Z</time>
      </trkpt>
      <trkpt lat="45.03056" lon="5.88908">
        <ele>2289.52</ele>
        <time>2022-11-06T10:17:37Z</time>
      </trkpt>
      <trkpt lat="45.03056" lon="5.8891">
        <ele>2290</ele>
        <time>2022-11-06T10:17:55Z</time>
      </trkpt>
      <trkpt lat="45.03056" lon="5.88909">
        <ele>2289.52</ele>
        <time>2022-11-06T10:18:26Z</time>
      </trkpt>
      <trkpt lat="45.03056" lon="5.88917">
        <ele>2289.04</ele>
        <time>2022-11-06T10:18:35Z</time>
      </trkpt>
      <trkpt lat="45.03056" lon="5.88919">
        <ele>2289.04</ele>
        <time>2022-11-06T10:18:36Z</time>
      </trkpt>
      <trkpt lat="45.03053" lon="5.88936">
        <ele>2289.52</ele>
        <time>2022-11-06T10:18:49Z</time>
      </trkpt>
      <trkpt lat="45.03051" lon="5.88942">
        <ele>2290.48</ele>
        <time>2022-11-06T10:18:54Z</time>
      </trkpt>
      <trkpt lat="45.0305" lon="5.88945">
        <ele>2290.96</ele>
        <time>2022-11-06T10:18:56Z</time>
      </trkpt>
      <trkpt lat="45.03047" lon="5.88958">
        <ele>2291.92</ele>
        <time>2022-11-06T10:19:08Z</time>
      </trkpt>
      <trkpt lat="45.03046" lon="5.88962">
        <ele>2290</ele>
        <time>2022-11-06T10:19:16Z</time>
      </trkpt>
      <trkpt lat="45.03045" lon="5.88966">
        <ele>2290</ele>
        <time>2022-11-06T10:19:23Z</time>
      </trkpt>
      <trkpt lat="45.03044" lon="5.88973">
        <ele>2290</ele>
        <time>2022-11-06T10:19:38Z</time>
      </trkpt>
      <trkpt lat="45.03042" lon="5.88976">
        <ele>2290</ele>
        <time>2022-11-06T10:19:56Z</time>
      </trkpt>
      <trkpt lat="45.03041" lon="5.88983">
        <ele>2290</ele>
        <time>2022-11-06T10:20:09Z</time>
      </trkpt>
      <trkpt lat="45.03039" lon="5.8899">
        <ele>2290</ele>
        <time>2022-11-06T10:20:22Z</time>
      </trkpt>
      <trkpt lat="45.03035" lon="5.88994">
        <ele>2290</ele>
        <time>2022-11-06T10:20:37Z</time>
      </trkpt>
      <trkpt lat="45.03031" lon="5.88998">
        <ele>2290</ele>
        <time>2022-11-06T10:20:51Z</time>
      </trkpt>
      <trkpt lat="45.03029" lon="5.89004">
        <ele>2290</ele>
        <time>2022-11-06T10:21:05Z</time>
      </trkpt>
      <trkpt lat="45.03028" lon="5.89005">
        <ele>2290</ele>
        <time>2022-11-06T10:21:07Z</time>
      </trkpt>
      <trkpt lat="45.03025" lon="5.89011">
        <ele>2297.69</ele>
        <time>2022-11-06T10:21:17Z</time>
      </trkpt>
      <trkpt lat="45.03024" lon="5.89012">
        <ele>2298.65</ele>
        <time>2022-11-06T10:21:19Z</time>
      </trkpt>
      <trkpt lat="45.03022" lon="5.89016">
        <ele>2300.57</ele>
        <time>2022-11-06T10:21:33Z</time>
      </trkpt>
      <trkpt lat="45.03016" lon="5.89021">
        <ele>2302.98</ele>
        <time>2022-11-06T10:21:48Z</time>
      </trkpt>
      <trkpt lat="45.03016" lon="5.89022">
        <ele>2304.9</ele>
        <time>2022-11-06T10:21:55Z</time>
      </trkpt>
      <trkpt lat="45.03013" lon="5.89027">
        <ele>2304.42</ele>
        <time>2022-11-06T10:22:08Z</time>
      </trkpt>
      <trkpt lat="45.03009" lon="5.89037">
        <ele>2307.3</ele>
        <time>2022-11-06T10:22:21Z</time>
      </trkpt>
      <trkpt lat="45.03006" lon="5.89048">
        <ele>2308.74</ele>
        <time>2022-11-06T10:22:34Z</time>
      </trkpt>
      <trkpt lat="45.03006" lon="5.89049">
        <ele>2308.74</ele>
        <time>2022-11-06T10:22:35Z</time>
      </trkpt>
      <trkpt lat="45.03004" lon="5.89055">
        <ele>2309.7</ele>
        <time>2022-11-06T10:22:45Z</time>
      </trkpt>
      <trkpt lat="45.03001" lon="5.89066">
        <ele>2311.15</ele>
        <time>2022-11-06T10:22:58Z</time>
      </trkpt>
      <trkpt lat="45.03" lon="5.89074">
        <ele>2311.15</ele>
        <time>2022-11-06T10:23:07Z</time>
      </trkpt>
      <trkpt lat="45.02996" lon="5.89086">
        <ele>2313.55</ele>
        <time>2022-11-06T10:23:21Z</time>
      </trkpt>
      <trkpt lat="45.02992" lon="5.89096">
        <ele>2316.43</ele>
        <time>2022-11-06T10:23:33Z</time>
      </trkpt>
      <trkpt lat="45.0299" lon="5.89102">
        <ele>2316.91</ele>
        <time>2022-11-06T10:23:45Z</time>
      </trkpt>
      <trkpt lat="45.02989" lon="5.89104">
        <ele>2316.43</ele>
        <time>2022-11-06T10:24:00Z</time>
      </trkpt>
      <trkpt lat="45.02987" lon="5.89108">
        <ele>2318.84</ele>
        <time>2022-11-06T10:24:13Z</time>
      </trkpt>
      <trkpt lat="45.02983" lon="5.89113">
        <ele>2319.8</ele>
        <time>2022-11-06T10:24:29Z</time>
      </trkpt>
      <trkpt lat="45.0298" lon="5.89117">
        <ele>2322.68</ele>
        <time>2022-11-06T10:24:44Z</time>
      </trkpt>
      <trkpt lat="45.02976" lon="5.89121">
        <ele>2321.24</ele>
        <time>2022-11-06T10:24:58Z</time>
      </trkpt>
      <trkpt lat="45.02971" lon="5.89127">
        <ele>2324.61</ele>
        <time>2022-11-06T10:25:09Z</time>
      </trkpt>
      <trkpt lat="45.02966" lon="5.89136">
        <ele>2324.61</ele>
        <time>2022-11-06T10:25:26Z</time>
      </trkpt>
      <trkpt lat="45.02962" lon="5.8914">
        <ele>2326.05</ele>
        <time>2022-11-06T10:25:34Z</time>
      </trkpt>
      <trkpt lat="45.02957" lon="5.89145">
        <ele>2328.45</ele>
        <time>2022-11-06T10:25:45Z</time>
      </trkpt>
      <trkpt lat="45.02949" lon="5.89149">
        <ele>2329.41</ele>
        <time>2022-11-06T10:25:58Z</time>
      </trkpt>
      <trkpt lat="45.0295" lon="5.89149">
        <ele>2325.57</ele>
        <time>2022-11-06T10:26:12Z</time>
      </trkpt>
      <trkpt lat="45.0295" lon="5.89149">
        <ele>2321.24</ele>
        <time>2022-11-06T10:26:14Z</time>
      </trkpt>
      <trkpt lat="45.0295" lon="5.89148">
        <ele>2324.61</ele>
        <time>2022-11-06T10:26:19Z</time>
      </trkpt>
      <trkpt lat="45.0295" lon="5.89148">
        <ele>2328.45</ele>
        <time>2022-11-06T10:26:22Z</time>
      </trkpt>
      <trkpt lat="45.0295" lon="5.89148">
        <ele>2328.93</ele>
        <time>2022-11-06T10:26:31Z</time>
      </trkpt>
      <trkpt lat="45.0295" lon="5.89148">
        <ele>2328.93</ele>
        <time>2022-11-06T10:27:05Z</time>
      </trkpt>
      <trkpt lat="45.0295" lon="5.89148">
        <ele>2330.85</ele>
        <time>2022-11-06T10:27:11Z</time>
      </trkpt>
      <trkpt lat="45.0295" lon="5.89148">
        <ele>2334.7</ele>
        <time>2022-11-06T10:27:28Z</time>
      </trkpt>
      <trkpt lat="45.0295" lon="5.89149">
        <ele>2338.06</ele>
        <time>2022-11-06T10:27:30Z</time>
      </trkpt>
      <trkpt lat="45.0295" lon="5.89149">
        <ele>2334.7</ele>
        <time>2022-11-06T10:27:41Z</time>
      </trkpt>
      <trkpt lat="45.0295" lon="5.89149">
        <ele>2332.78</ele>
        <time>2022-11-06T10:28:24Z</time>
      </trkpt>
      <trkpt lat="45.0295" lon="5.89149">
        <ele>2333.26</ele>
        <time>2022-11-06T10:29:03Z</time>
      </trkpt>
      <trkpt lat="45.0295" lon="5.89149">
        <ele>2333.26</ele>
        <time>2022-11-06T10:29:40Z</time>
      </trkpt>
      <trkpt lat="45.0295" lon="5.89154">
        <ele>2333.26</ele>
        <time>2022-11-06T10:30:18Z</time>
      </trkpt>
      <trkpt lat="45.0295" lon="5.89166">
        <ele>2333.26</ele>
        <time>2022-11-06T10:30:30Z</time>
      </trkpt>
      <trkpt lat="45.02948" lon="5.89183">
        <ele>2335.18</ele>
        <time>2022-11-06T10:30:47Z</time>
      </trkpt>
      <trkpt lat="45.02948" lon="5.89195">
        <ele>2337.1</ele>
        <time>2022-11-06T10:30:59Z</time>
      </trkpt>
      <trkpt lat="45.02944" lon="5.89206">
        <ele>2338.54</ele>
        <time>2022-11-06T10:31:13Z</time>
      </trkpt>
      <trkpt lat="45.02939" lon="5.89216">
        <ele>2340.95</ele>
        <time>2022-11-06T10:31:25Z</time>
      </trkpt>
      <trkpt lat="45.02939" lon="5.89224">
        <ele>2342.39</ele>
        <time>2022-11-06T10:31:35Z</time>
      </trkpt>
      <trkpt lat="45.02937" lon="5.89239">
        <ele>2341.91</ele>
        <time>2022-11-06T10:31:48Z</time>
      </trkpt>
      <trkpt lat="45.02934" lon="5.89253">
        <ele>2344.79</ele>
        <time>2022-11-06T10:32:02Z</time>
      </trkpt>
      <trkpt lat="45.02932" lon="5.89264">
        <ele>2344.79</ele>
        <time>2022-11-06T10:32:16Z</time>
      </trkpt>
      <trkpt lat="45.02932" lon="5.89271">
        <ele>2348.16</ele>
        <time>2022-11-06T10:32:26Z</time>
      </trkpt>
      <trkpt lat="45.02927" lon="5.89283">
        <ele>2350.08</ele>
        <time>2022-11-06T10:32:42Z</time>
      </trkpt>
      <trkpt lat="45.02925" lon="5.89297">
        <ele>2351.04</ele>
        <time>2022-11-06T10:32:56Z</time>
      </trkpt>
      <trkpt lat="45.02922" lon="5.89308">
        <ele>2352</ele>
        <time>2022-11-06T10:33:08Z</time>
      </trkpt>
      <trkpt lat="45.02923" lon="5.89323">
        <ele>2354.41</ele>
        <time>2022-11-06T10:33:21Z</time>
      </trkpt>
      <trkpt lat="45.02923" lon="5.89326">
        <ele>2355.37</ele>
        <time>2022-11-06T10:33:23Z</time>
      </trkpt>
      <trkpt lat="45.02923" lon="5.89339">
        <ele>2356.81</ele>
        <time>2022-11-06T10:33:35Z</time>
      </trkpt>
      <trkpt lat="45.02922" lon="5.8935">
        <ele>2357.29</ele>
        <time>2022-11-06T10:33:46Z</time>
      </trkpt>
      <trkpt lat="45.02922" lon="5.8936">
        <ele>2359.69</ele>
        <time>2022-11-06T10:33:54Z</time>
      </trkpt>
      <trkpt lat="45.02924" lon="5.89381">
        <ele>2361.62</ele>
        <time>2022-11-06T10:34:08Z</time>
      </trkpt>
      <trkpt lat="45.02925" lon="5.89389">
        <ele>2362.1</ele>
        <time>2022-11-06T10:34:15Z</time>
      </trkpt>
      <trkpt lat="45.02925" lon="5.89396">
        <ele>2362.58</ele>
        <time>2022-11-06T10:34:21Z</time>
      </trkpt>
      <trkpt lat="45.02926" lon="5.89402">
        <ele>2364.98</ele>
        <time>2022-11-06T10:34:33Z</time>
      </trkpt>
      <trkpt lat="45.02926" lon="5.89402">
        <ele>2364.98</ele>
        <time>2022-11-06T10:34:34Z</time>
      </trkpt>
      <trkpt lat="45.02924" lon="5.89409">
        <ele>2363.54</ele>
        <time>2022-11-06T10:35:04Z</time>
      </trkpt>
      <trkpt lat="45.02924" lon="5.89416">
        <ele>2364.98</ele>
        <time>2022-11-06T10:35:10Z</time>
      </trkpt>
      <trkpt lat="45.02924" lon="5.8942">
        <ele>2364.98</ele>
        <time>2022-11-06T10:35:12Z</time>
      </trkpt>
      <trkpt lat="45.02924" lon="5.89422">
        <ele>2365.46</ele>
        <time>2022-11-06T10:35:13Z</time>
      </trkpt>
      <trkpt lat="45.02923" lon="5.89433">
        <ele>2365.46</ele>
        <time>2022-11-06T10:35:20Z</time>
      </trkpt>
      <trkpt lat="45.02923" lon="5.89451">
        <ele>2366.42</ele>
        <time>2022-11-06T10:35:32Z</time>
      </trkpt>
      <trkpt lat="45.02924" lon="5.89465">
        <ele>2367.38</ele>
        <time>2022-11-06T10:35:44Z</time>
      </trkpt>
      <trkpt lat="45.02926" lon="5.89476">
        <ele>2368.83</ele>
        <time>2022-11-06T10:35:59Z</time>
      </trkpt>
      <trkpt lat="45.02927" lon="5.89476">
        <ele>2369.31</ele>
        <time>2022-11-06T10:36:01Z</time>
      </trkpt>
      <trkpt lat="45.02929" lon="5.89484">
        <ele>2369.31</ele>
        <time>2022-11-06T10:36:17Z</time>
      </trkpt>
      <trkpt lat="45.0293" lon="5.89484">
        <ele>2364.5</ele>
        <time>2022-11-06T10:36:47Z</time>
      </trkpt>
      <trkpt lat="45.0293" lon="5.89484">
        <ele>2360.17</ele>
        <time>2022-11-06T10:36:49Z</time>
      </trkpt>
      <trkpt lat="45.0293" lon="5.89484">
        <ele>2363.54</ele>
        <time>2022-11-06T10:36:55Z</time>
      </trkpt>
      <trkpt lat="45.0293" lon="5.89484">
        <ele>2366.9</ele>
        <time>2022-11-06T10:36:57Z</time>
      </trkpt>
      <trkpt lat="45.02929" lon="5.89484">
        <ele>2371.23</ele>
        <time>2022-11-06T10:36:58Z</time>
      </trkpt>
      <trkpt lat="45.0293" lon="5.89484">
        <ele>2375.07</ele>
        <time>2022-11-06T10:36:59Z</time>
      </trkpt>
      <trkpt lat="45.0293" lon="5.89484">
        <ele>2377.48</ele>
        <time>2022-11-06T10:37:02Z</time>
      </trkpt>
      <trkpt lat="45.0293" lon="5.89484">
        <ele>2374.59</ele>
        <time>2022-11-06T10:37:07Z</time>
      </trkpt>
      <trkpt lat="45.0293" lon="5.89484">
        <ele>2373.15</ele>
        <time>2022-11-06T10:37:10Z</time>
      </trkpt>
      <trkpt lat="45.0293" lon="5.89485">
        <ele>2369.79</ele>
        <time>2022-11-06T10:37:25Z</time>
      </trkpt>
      <trkpt lat="45.02932" lon="5.89496">
        <ele>2371.23</ele>
        <time>2022-11-06T10:37:40Z</time>
      </trkpt>
      <trkpt lat="45.02934" lon="5.89504">
        <ele>2371.23</ele>
        <time>2022-11-06T10:37:46Z</time>
      </trkpt>
      <trkpt lat="45.02936" lon="5.89511">
        <ele>2371.71</ele>
        <time>2022-11-06T10:37:51Z</time>
      </trkpt>
      <trkpt lat="45.02938" lon="5.89518">
        <ele>2371.71</ele>
        <time>2022-11-06T10:37:57Z</time>
      </trkpt>
      <trkpt lat="45.02938" lon="5.89526">
        <ele>2372.19</ele>
        <time>2022-11-06T10:38:03Z</time>
      </trkpt>
      <trkpt lat="45.02937" lon="5.89534">
        <ele>2373.63</ele>
        <time>2022-11-06T10:38:16Z</time>
      </trkpt>
      <trkpt lat="45.02939" lon="5.89538">
        <ele>2371.23</ele>
        <time>2022-11-06T10:38:25Z</time>
      </trkpt>
      <trkpt lat="45.02945" lon="5.89546">
        <ele>2374.11</ele>
        <time>2022-11-06T10:38:37Z</time>
      </trkpt>
      <trkpt lat="45.02952" lon="5.89554">
        <ele>2375.55</ele>
        <time>2022-11-06T10:38:51Z</time>
      </trkpt>
      <trkpt lat="45.02958" lon="5.89565">
        <ele>2376.52</ele>
        <time>2022-11-06T10:39:03Z</time>
      </trkpt>
      <trkpt lat="45.02959" lon="5.89566">
        <ele>2376.52</ele>
        <time>2022-11-06T10:39:04Z</time>
      </trkpt>
      <trkpt lat="45.0296" lon="5.89568">
        <ele>2377</ele>
        <time>2022-11-06T10:39:06Z</time>
      </trkpt>
      <trkpt lat="45.02962" lon="5.89575">
        <ele>2377</ele>
        <time>2022-11-06T10:39:12Z</time>
      </trkpt>
      <trkpt lat="45.02966" lon="5.89587">
        <ele>2378.92</ele>
        <time>2022-11-06T10:39:23Z</time>
      </trkpt>
      <trkpt lat="45.02968" lon="5.89597">
        <ele>2378.92</ele>
        <time>2022-11-06T10:39:36Z</time>
      </trkpt>
      <trkpt lat="45.02968" lon="5.89606">
        <ele>2379.88</ele>
        <time>2022-11-06T10:39:44Z</time>
      </trkpt>
      <trkpt lat="45.0297" lon="5.89617">
        <ele>2381.32</ele>
        <time>2022-11-06T10:39:54Z</time>
      </trkpt>
      <trkpt lat="45.02971" lon="5.89622">
        <ele>2381.8</ele>
        <time>2022-11-06T10:39:58Z</time>
      </trkpt>
      <trkpt lat="45.02973" lon="5.89627">
        <ele>2381.8</ele>
        <time>2022-11-06T10:40:02Z</time>
      </trkpt>
      <trkpt lat="45.02977" lon="5.89636">
        <ele>2382.28</ele>
        <time>2022-11-06T10:40:11Z</time>
      </trkpt>
      <trkpt lat="45.02978" lon="5.8964">
        <ele>2382.76</ele>
        <time>2022-11-06T10:40:14Z</time>
      </trkpt>
      <trkpt lat="45.02978" lon="5.89641">
        <ele>2383.25</ele>
        <time>2022-11-06T10:40:15Z</time>
      </trkpt>
      <trkpt lat="45.02978" lon="5.89643">
        <ele>2383.25</ele>
        <time>2022-11-06T10:40:16Z</time>
      </trkpt>
      <trkpt lat="45.02979" lon="5.89644">
        <ele>2383.25</ele>
        <time>2022-11-06T10:40:17Z</time>
      </trkpt>
      <trkpt lat="45.02979" lon="5.89645">
        <ele>2383.73</ele>
        <time>2022-11-06T10:40:18Z</time>
      </trkpt>
      <trkpt lat="45.0298" lon="5.89646">
        <ele>2383.25</ele>
        <time>2022-11-06T10:40:19Z</time>
      </trkpt>
      <trkpt lat="45.02981" lon="5.89647">
        <ele>2383.73</ele>
        <time>2022-11-06T10:40:20Z</time>
      </trkpt>
      <trkpt lat="45.02988" lon="5.89656">
        <ele>2383.73</ele>
        <time>2022-11-06T10:40:30Z</time>
      </trkpt>
      <trkpt lat="45.02989" lon="5.89665">
        <ele>2384.69</ele>
        <time>2022-11-06T10:40:41Z</time>
      </trkpt>
      <trkpt lat="45.02996" lon="5.89665">
        <ele>2385.65</ele>
        <time>2022-11-06T10:40:56Z</time>
      </trkpt>
      <trkpt lat="45.02997" lon="5.89666">
        <ele>2385.17</ele>
        <time>2022-11-06T10:41:18Z</time>
      </trkpt>
      <trkpt lat="45.03005" lon="5.89672">
        <ele>2386.13</ele>
        <time>2022-11-06T10:41:45Z</time>
      </trkpt>
      <trkpt lat="45.03009" lon="5.89681">
        <ele>2386.61</ele>
        <time>2022-11-06T10:41:59Z</time>
      </trkpt>
      <trkpt lat="45.0301" lon="5.89686">
        <ele>2386.13</ele>
        <time>2022-11-06T10:42:17Z</time>
      </trkpt>
      <trkpt lat="45.03016" lon="5.89693">
        <ele>2385.65</ele>
        <time>2022-11-06T10:42:32Z</time>
      </trkpt>
      <trkpt lat="45.03017" lon="5.89696">
        <ele>2386.61</ele>
        <time>2022-11-06T10:42:35Z</time>
      </trkpt>
      <trkpt lat="45.03021" lon="5.89703">
        <ele>2387.09</ele>
        <time>2022-11-06T10:42:51Z</time>
      </trkpt>
      <trkpt lat="45.03026" lon="5.89711">
        <ele>2389.49</ele>
        <time>2022-11-06T10:43:08Z</time>
      </trkpt>
      <trkpt lat="45.03031" lon="5.8972">
        <ele>2390.46</ele>
        <time>2022-11-06T10:43:24Z</time>
      </trkpt>
      <trkpt lat="45.03033" lon="5.89729">
        <ele>2389.97</ele>
        <time>2022-11-06T10:43:40Z</time>
      </trkpt>
      <trkpt lat="45.03037" lon="5.89737">
        <ele>2391.9</ele>
        <time>2022-11-06T10:43:53Z</time>
      </trkpt>
      <trkpt lat="45.03041" lon="5.89744">
        <ele>2391.42</ele>
        <time>2022-11-06T10:44:09Z</time>
      </trkpt>
      <trkpt lat="45.03045" lon="5.89755">
        <ele>2393.34</ele>
        <time>2022-11-06T10:44:24Z</time>
      </trkpt>
      <trkpt lat="45.03048" lon="5.89758">
        <ele>2393.82</ele>
        <time>2022-11-06T10:44:42Z</time>
      </trkpt>
      <trkpt lat="45.03051" lon="5.89764">
        <ele>2395.26</ele>
        <time>2022-11-06T10:44:59Z</time>
      </trkpt>
      <trkpt lat="45.03052" lon="5.8977">
        <ele>2397.18</ele>
        <time>2022-11-06T10:45:13Z</time>
      </trkpt>
      <trkpt lat="45.03052" lon="5.89771">
        <ele>2393.82</ele>
        <time>2022-11-06T10:45:25Z</time>
      </trkpt>
      <trkpt lat="45.03052" lon="5.89771">
        <ele>2397.18</ele>
        <time>2022-11-06T10:45:35Z</time>
      </trkpt>
      <trkpt lat="45.03053" lon="5.89774">
        <ele>2397.67</ele>
        <time>2022-11-06T10:45:50Z</time>
      </trkpt>
      <trkpt lat="45.03053" lon="5.89774">
        <ele>2394.78</ele>
        <time>2022-11-06T10:46:05Z</time>
      </trkpt>
      <trkpt lat="45.03053" lon="5.89776">
        <ele>2397.67</ele>
        <time>2022-11-06T10:46:12Z</time>
      </trkpt>
      <trkpt lat="45.03053" lon="5.89777">
        <ele>2399.59</ele>
        <time>2022-11-06T10:46:15Z</time>
      </trkpt>
      <trkpt lat="45.03054" lon="5.89783">
        <ele>2397.67</ele>
        <time>2022-11-06T10:46:32Z</time>
      </trkpt>
      <trkpt lat="45.03057" lon="5.8979">
        <ele>2397.18</ele>
        <time>2022-11-06T10:46:50Z</time>
      </trkpt>
      <trkpt lat="45.03061" lon="5.898">
        <ele>2397.18</ele>
        <time>2022-11-06T10:47:04Z</time>
      </trkpt>
      <trkpt lat="45.03064" lon="5.89804">
        <ele>2397.67</ele>
        <time>2022-11-06T10:47:19Z</time>
      </trkpt>
      <trkpt lat="45.03065" lon="5.89806">
        <ele>2397.67</ele>
        <time>2022-11-06T10:47:36Z</time>
      </trkpt>
      <trkpt lat="45.03067" lon="5.89811">
        <ele>2398.63</ele>
        <time>2022-11-06T10:47:50Z</time>
      </trkpt>
      <trkpt lat="45.03069" lon="5.89817">
        <ele>2397.18</ele>
        <time>2022-11-06T10:48:06Z</time>
      </trkpt>
      <trkpt lat="45.03071" lon="5.89823">
        <ele>2399.59</ele>
        <time>2022-11-06T10:48:34Z</time>
      </trkpt>
      <trkpt lat="45.03072" lon="5.89828">
        <ele>2398.63</ele>
        <time>2022-11-06T10:48:50Z</time>
      </trkpt>
      <trkpt lat="45.03075" lon="5.89833">
        <ele>2400.07</ele>
        <time>2022-11-06T10:49:08Z</time>
      </trkpt>
      <trkpt lat="45.03079" lon="5.89842">
        <ele>2401.03</ele>
        <time>2022-11-06T10:49:26Z</time>
      </trkpt>
      <trkpt lat="45.03084" lon="5.89846">
        <ele>2401.03</ele>
        <time>2022-11-06T10:49:39Z</time>
      </trkpt>
      <trkpt lat="45.03088" lon="5.8985">
        <ele>2401.03</ele>
        <time>2022-11-06T10:49:49Z</time>
      </trkpt>
      <trkpt lat="45.03093" lon="5.89859">
        <ele>2401.03</ele>
        <time>2022-11-06T10:50:01Z</time>
      </trkpt>
      <trkpt lat="45.03097" lon="5.89869">
        <ele>2401.03</ele>
        <time>2022-11-06T10:50:15Z</time>
      </trkpt>
      <trkpt lat="45.03102" lon="5.89879">
        <ele>2401.99</ele>
        <time>2022-11-06T10:50:32Z</time>
      </trkpt>
      <trkpt lat="45.03103" lon="5.89883">
        <ele>2401.99</ele>
        <time>2022-11-06T10:50:36Z</time>
      </trkpt>
      <trkpt lat="45.03106" lon="5.89886">
        <ele>2401.51</ele>
        <time>2022-11-06T10:50:41Z</time>
      </trkpt>
      <trkpt lat="45.03109" lon="5.8989">
        <ele>2401.99</ele>
        <time>2022-11-06T10:50:48Z</time>
      </trkpt>
      <trkpt lat="45.03113" lon="5.89902">
        <ele>2401.03</ele>
        <time>2022-11-06T10:51:01Z</time>
      </trkpt>
      <trkpt lat="45.03116" lon="5.89908">
        <ele>2401.03</ele>
        <time>2022-11-06T10:51:07Z</time>
      </trkpt>
      <trkpt lat="45.03119" lon="5.89915">
        <ele>2400.55</ele>
        <time>2022-11-06T10:51:21Z</time>
      </trkpt>
      <trkpt lat="45.0312" lon="5.89925">
        <ele>2399.11</ele>
        <time>2022-11-06T10:51:37Z</time>
      </trkpt>
      <trkpt lat="45.03124" lon="5.89934">
        <ele>2397.67</ele>
        <time>2022-11-06T10:51:51Z</time>
      </trkpt>
      <trkpt lat="45.03129" lon="5.89944">
        <ele>2398.63</ele>
        <time>2022-11-06T10:52:04Z</time>
      </trkpt>
      <trkpt lat="45.03138" lon="5.89949">
        <ele>2400.55</ele>
        <time>2022-11-06T10:52:20Z</time>
      </trkpt>
      <trkpt lat="45.03143" lon="5.89954">
        <ele>2403.43</ele>
        <time>2022-11-06T10:52:35Z</time>
      </trkpt>
      <trkpt lat="45.03149" lon="5.89957">
        <ele>2405.84</ele>
        <time>2022-11-06T10:52:54Z</time>
      </trkpt>
      <trkpt lat="45.0315" lon="5.89958">
        <ele>2406.32</ele>
        <time>2022-11-06T10:52:55Z</time>
      </trkpt>
      <trkpt lat="45.03157" lon="5.89967">
        <ele>2407.28</ele>
        <time>2022-11-06T10:53:08Z</time>
      </trkpt>
      <trkpt lat="45.03165" lon="5.89973">
        <ele>2407.28</ele>
        <time>2022-11-06T10:53:24Z</time>
      </trkpt>
      <trkpt lat="45.03169" lon="5.89976">
        <ele>2408.24</ele>
        <time>2022-11-06T10:53:41Z</time>
      </trkpt>
      <trkpt lat="45.03173" lon="5.89981">
        <ele>2410.16</ele>
        <time>2022-11-06T10:53:57Z</time>
      </trkpt>
      <trkpt lat="45.03179" lon="5.89988">
        <ele>2409.68</ele>
        <time>2022-11-06T10:54:13Z</time>
      </trkpt>
      <trkpt lat="45.03182" lon="5.89995">
        <ele>2409.2</ele>
        <time>2022-11-06T10:54:28Z</time>
      </trkpt>
      <trkpt lat="45.03187" lon="5.90004">
        <ele>2409.2</ele>
        <time>2022-11-06T10:54:48Z</time>
      </trkpt>
      <trkpt lat="45.03193" lon="5.90012">
        <ele>2409.2</ele>
        <time>2022-11-06T10:55:04Z</time>
      </trkpt>
      <trkpt lat="45.03198" lon="5.90017">
        <ele>2409.2</ele>
        <time>2022-11-06T10:55:22Z</time>
      </trkpt>
      <trkpt lat="45.03202" lon="5.90027">
        <ele>2409.2</ele>
        <time>2022-11-06T10:55:36Z</time>
      </trkpt>
      <trkpt lat="45.03205" lon="5.90035">
        <ele>2412.57</ele>
        <time>2022-11-06T10:55:47Z</time>
      </trkpt>
      <trkpt lat="45.03215" lon="5.90049">
        <ele>2414.01</ele>
        <time>2022-11-06T10:56:08Z</time>
      </trkpt>
      <trkpt lat="45.03219" lon="5.90051">
        <ele>2415.45</ele>
        <time>2022-11-06T10:56:25Z</time>
      </trkpt>
      <trkpt lat="45.03223" lon="5.90056">
        <ele>2416.41</ele>
        <time>2022-11-06T10:56:44Z</time>
      </trkpt>
      <trkpt lat="45.03226" lon="5.90063">
        <ele>2417.37</ele>
        <time>2022-11-06T10:57:08Z</time>
      </trkpt>
      <trkpt lat="45.0323" lon="5.9007">
        <ele>2420.74</ele>
        <time>2022-11-06T10:57:25Z</time>
      </trkpt>
      <trkpt lat="45.03236" lon="5.90074">
        <ele>2423.14</ele>
        <time>2022-11-06T10:57:43Z</time>
      </trkpt>
      <trkpt lat="45.03241" lon="5.90076">
        <ele>2426.02</ele>
        <time>2022-11-06T10:57:58Z</time>
      </trkpt>
      <trkpt lat="45.03249" lon="5.90083">
        <ele>2427.47</ele>
        <time>2022-11-06T10:58:16Z</time>
      </trkpt>
      <trkpt lat="45.03254" lon="5.90086">
        <ele>2428.91</ele>
        <time>2022-11-06T10:58:33Z</time>
      </trkpt>
      <trkpt lat="45.03261" lon="5.90091">
        <ele>2431.79</ele>
        <time>2022-11-06T10:58:51Z</time>
      </trkpt>
      <trkpt lat="45.03268" lon="5.90091">
        <ele>2432.27</ele>
        <time>2022-11-06T10:59:09Z</time>
      </trkpt>
      <trkpt lat="45.03275" lon="5.90092">
        <ele>2434.2</ele>
        <time>2022-11-06T10:59:23Z</time>
      </trkpt>
      <trkpt lat="45.03278" lon="5.90091">
        <ele>2434.2</ele>
        <time>2022-11-06T10:59:42Z</time>
      </trkpt>
      <trkpt lat="45.03277" lon="5.90091">
        <ele>2433.71</ele>
        <time>2022-11-06T11:00:06Z</time>
      </trkpt>
      <trkpt lat="45.03277" lon="5.90091">
        <ele>2434.2</ele>
        <time>2022-11-06T11:00:35Z</time>
      </trkpt>
      <trkpt lat="45.03277" lon="5.90091">
        <ele>2434.2</ele>
        <time>2022-11-06T11:01:13Z</time>
      </trkpt>
      <trkpt lat="45.03278" lon="5.9009">
        <ele>2434.2</ele>
        <time>2022-11-06T11:01:32Z</time>
      </trkpt>
      <trkpt lat="45.03278" lon="5.9009">
        <ele>2434.2</ele>
        <time>2022-11-06T11:02:18Z</time>
      </trkpt>
      <trkpt lat="45.03278" lon="5.9009">
        <ele>2435.64</ele>
        <time>2022-11-06T11:03:22Z</time>
      </trkpt>
      <trkpt lat="45.03285" lon="5.90102">
        <ele>2434.68</ele>
        <time>2022-11-06T11:03:51Z</time>
      </trkpt>
      <trkpt lat="45.03288" lon="5.9011">
        <ele>2437.56</ele>
        <time>2022-11-06T11:04:04Z</time>
      </trkpt>
      <trkpt lat="45.03293" lon="5.90116">
        <ele>2438.52</ele>
        <time>2022-11-06T11:04:19Z</time>
      </trkpt>
      <trkpt lat="45.03295" lon="5.90121">
        <ele>2440.92</ele>
        <time>2022-11-06T11:04:34Z</time>
      </trkpt>
      <trkpt lat="45.03296" lon="5.90127">
        <ele>2441.41</ele>
        <time>2022-11-06T11:04:51Z</time>
      </trkpt>
      <trkpt lat="45.033" lon="5.90133">
        <ele>2442.85</ele>
        <time>2022-11-06T11:05:04Z</time>
      </trkpt>
      <trkpt lat="45.03304" lon="5.9014">
        <ele>2446.21</ele>
        <time>2022-11-06T11:05:23Z</time>
      </trkpt>
      <trkpt lat="45.03311" lon="5.90144">
        <ele>2448.62</ele>
        <time>2022-11-06T11:05:46Z</time>
      </trkpt>
      <trkpt lat="45.03311" lon="5.90145">
        <ele>2448.62</ele>
        <time>2022-11-06T11:05:47Z</time>
      </trkpt>
      <trkpt lat="45.03311" lon="5.90152">
        <ele>2450.06</ele>
        <time>2022-11-06T11:06:02Z</time>
      </trkpt>
      <trkpt lat="45.03311" lon="5.90161">
        <ele>2452.46</ele>
        <time>2022-11-06T11:06:25Z</time>
      </trkpt>
      <trkpt lat="45.03314" lon="5.90165">
        <ele>2453.9</ele>
        <time>2022-11-06T11:06:41Z</time>
      </trkpt>
      <trkpt lat="45.03314" lon="5.9017">
        <ele>2455.82</ele>
        <time>2022-11-06T11:06:53Z</time>
      </trkpt>
      <trkpt lat="45.03316" lon="5.90177">
        <ele>2456.79</ele>
        <time>2022-11-06T11:07:09Z</time>
      </trkpt>
      <trkpt lat="45.0332" lon="5.90179">
        <ele>2459.67</ele>
        <time>2022-11-06T11:07:26Z</time>
      </trkpt>
      <trkpt lat="45.03323" lon="5.90181">
        <ele>2460.63</ele>
        <time>2022-11-06T11:07:46Z</time>
      </trkpt>
      <trkpt lat="45.03326" lon="5.90187">
        <ele>2462.07</ele>
        <time>2022-11-06T11:08:05Z</time>
      </trkpt>
      <trkpt lat="45.03326" lon="5.90194">
        <ele>2464.48</ele>
        <time>2022-11-06T11:08:22Z</time>
      </trkpt>
      <trkpt lat="45.03326" lon="5.90195">
        <ele>2459.67</ele>
        <time>2022-11-06T11:08:26Z</time>
      </trkpt>
      <trkpt lat="45.03326" lon="5.90196">
        <ele>2459.67</ele>
        <time>2022-11-06T11:08:27Z</time>
      </trkpt>
      <trkpt lat="45.03325" lon="5.90201">
        <ele>2459.67</ele>
        <time>2022-11-06T11:08:41Z</time>
      </trkpt>
      <trkpt lat="45.03326" lon="5.90208">
        <ele>2459.67</ele>
        <time>2022-11-06T11:09:02Z</time>
      </trkpt>
      <trkpt lat="45.03325" lon="5.90214">
        <ele>2459.67</ele>
        <time>2022-11-06T11:09:18Z</time>
      </trkpt>
      <trkpt lat="45.03325" lon="5.90214">
        <ele>2470.73</ele>
        <time>2022-11-06T11:09:27Z</time>
      </trkpt>
      <trkpt lat="45.03325" lon="5.90217">
        <ele>2470.24</ele>
        <time>2022-11-06T11:10:01Z</time>
      </trkpt>
      <trkpt lat="45.03325" lon="5.90227">
        <ele>2472.17</ele>
        <time>2022-11-06T11:10:21Z</time>
      </trkpt>
      <trkpt lat="45.03325" lon="5.90237">
        <ele>2475.05</ele>
        <time>2022-11-06T11:10:36Z</time>
      </trkpt>
      <trkpt lat="45.03325" lon="5.90247">
        <ele>2477.94</ele>
        <time>2022-11-06T11:10:53Z</time>
      </trkpt>
      <trkpt lat="45.03325" lon="5.90255">
        <ele>2479.86</ele>
        <time>2022-11-06T11:11:08Z</time>
      </trkpt>
      <trkpt lat="45.03324" lon="5.90266">
        <ele>2482.26</ele>
        <time>2022-11-06T11:11:27Z</time>
      </trkpt>
      <trkpt lat="45.03324" lon="5.90274">
        <ele>2484.66</ele>
        <time>2022-11-06T11:11:43Z</time>
      </trkpt>
      <trkpt lat="45.03323" lon="5.90287">
        <ele>2487.55</ele>
        <time>2022-11-06T11:12:12Z</time>
      </trkpt>
      <trkpt lat="45.03324" lon="5.90292">
        <ele>2488.51</ele>
        <time>2022-11-06T11:12:37Z</time>
      </trkpt>
      <trkpt lat="45.03324" lon="5.90294">
        <ele>2490.43</ele>
        <time>2022-11-06T11:12:40Z</time>
      </trkpt>
      <trkpt lat="45.03323" lon="5.90301">
        <ele>2490.43</ele>
        <time>2022-11-06T11:13:01Z</time>
      </trkpt>
      <trkpt lat="45.03324" lon="5.90304">
        <ele>2493.8</ele>
        <time>2022-11-06T11:13:15Z</time>
      </trkpt>
      <trkpt lat="45.03323" lon="5.90311">
        <ele>2495.72</ele>
        <time>2022-11-06T11:13:32Z</time>
      </trkpt>
      <trkpt lat="45.03322" lon="5.90318">
        <ele>2497.16</ele>
        <time>2022-11-06T11:13:49Z</time>
      </trkpt>
      <trkpt lat="45.03324" lon="5.90322">
        <ele>2497.16</ele>
        <time>2022-11-06T11:14:07Z</time>
      </trkpt>
      <trkpt lat="45.03324" lon="5.90322">
        <ele>2497.16</ele>
        <time>2022-11-06T11:14:28Z</time>
      </trkpt>
      <trkpt lat="45.03323" lon="5.90323">
        <ele>2500.53</ele>
        <time>2022-11-06T11:14:44Z</time>
      </trkpt>
      <trkpt lat="45.03324" lon="5.90322">
        <ele>2494.28</ele>
        <time>2022-11-06T11:15:05Z</time>
      </trkpt>
      <trkpt lat="45.03324" lon="5.90321">
        <ele>2490.43</ele>
        <time>2022-11-06T11:15:07Z</time>
      </trkpt>
      <trkpt lat="45.03324" lon="5.90321">
        <ele>2494.28</ele>
        <time>2022-11-06T11:15:12Z</time>
      </trkpt>
      <trkpt lat="45.03324" lon="5.90322">
        <ele>2498.12</ele>
        <time>2022-11-06T11:15:14Z</time>
      </trkpt>
      <trkpt lat="45.03324" lon="5.90322">
        <ele>2502.45</ele>
        <time>2022-11-06T11:15:16Z</time>
      </trkpt>
      <trkpt lat="45.03325" lon="5.90322">
        <ele>2501.97</ele>
        <time>2022-11-06T11:15:22Z</time>
      </trkpt>
      <trkpt lat="45.03325" lon="5.90322">
        <ele>2500.05</ele>
        <time>2022-11-06T11:15:49Z</time>
      </trkpt>
      <trkpt lat="45.03328" lon="5.90328">
        <ele>2499.57</ele>
        <time>2022-11-06T11:16:17Z</time>
      </trkpt>
      <trkpt lat="45.0333" lon="5.90328">
        <ele>2502.93</ele>
        <time>2022-11-06T11:16:26Z</time>
      </trkpt>
      <trkpt lat="45.0333" lon="5.90328">
        <ele>2504.37</ele>
        <time>2022-11-06T11:16:29Z</time>
      </trkpt>
      <trkpt lat="45.0333" lon="5.90328">
        <ele>2503.41</ele>
        <time>2022-11-06T11:17:04Z</time>
      </trkpt>
      <trkpt lat="45.03332" lon="5.90326">
        <ele>2504.37</ele>
        <time>2022-11-06T11:17:21Z</time>
      </trkpt>
      <trkpt lat="45.0334" lon="5.90322">
        <ele>2504.85</ele>
        <time>2022-11-06T11:17:39Z</time>
      </trkpt>
      <trkpt lat="45.03347" lon="5.90318">
        <ele>2508.22</ele>
        <time>2022-11-06T11:17:58Z</time>
      </trkpt>
      <trkpt lat="45.03355" lon="5.90316">
        <ele>2509.66</ele>
        <time>2022-11-06T11:18:14Z</time>
      </trkpt>
      <trkpt lat="45.03365" lon="5.90314">
        <ele>2512.06</ele>
        <time>2022-11-06T11:18:34Z</time>
      </trkpt>
      <trkpt lat="45.03374" lon="5.90312">
        <ele>2513.98</ele>
        <time>2022-11-06T11:18:54Z</time>
      </trkpt>
      <trkpt lat="45.03377" lon="5.90312">
        <ele>2516.39</ele>
        <time>2022-11-06T11:18:59Z</time>
      </trkpt>
      <trkpt lat="45.03383" lon="5.9031">
        <ele>2517.35</ele>
        <time>2022-11-06T11:19:15Z</time>
      </trkpt>
      <trkpt lat="45.03389" lon="5.90309">
        <ele>2520.71</ele>
        <time>2022-11-06T11:19:25Z</time>
      </trkpt>
      <trkpt lat="45.03397" lon="5.90307">
        <ele>2521.19</ele>
        <time>2022-11-06T11:19:41Z</time>
      </trkpt>
      <trkpt lat="45.03402" lon="5.90308">
        <ele>2524.56</ele>
        <time>2022-11-06T11:19:54Z</time>
      </trkpt>
      <trkpt lat="45.03403" lon="5.90316">
        <ele>2527.44</ele>
        <time>2022-11-06T11:20:10Z</time>
      </trkpt>
      <trkpt lat="45.03407" lon="5.90318">
        <ele>2529.37</ele>
        <time>2022-11-06T11:20:22Z</time>
      </trkpt>
      <trkpt lat="45.03413" lon="5.90317">
        <ele>2530.81</ele>
        <time>2022-11-06T11:20:36Z</time>
      </trkpt>
      <trkpt lat="45.03419" lon="5.90318">
        <ele>2533.69</ele>
        <time>2022-11-06T11:20:51Z</time>
      </trkpt>
      <trkpt lat="45.03423" lon="5.90322">
        <ele>2535.61</ele>
        <time>2022-11-06T11:21:08Z</time>
      </trkpt>
      <trkpt lat="45.03427" lon="5.90328">
        <ele>2538.02</ele>
        <time>2022-11-06T11:21:23Z</time>
      </trkpt>
      <trkpt lat="45.03434" lon="5.90331">
        <ele>2540.42</ele>
        <time>2022-11-06T11:21:42Z</time>
      </trkpt>
      <trkpt lat="45.03439" lon="5.90331">
        <ele>2542.34</ele>
        <time>2022-11-06T11:21:59Z</time>
      </trkpt>
      <trkpt lat="45.03442" lon="5.90336">
        <ele>2545.23</ele>
        <time>2022-11-06T11:22:16Z</time>
      </trkpt>
      <trkpt lat="45.03446" lon="5.90338">
        <ele>2546.67</ele>
        <time>2022-11-06T11:22:32Z</time>
      </trkpt>
      <trkpt lat="45.03452" lon="5.90343">
        <ele>2548.59</ele>
        <time>2022-11-06T11:22:49Z</time>
      </trkpt>
      <trkpt lat="45.03456" lon="5.90349">
        <ele>2550.51</ele>
        <time>2022-11-06T11:23:04Z</time>
      </trkpt>
      <trkpt lat="45.03463" lon="5.90348">
        <ele>2552.44</ele>
        <time>2022-11-06T11:23:20Z</time>
      </trkpt>
      <trkpt lat="45.03464" lon="5.90348">
        <ele>2552.44</ele>
        <time>2022-11-06T11:23:21Z</time>
      </trkpt>
      <trkpt lat="45.0347" lon="5.9035">
        <ele>2554.84</ele>
        <time>2022-11-06T11:23:42Z</time>
      </trkpt>
      <trkpt lat="45.03472" lon="5.9035">
        <ele>2557.24</ele>
        <time>2022-11-06T11:24:00Z</time>
      </trkpt>
      <trkpt lat="45.03472" lon="5.90349">
        <ele>2556.76</ele>
        <time>2022-11-06T11:24:23Z</time>
      </trkpt>
      <trkpt lat="45.03472" lon="5.90349">
        <ele>2556.76</ele>
        <time>2022-11-06T11:25:04Z</time>
      </trkpt>
      <trkpt lat="45.03476" lon="5.90353">
        <ele>2557.73</ele>
        <time>2022-11-06T11:25:27Z</time>
      </trkpt>
      <trkpt lat="45.03481" lon="5.90356">
        <ele>2560.61</ele>
        <time>2022-11-06T11:25:40Z</time>
      </trkpt>
      <trkpt lat="45.03487" lon="5.90361">
        <ele>2561.09</ele>
        <time>2022-11-06T11:25:55Z</time>
      </trkpt>
      <trkpt lat="45.03494" lon="5.90367">
        <ele>2563.97</ele>
        <time>2022-11-06T11:26:07Z</time>
      </trkpt>
      <trkpt lat="45.03499" lon="5.90372">
        <ele>2564.45</ele>
        <time>2022-11-06T11:26:14Z</time>
      </trkpt>
      <trkpt lat="45.035" lon="5.90374">
        <ele>2564.93</ele>
        <time>2022-11-06T11:26:30Z</time>
      </trkpt>
      <trkpt lat="45.03504" lon="5.9038">
        <ele>2563.97</ele>
        <time>2022-11-06T11:27:08Z</time>
      </trkpt>
      <trkpt lat="45.03506" lon="5.90382">
        <ele>2565.42</ele>
        <time>2022-11-06T11:27:19Z</time>
      </trkpt>
      <trkpt lat="45.03508" lon="5.90383">
        <ele>2565.42</ele>
        <time>2022-11-06T11:27:30Z</time>
      </trkpt>
      <trkpt lat="45.03509" lon="5.90384">
        <ele>2566.38</ele>
        <time>2022-11-06T11:27:44Z</time>
      </trkpt>
      <trkpt lat="45.03512" lon="5.90387">
        <ele>2568.78</ele>
        <time>2022-11-06T11:27:57Z</time>
      </trkpt>
      <trkpt lat="45.03513" lon="5.90387">
        <ele>2569.74</ele>
        <time>2022-11-06T11:27:59Z</time>
      </trkpt>
      <trkpt lat="45.03515" lon="5.90389">
        <ele>2571.66</ele>
        <time>2022-11-06T11:28:13Z</time>
      </trkpt>
      <trkpt lat="45.03518" lon="5.90392">
        <ele>2572.63</ele>
        <time>2022-11-06T11:28:29Z</time>
      </trkpt>
      <trkpt lat="45.03524" lon="5.90396">
        <ele>2575.03</ele>
        <time>2022-11-06T11:28:46Z</time>
      </trkpt>
      <trkpt lat="45.03527" lon="5.90398">
        <ele>2577.91</ele>
        <time>2022-11-06T11:29:02Z</time>
      </trkpt>
      <trkpt lat="45.03531" lon="5.90401">
        <ele>2579.84</ele>
        <time>2022-11-06T11:29:18Z</time>
      </trkpt>
      <trkpt lat="45.03533" lon="5.90405">
        <ele>2579.84</ele>
        <time>2022-11-06T11:29:37Z</time>
      </trkpt>
      <trkpt lat="45.03537" lon="5.90409">
        <ele>2581.76</ele>
        <time>2022-11-06T11:29:54Z</time>
      </trkpt>
      <trkpt lat="45.0354" lon="5.90412">
        <ele>2583.68</ele>
        <time>2022-11-06T11:30:10Z</time>
      </trkpt>
      <trkpt lat="45.03543" lon="5.90412">
        <ele>2586.56</ele>
        <time>2022-11-06T11:30:25Z</time>
      </trkpt>
      <trkpt lat="45.03545" lon="5.90416">
        <ele>2585.6</ele>
        <time>2022-11-06T11:30:42Z</time>
      </trkpt>
      <trkpt lat="45.03546" lon="5.9042">
        <ele>2586.08</ele>
        <time>2022-11-06T11:31:02Z</time>
      </trkpt>
      <trkpt lat="45.03549" lon="5.90421">
        <ele>2587.04</ele>
        <time>2022-11-06T11:31:17Z</time>
      </trkpt>
      <trkpt lat="45.03551" lon="5.90422">
        <ele>2588.49</ele>
        <time>2022-11-06T11:31:25Z</time>
      </trkpt>
      <trkpt lat="45.03552" lon="5.90421">
        <ele>2591.85</ele>
        <time>2022-11-06T11:31:40Z</time>
      </trkpt>
      <trkpt lat="45.03552" lon="5.9042">
        <ele>2592.33</ele>
        <time>2022-11-06T11:31:42Z</time>
      </trkpt>
      <trkpt lat="45.03556" lon="5.90424">
        <ele>2593.77</ele>
        <time>2022-11-06T11:31:57Z</time>
      </trkpt>
      <trkpt lat="45.0356" lon="5.90431">
        <ele>2595.22</ele>
        <time>2022-11-06T11:32:13Z</time>
      </trkpt>
      <trkpt lat="45.03566" lon="5.9044">
        <ele>2597.14</ele>
        <time>2022-11-06T11:32:28Z</time>
      </trkpt>
      <trkpt lat="45.03568" lon="5.90443">
        <ele>2598.58</ele>
        <time>2022-11-06T11:32:48Z</time>
      </trkpt>
      <trkpt lat="45.03568" lon="5.90443">
        <ele>2597.62</ele>
        <time>2022-11-06T11:33:12Z</time>
      </trkpt>
      <trkpt lat="45.03571" lon="5.90452">
        <ele>2597.14</ele>
        <time>2022-11-06T11:33:36Z</time>
      </trkpt>
      <trkpt lat="45.03575" lon="5.90462">
        <ele>2599.54</ele>
        <time>2022-11-06T11:33:51Z</time>
      </trkpt>
      <trkpt lat="45.03578" lon="5.90469">
        <ele>2600.98</ele>
        <time>2022-11-06T11:34:06Z</time>
      </trkpt>
      <trkpt lat="45.03583" lon="5.90472">
        <ele>2601.46</ele>
        <time>2022-11-06T11:34:24Z</time>
      </trkpt>
      <trkpt lat="45.03584" lon="5.90472">
        <ele>2604.35</ele>
        <time>2022-11-06T11:34:28Z</time>
      </trkpt>
      <trkpt lat="45.03587" lon="5.90477">
        <ele>2606.27</ele>
        <time>2022-11-06T11:34:43Z</time>
      </trkpt>
      <trkpt lat="45.0359" lon="5.90479">
        <ele>2604.83</ele>
        <time>2022-11-06T11:35:00Z</time>
      </trkpt>
      <trkpt lat="45.03591" lon="5.9048">
        <ele>2606.75</ele>
        <time>2022-11-06T11:35:06Z</time>
      </trkpt>
      <trkpt lat="45.0359" lon="5.90481">
        <ele>2608.19</ele>
        <time>2022-11-06T11:35:24Z</time>
      </trkpt>
      <trkpt lat="45.0359" lon="5.90481">
        <ele>2608.19</ele>
        <time>2022-11-06T11:35:32Z</time>
      </trkpt>
      <trkpt lat="45.03591" lon="5.90481">
        <ele>2608.19</ele>
        <time>2022-11-06T11:35:34Z</time>
      </trkpt>
      <trkpt lat="45.03584" lon="5.90479">
        <ele>2608.19</ele>
        <time>2022-11-06T11:35:36Z</time>
      </trkpt>
      <trkpt lat="45.03584" lon="5.90479">
        <ele>2608.67</ele>
        <time>2022-11-06T11:35:37Z</time>
      </trkpt>
      <trkpt lat="45.0359" lon="5.9048">
        <ele>2608.19</ele>
        <time>2022-11-06T11:35:42Z</time>
      </trkpt>
      <trkpt lat="45.03589" lon="5.90482">
        <ele>2607.23</ele>
        <time>2022-11-06T11:35:50Z</time>
      </trkpt>
      <trkpt lat="45.03593" lon="5.9048">
        <ele>2605.79</ele>
        <time>2022-11-06T11:36:04Z</time>
      </trkpt>
      <trkpt lat="45.03596" lon="5.90479">
        <ele>2607.23</ele>
        <time>2022-11-06T11:36:30Z</time>
      </trkpt>
      <trkpt lat="45.03596" lon="5.90479">
        <ele>2603.39</ele>
        <time>2022-11-06T11:36:37Z</time>
      </trkpt>
      <trkpt lat="45.03596" lon="5.90479">
        <ele>2600.5</ele>
        <time>2022-11-06T11:36:39Z</time>
      </trkpt>
      <trkpt lat="45.03596" lon="5.90479">
        <ele>2603.39</ele>
        <time>2022-11-06T11:36:47Z</time>
      </trkpt>
      <trkpt lat="45.03596" lon="5.90479">
        <ele>2603.87</ele>
        <time>2022-11-06T11:37:45Z</time>
      </trkpt>
      <trkpt lat="45.03596" lon="5.90479">
        <ele>2603.39</ele>
        <time>2022-11-06T11:38:48Z</time>
      </trkpt>
      <trkpt lat="45.03596" lon="5.90479">
        <ele>2603.87</ele>
        <time>2022-11-06T11:38:57Z</time>
      </trkpt>
      <trkpt lat="45.03596" lon="5.90479">
        <ele>2603.87</ele>
        <time>2022-11-06T11:39:40Z</time>
      </trkpt>
      <trkpt lat="45.03596" lon="5.90479">
        <ele>2603.87</ele>
        <time>2022-11-06T11:40:13Z</time>
      </trkpt>
      <trkpt lat="45.03596" lon="5.90479">
        <ele>2603.87</ele>
        <time>2022-11-06T11:40:50Z</time>
      </trkpt>
      <trkpt lat="45.03597" lon="5.90479">
        <ele>2603.87</ele>
        <time>2022-11-06T11:41:16Z</time>
      </trkpt>
      <trkpt lat="45.03597" lon="5.90479">
        <ele>2603.87</ele>
        <time>2022-11-06T11:41:47Z</time>
      </trkpt>
      <trkpt lat="45.03598" lon="5.90478">
        <ele>2603.87</ele>
        <time>2022-11-06T11:42:20Z</time>
      </trkpt>
      <trkpt lat="45.03598" lon="5.90478">
        <ele>2603.87</ele>
        <time>2022-11-06T11:42:47Z</time>
      </trkpt>
      <trkpt lat="45.03598" lon="5.90478">
        <ele>2608.19</ele>
        <time>2022-11-06T11:43:01Z</time>
      </trkpt>
      <trkpt lat="45.03598" lon="5.90478">
        <ele>2605.31</ele>
        <time>2022-11-06T11:43:13Z</time>
      </trkpt>
      <trkpt lat="45.03598" lon="5.90478">
        <ele>2609.16</ele>
        <time>2022-11-06T11:43:30Z</time>
      </trkpt>
      <trkpt lat="45.03597" lon="5.90478">
        <ele>2609.64</ele>
        <time>2022-11-06T11:43:52Z</time>
      </trkpt>
      <trkpt lat="45.03593" lon="5.90473">
        <ele>2607.71</ele>
        <time>2022-11-06T11:44:13Z</time>
      </trkpt>
      <trkpt lat="45.03587" lon="5.90469">
        <ele>2605.79</ele>
        <time>2022-11-06T11:44:27Z</time>
      </trkpt>
      <trkpt lat="45.03582" lon="5.90464">
        <ele>2605.79</ele>
        <time>2022-11-06T11:44:40Z</time>
      </trkpt>
      <trkpt lat="45.03579" lon="5.90459">
        <ele>2602.43</ele>
        <time>2022-11-06T11:44:53Z</time>
      </trkpt>
      <trkpt lat="45.03575" lon="5.90451">
        <ele>2601.46</ele>
        <time>2022-11-06T11:45:03Z</time>
      </trkpt>
      <trkpt lat="45.03574" lon="5.90449">
        <ele>2600.98</ele>
        <time>2022-11-06T11:45:04Z</time>
      </trkpt>
      <trkpt lat="45.03574" lon="5.90448">
        <ele>2600.98</ele>
        <time>2022-11-06T11:45:05Z</time>
      </trkpt>
      <trkpt lat="45.03568" lon="5.90434">
        <ele>2599.06</ele>
        <time>2022-11-06T11:45:17Z</time>
      </trkpt>
      <trkpt lat="45.03567" lon="5.90433">
        <ele>2598.58</ele>
        <time>2022-11-06T11:45:18Z</time>
      </trkpt>
      <trkpt lat="45.0356" lon="5.90419">
        <ele>2597.62</ele>
        <time>2022-11-06T11:45:32Z</time>
      </trkpt>
      <trkpt lat="45.03554" lon="5.90416">
        <ele>2595.22</ele>
        <time>2022-11-06T11:45:47Z</time>
      </trkpt>
      <trkpt lat="45.03551" lon="5.90416">
        <ele>2591.37</ele>
        <time>2022-11-06T11:45:54Z</time>
      </trkpt>
      <trkpt lat="45.03549" lon="5.90411">
        <ele>2588.49</ele>
        <time>2022-11-06T11:46:07Z</time>
      </trkpt>
      <trkpt lat="45.03542" lon="5.90407">
        <ele>2585.6</ele>
        <time>2022-11-06T11:46:21Z</time>
      </trkpt>
      <trkpt lat="45.03536" lon="5.90401">
        <ele>2583.2</ele>
        <time>2022-11-06T11:46:35Z</time>
      </trkpt>
      <trkpt lat="45.03529" lon="5.90394">
        <ele>2580.32</ele>
        <time>2022-11-06T11:46:50Z</time>
      </trkpt>
      <trkpt lat="45.03522" lon="5.90389">
        <ele>2577.43</ele>
        <time>2022-11-06T11:47:06Z</time>
      </trkpt>
      <trkpt lat="45.03517" lon="5.90384">
        <ele>2575.03</ele>
        <time>2022-11-06T11:47:21Z</time>
      </trkpt>
      <trkpt lat="45.03514" lon="5.90381">
        <ele>2572.14</ele>
        <time>2022-11-06T11:47:34Z</time>
      </trkpt>
      <trkpt lat="45.0351" lon="5.9038">
        <ele>2570.22</ele>
        <time>2022-11-06T11:47:52Z</time>
      </trkpt>
      <trkpt lat="45.03508" lon="5.90379">
        <ele>2569.74</ele>
        <time>2022-11-06T11:47:54Z</time>
      </trkpt>
      <trkpt lat="45.03507" lon="5.90378">
        <ele>2569.74</ele>
        <time>2022-11-06T11:47:55Z</time>
      </trkpt>
      <trkpt lat="45.03504" lon="5.90376">
        <ele>2568.78</ele>
        <time>2022-11-06T11:47:58Z</time>
      </trkpt>
      <trkpt lat="45.03503" lon="5.90374">
        <ele>2568.78</ele>
        <time>2022-11-06T11:47:59Z</time>
      </trkpt>
      <trkpt lat="45.03495" lon="5.90363">
        <ele>2566.38</ele>
        <time>2022-11-06T11:48:12Z</time>
      </trkpt>
      <trkpt lat="45.0349" lon="5.90357">
        <ele>2566.38</ele>
        <time>2022-11-06T11:48:25Z</time>
      </trkpt>
      <trkpt lat="45.0349" lon="5.90357">
        <ele>2564.93</ele>
        <time>2022-11-06T11:48:49Z</time>
      </trkpt>
      <trkpt lat="45.03489" lon="5.90356">
        <ele>2564.45</ele>
        <time>2022-11-06T11:48:57Z</time>
      </trkpt>
      <trkpt lat="45.03483" lon="5.90351">
        <ele>2563.97</ele>
        <time>2022-11-06T11:49:05Z</time>
      </trkpt>
      <trkpt lat="45.03473" lon="5.90345">
        <ele>2563.01</ele>
        <time>2022-11-06T11:49:18Z</time>
      </trkpt>
      <trkpt lat="45.03467" lon="5.90345">
        <ele>2560.61</ele>
        <time>2022-11-06T11:49:27Z</time>
      </trkpt>
      <trkpt lat="45.0346" lon="5.90346">
        <ele>2558.69</ele>
        <time>2022-11-06T11:49:34Z</time>
      </trkpt>
      <trkpt lat="45.03458" lon="5.90345">
        <ele>2558.21</ele>
        <time>2022-11-06T11:49:36Z</time>
      </trkpt>
      <trkpt lat="45.03456" lon="5.90343">
        <ele>2557.24</ele>
        <time>2022-11-06T11:49:38Z</time>
      </trkpt>
      <trkpt lat="45.03448" lon="5.90335">
        <ele>2553.88</ele>
        <time>2022-11-06T11:49:50Z</time>
      </trkpt>
      <trkpt lat="45.03443" lon="5.90332">
        <ele>2552.44</ele>
        <time>2022-11-06T11:49:55Z</time>
      </trkpt>
      <trkpt lat="45.03439" lon="5.90327">
        <ele>2551</ele>
        <time>2022-11-06T11:50:00Z</time>
      </trkpt>
      <trkpt lat="45.03438" lon="5.90327">
        <ele>2550.51</ele>
        <time>2022-11-06T11:50:01Z</time>
      </trkpt>
      <trkpt lat="45.03435" lon="5.90328">
        <ele>2550.03</ele>
        <time>2022-11-06T11:50:04Z</time>
      </trkpt>
      <trkpt lat="45.03434" lon="5.90327">
        <ele>2549.55</ele>
        <time>2022-11-06T11:50:05Z</time>
      </trkpt>
      <trkpt lat="45.03432" lon="5.90325">
        <ele>2547.63</ele>
        <time>2022-11-06T11:50:09Z</time>
      </trkpt>
      <trkpt lat="45.03429" lon="5.90324">
        <ele>2545.71</ele>
        <time>2022-11-06T11:50:14Z</time>
      </trkpt>
      <trkpt lat="45.03426" lon="5.90316">
        <ele>2542.82</ele>
        <time>2022-11-06T11:50:25Z</time>
      </trkpt>
      <trkpt lat="45.03417" lon="5.90313">
        <ele>2540.42</ele>
        <time>2022-11-06T11:50:38Z</time>
      </trkpt>
      <trkpt lat="45.03412" lon="5.90317">
        <ele>2537.06</ele>
        <time>2022-11-06T11:50:49Z</time>
      </trkpt>
      <trkpt lat="45.03403" lon="5.90319">
        <ele>2534.17</ele>
        <time>2022-11-06T11:51:04Z</time>
      </trkpt>
      <trkpt lat="45.03399" lon="5.90318">
        <ele>2530.81</ele>
        <time>2022-11-06T11:51:18Z</time>
      </trkpt>
      <trkpt lat="45.03395" lon="5.90317">
        <ele>2528.89</ele>
        <time>2022-11-06T11:51:34Z</time>
      </trkpt>
      <trkpt lat="45.0339" lon="5.90317">
        <ele>2526.48</ele>
        <time>2022-11-06T11:51:53Z</time>
      </trkpt>
      <trkpt lat="45.03388" lon="5.90316">
        <ele>2525.04</ele>
        <time>2022-11-06T11:52:10Z</time>
      </trkpt>
      <trkpt lat="45.03388" lon="5.90315">
        <ele>2524.56</ele>
        <time>2022-11-06T11:52:27Z</time>
      </trkpt>
      <trkpt lat="45.03388" lon="5.90315">
        <ele>2525.04</ele>
        <time>2022-11-06T11:52:52Z</time>
      </trkpt>
      <trkpt lat="45.03387" lon="5.90315">
        <ele>2525.52</ele>
        <time>2022-11-06T11:53:20Z</time>
      </trkpt>
      <trkpt lat="45.03387" lon="5.90315">
        <ele>2526.48</ele>
        <time>2022-11-06T11:53:23Z</time>
      </trkpt>
      <trkpt lat="45.03387" lon="5.90315">
        <ele>2523.12</ele>
        <time>2022-11-06T11:53:40Z</time>
      </trkpt>
      <trkpt lat="45.03387" lon="5.90315">
        <ele>2525.04</ele>
        <time>2022-11-06T11:53:51Z</time>
      </trkpt>
      <trkpt lat="45.03386" lon="5.90315">
        <ele>2525.52</ele>
        <time>2022-11-06T11:54:18Z</time>
      </trkpt>
      <trkpt lat="45.03387" lon="5.90316">
        <ele>2525.04</ele>
        <time>2022-11-06T11:54:37Z</time>
      </trkpt>
      <trkpt lat="45.03387" lon="5.90317">
        <ele>2525.04</ele>
        <time>2022-11-06T11:55:16Z</time>
      </trkpt>
      <trkpt lat="45.03387" lon="5.90318">
        <ele>2526.96</ele>
        <time>2022-11-06T11:55:50Z</time>
      </trkpt>
      <trkpt lat="45.03387" lon="5.90318">
        <ele>2523.6</ele>
        <time>2022-11-06T11:56:12Z</time>
      </trkpt>
      <trkpt lat="45.03387" lon="5.90318">
        <ele>2522.64</ele>
        <time>2022-11-06T11:56:14Z</time>
      </trkpt>
      <trkpt lat="45.03387" lon="5.90318">
        <ele>2526</ele>
        <time>2022-11-06T11:56:38Z</time>
      </trkpt>
      <trkpt lat="45.03386" lon="5.90319">
        <ele>2526</ele>
        <time>2022-11-06T11:57:20Z</time>
      </trkpt>
      <trkpt lat="45.03386" lon="5.90319">
        <ele>2526</ele>
        <time>2022-11-06T11:57:58Z</time>
      </trkpt>
      <trkpt lat="45.03386" lon="5.9032">
        <ele>2526.48</ele>
        <time>2022-11-06T11:58:37Z</time>
      </trkpt>
      <trkpt lat="45.03386" lon="5.9032">
        <ele>2526.48</ele>
        <time>2022-11-06T11:59:16Z</time>
      </trkpt>
      <trkpt lat="45.03386" lon="5.9032">
        <ele>2526.48</ele>
        <time>2022-11-06T11:59:54Z</time>
      </trkpt>
      <trkpt lat="45.03386" lon="5.9032">
        <ele>2526.48</ele>
        <time>2022-11-06T12:00:25Z</time>
      </trkpt>
      <trkpt lat="45.03386" lon="5.90321">
        <ele>2526.48</ele>
        <time>2022-11-06T12:01:09Z</time>
      </trkpt>
      <trkpt lat="45.03386" lon="5.90322">
        <ele>2529.37</ele>
        <time>2022-11-06T12:01:32Z</time>
      </trkpt>
      <trkpt lat="45.03386" lon="5.90322">
        <ele>2527.92</ele>
        <time>2022-11-06T12:01:35Z</time>
      </trkpt>
      <trkpt lat="45.03385" lon="5.90322">
        <ele>2526.96</ele>
        <time>2022-11-06T12:02:10Z</time>
      </trkpt>
      <trkpt lat="45.03384" lon="5.90322">
        <ele>2526.96</ele>
        <time>2022-11-06T12:02:42Z</time>
      </trkpt>
      <trkpt lat="45.03384" lon="5.90322">
        <ele>2526.96</ele>
        <time>2022-11-06T12:03:13Z</time>
      </trkpt>
      <trkpt lat="45.03384" lon="5.90322">
        <ele>2526.96</ele>
        <time>2022-11-06T12:03:33Z</time>
      </trkpt>
      <trkpt lat="45.03384" lon="5.90322">
        <ele>2526.96</ele>
        <time>2022-11-06T12:04:05Z</time>
      </trkpt>
      <trkpt lat="45.03384" lon="5.90322">
        <ele>2526.96</ele>
        <time>2022-11-06T12:04:55Z</time>
      </trkpt>
      <trkpt lat="45.03384" lon="5.90323">
        <ele>2526.96</ele>
        <time>2022-11-06T12:05:32Z</time>
      </trkpt>
      <trkpt lat="45.03384" lon="5.90323">
        <ele>2529.37</ele>
        <time>2022-11-06T12:05:36Z</time>
      </trkpt>
      <trkpt lat="45.03384" lon="5.90323">
        <ele>2529.37</ele>
        <time>2022-11-06T12:05:49Z</time>
      </trkpt>
      <trkpt lat="45.03384" lon="5.90323">
        <ele>2526</ele>
        <time>2022-11-06T12:06:15Z</time>
      </trkpt>
      <trkpt lat="45.03385" lon="5.90323">
        <ele>2528.89</ele>
        <time>2022-11-06T12:07:03Z</time>
      </trkpt>
      <trkpt lat="45.03385" lon="5.90323">
        <ele>2528.4</ele>
        <time>2022-11-06T12:07:36Z</time>
      </trkpt>
      <trkpt lat="45.03385" lon="5.90323">
        <ele>2525.04</ele>
        <time>2022-11-06T12:07:40Z</time>
      </trkpt>
      <trkpt lat="45.03385" lon="5.90324">
        <ele>2528.4</ele>
        <time>2022-11-06T12:07:46Z</time>
      </trkpt>
      <trkpt lat="45.03385" lon="5.90324">
        <ele>2526.96</ele>
        <time>2022-11-06T12:08:06Z</time>
      </trkpt>
      <trkpt lat="45.03385" lon="5.90323">
        <ele>2529.85</ele>
        <time>2022-11-06T12:08:25Z</time>
      </trkpt>
      <trkpt lat="45.03385" lon="5.90323">
        <ele>2529.37</ele>
        <time>2022-11-06T12:08:51Z</time>
      </trkpt>
      <trkpt lat="45.03385" lon="5.90324">
        <ele>2526.96</ele>
        <time>2022-11-06T12:09:24Z</time>
      </trkpt>
      <trkpt lat="45.03385" lon="5.90324">
        <ele>2530.33</ele>
        <time>2022-11-06T12:09:37Z</time>
      </trkpt>
      <trkpt lat="45.03386" lon="5.90323">
        <ele>2528.89</ele>
        <time>2022-11-06T12:10:06Z</time>
      </trkpt>
      <trkpt lat="45.03386" lon="5.90323">
        <ele>2527.92</ele>
        <time>2022-11-06T12:10:42Z</time>
      </trkpt>
      <trkpt lat="45.03386" lon="5.90323">
        <ele>2523.6</ele>
        <time>2022-11-06T12:11:00Z</time>
      </trkpt>
      <trkpt lat="45.03386" lon="5.90323">
        <ele>2526.96</ele>
        <time>2022-11-06T12:11:06Z</time>
      </trkpt>
      <trkpt lat="45.03386" lon="5.90323">
        <ele>2530.33</ele>
        <time>2022-11-06T12:11:17Z</time>
      </trkpt>
      <trkpt lat="45.03386" lon="5.90323">
        <ele>2526.96</ele>
        <time>2022-11-06T12:11:38Z</time>
      </trkpt>
      <trkpt lat="45.03386" lon="5.90323">
        <ele>2525.04</ele>
        <time>2022-11-06T12:11:41Z</time>
      </trkpt>
      <trkpt lat="45.03386" lon="5.90323">
        <ele>2528.4</ele>
        <time>2022-11-06T12:11:45Z</time>
      </trkpt>
      <trkpt lat="45.03386" lon="5.90323">
        <ele>2529.37</ele>
        <time>2022-11-06T12:12:18Z</time>
      </trkpt>
      <trkpt lat="45.03386" lon="5.90323">
        <ele>2529.37</ele>
        <time>2022-11-06T12:12:43Z</time>
      </trkpt>
      <trkpt lat="45.03386" lon="5.90322">
        <ele>2529.37</ele>
        <time>2022-11-06T12:13:20Z</time>
      </trkpt>
      <trkpt lat="45.03386" lon="5.90322">
        <ele>2529.37</ele>
        <time>2022-11-06T12:13:53Z</time>
      </trkpt>
      <trkpt lat="45.03387" lon="5.90321">
        <ele>2529.37</ele>
        <time>2022-11-06T12:14:16Z</time>
      </trkpt>
      <trkpt lat="45.03387" lon="5.9032">
        <ele>2526.48</ele>
        <time>2022-11-06T12:14:44Z</time>
      </trkpt>
      <trkpt lat="45.03387" lon="5.9032">
        <ele>2526.48</ele>
        <time>2022-11-06T12:14:45Z</time>
      </trkpt>
      <trkpt lat="45.03386" lon="5.90319">
        <ele>2526</ele>
        <time>2022-11-06T12:15:10Z</time>
      </trkpt>
      <trkpt lat="45.03387" lon="5.90319">
        <ele>2526.48</ele>
        <time>2022-11-06T12:15:51Z</time>
      </trkpt>
      <trkpt lat="45.03387" lon="5.90319">
        <ele>2526.48</ele>
        <time>2022-11-06T12:16:18Z</time>
      </trkpt>
      <trkpt lat="45.03388" lon="5.90318">
        <ele>2526.48</ele>
        <time>2022-11-06T12:16:47Z</time>
      </trkpt>
      <trkpt lat="45.03388" lon="5.90318">
        <ele>2526.48</ele>
        <time>2022-11-06T12:17:18Z</time>
      </trkpt>
      <trkpt lat="45.03388" lon="5.90317">
        <ele>2526.48</ele>
        <time>2022-11-06T12:18:02Z</time>
      </trkpt>
      <trkpt lat="45.03388" lon="5.90317">
        <ele>2526.48</ele>
        <time>2022-11-06T12:18:24Z</time>
      </trkpt>
      <trkpt lat="45.03388" lon="5.90317">
        <ele>2526.48</ele>
        <time>2022-11-06T12:19:01Z</time>
      </trkpt>
      <trkpt lat="45.03388" lon="5.90316">
        <ele>2526.48</ele>
        <time>2022-11-06T12:19:42Z</time>
      </trkpt>
      <trkpt lat="45.03388" lon="5.90316">
        <ele>2521.19</ele>
        <time>2022-11-06T12:19:49Z</time>
      </trkpt>
      <trkpt lat="45.03388" lon="5.90316">
        <ele>2521.68</ele>
        <time>2022-11-06T12:19:50Z</time>
      </trkpt>
      <trkpt lat="45.03389" lon="5.90316">
        <ele>2525.04</ele>
        <time>2022-11-06T12:20:03Z</time>
      </trkpt>
      <trkpt lat="45.03389" lon="5.90315">
        <ele>2529.37</ele>
        <time>2022-11-06T12:20:35Z</time>
      </trkpt>
      <trkpt lat="45.03389" lon="5.90315">
        <ele>2533.21</ele>
        <time>2022-11-06T12:20:37Z</time>
      </trkpt>
      <trkpt lat="45.03389" lon="5.90315">
        <ele>2530.33</ele>
        <time>2022-11-06T12:20:44Z</time>
      </trkpt>
      <trkpt lat="45.03389" lon="5.90315">
        <ele>2529.85</ele>
        <time>2022-11-06T12:20:46Z</time>
      </trkpt>
      <trkpt lat="45.03389" lon="5.90315">
        <ele>2526.48</ele>
        <time>2022-11-06T12:20:52Z</time>
      </trkpt>
      <trkpt lat="45.03389" lon="5.90315">
        <ele>2523.6</ele>
        <time>2022-11-06T12:20:58Z</time>
      </trkpt>
      <trkpt lat="45.03389" lon="5.90317">
        <ele>2526.48</ele>
        <time>2022-11-06T12:21:16Z</time>
      </trkpt>
      <trkpt lat="45.03389" lon="5.90317">
        <ele>2526.96</ele>
        <time>2022-11-06T12:21:17Z</time>
      </trkpt>
      <trkpt lat="45.03389" lon="5.90317">
        <ele>2526.48</ele>
        <time>2022-11-06T12:21:44Z</time>
      </trkpt>
      <trkpt lat="45.03388" lon="5.90317">
        <ele>2526.48</ele>
        <time>2022-11-06T12:23:28Z</time>
      </trkpt>
      <trkpt lat="45.03389" lon="5.90317">
        <ele>2526.48</ele>
        <time>2022-11-06T12:23:53Z</time>
      </trkpt>
      <trkpt lat="45.03389" lon="5.90318">
        <ele>2526.48</ele>
        <time>2022-11-06T12:24:24Z</time>
      </trkpt>
      <trkpt lat="45.03388" lon="5.90318">
        <ele>2526.48</ele>
        <time>2022-11-06T12:24:57Z</time>
      </trkpt>
      <trkpt lat="45.03388" lon="5.90318">
        <ele>2526.48</ele>
        <time>2022-11-06T12:25:25Z</time>
      </trkpt>
      <trkpt lat="45.03387" lon="5.90317">
        <ele>2526.48</ele>
        <time>2022-11-06T12:25:54Z</time>
      </trkpt>
      <trkpt lat="45.03387" lon="5.90317">
        <ele>2526.48</ele>
        <time>2022-11-06T12:26:31Z</time>
      </trkpt>
      <trkpt lat="45.03387" lon="5.90317">
        <ele>2526.48</ele>
        <time>2022-11-06T12:26:55Z</time>
      </trkpt>
      <trkpt lat="45.03386" lon="5.90318">
        <ele>2526.48</ele>
        <time>2022-11-06T12:27:51Z</time>
      </trkpt>
      <trkpt lat="45.03384" lon="5.90313">
        <ele>2526.48</ele>
        <time>2022-11-06T12:28:12Z</time>
      </trkpt>
      <trkpt lat="45.03382" lon="5.90311">
        <ele>2526.48</ele>
        <time>2022-11-06T12:28:14Z</time>
      </trkpt>
      <trkpt lat="45.03374" lon="5.90309">
        <ele>2523.6</ele>
        <time>2022-11-06T12:28:24Z</time>
      </trkpt>
      <trkpt lat="45.03372" lon="5.90309">
        <ele>2522.64</ele>
        <time>2022-11-06T12:28:26Z</time>
      </trkpt>
      <trkpt lat="45.03369" lon="5.90309">
        <ele>2519.75</ele>
        <time>2022-11-06T12:28:38Z</time>
      </trkpt>
      <trkpt lat="45.03364" lon="5.90307">
        <ele>2518.31</ele>
        <time>2022-11-06T12:28:55Z</time>
      </trkpt>
      <trkpt lat="45.03357" lon="5.903">
        <ele>2515.43</ele>
        <time>2022-11-06T12:29:11Z</time>
      </trkpt>
      <trkpt lat="45.03352" lon="5.903">
        <ele>2513.98</ele>
        <time>2022-11-06T12:29:17Z</time>
      </trkpt>
      <trkpt lat="45.03347" lon="5.903">
        <ele>2512.06</ele>
        <time>2022-11-06T12:29:23Z</time>
      </trkpt>
      <trkpt lat="45.03338" lon="5.90299">
        <ele>2509.66</ele>
        <time>2022-11-06T12:29:33Z</time>
      </trkpt>
      <trkpt lat="45.03332" lon="5.90297">
        <ele>2506.77</ele>
        <time>2022-11-06T12:29:42Z</time>
      </trkpt>
      <trkpt lat="45.03327" lon="5.90293">
        <ele>2503.41</ele>
        <time>2022-11-06T12:29:50Z</time>
      </trkpt>
      <trkpt lat="45.03325" lon="5.9029">
        <ele>2500.53</ele>
        <time>2022-11-06T12:29:57Z</time>
      </trkpt>
      <trkpt lat="45.03324" lon="5.90279">
        <ele>2497.16</ele>
        <time>2022-11-06T12:30:08Z</time>
      </trkpt>
      <trkpt lat="45.03324" lon="5.9027">
        <ele>2493.8</ele>
        <time>2022-11-06T12:30:18Z</time>
      </trkpt>
      <trkpt lat="45.03325" lon="5.90257">
        <ele>2490.91</ele>
        <time>2022-11-06T12:30:30Z</time>
      </trkpt>
      <trkpt lat="45.03325" lon="5.90256">
        <ele>2490.91</ele>
        <time>2022-11-06T12:30:31Z</time>
      </trkpt>
      <trkpt lat="45.03326" lon="5.9024">
        <ele>2488.03</ele>
        <time>2022-11-06T12:30:45Z</time>
      </trkpt>
      <trkpt lat="45.03326" lon="5.90237">
        <ele>2486.59</ele>
        <time>2022-11-06T12:30:47Z</time>
      </trkpt>
      <trkpt lat="45.03329" lon="5.90223">
        <ele>2483.22</ele>
        <time>2022-11-06T12:30:59Z</time>
      </trkpt>
      <trkpt lat="45.03328" lon="5.90222">
        <ele>2481.78</ele>
        <time>2022-11-06T12:31:02Z</time>
      </trkpt>
      <trkpt lat="45.03329" lon="5.90206">
        <ele>2479.38</ele>
        <time>2022-11-06T12:31:18Z</time>
      </trkpt>
      <trkpt lat="45.0333" lon="5.90195">
        <ele>2476.49</ele>
        <time>2022-11-06T12:31:32Z</time>
      </trkpt>
      <trkpt lat="45.03329" lon="5.90186">
        <ele>2473.13</ele>
        <time>2022-11-06T12:31:42Z</time>
      </trkpt>
      <trkpt lat="45.03329" lon="5.90177">
        <ele>2471.21</ele>
        <time>2022-11-06T12:31:53Z</time>
      </trkpt>
      <trkpt lat="45.03319" lon="5.90173">
        <ele>2468.8</ele>
        <time>2022-11-06T12:32:07Z</time>
      </trkpt>
      <trkpt lat="45.03315" lon="5.90165">
        <ele>2466.4</ele>
        <time>2022-11-06T12:32:20Z</time>
      </trkpt>
      <trkpt lat="45.03316" lon="5.90152">
        <ele>2463.04</ele>
        <time>2022-11-06T12:32:35Z</time>
      </trkpt>
      <trkpt lat="45.03317" lon="5.90145">
        <ele>2460.63</ele>
        <time>2022-11-06T12:32:52Z</time>
      </trkpt>
      <trkpt lat="45.03313" lon="5.90138">
        <ele>2459.19</ele>
        <time>2022-11-06T12:33:05Z</time>
      </trkpt>
      <trkpt lat="45.03304" lon="5.90129">
        <ele>2456.31</ele>
        <time>2022-11-06T12:33:20Z</time>
      </trkpt>
      <trkpt lat="45.03296" lon="5.90123">
        <ele>2453.42</ele>
        <time>2022-11-06T12:33:33Z</time>
      </trkpt>
      <trkpt lat="45.03296" lon="5.90114">
        <ele>2450.06</ele>
        <time>2022-11-06T12:33:42Z</time>
      </trkpt>
      <trkpt lat="45.03294" lon="5.90105">
        <ele>2447.17</ele>
        <time>2022-11-06T12:33:55Z</time>
      </trkpt>
      <trkpt lat="45.03285" lon="5.901">
        <ele>2447.17</ele>
        <time>2022-11-06T12:34:10Z</time>
      </trkpt>
      <trkpt lat="45.03285" lon="5.901">
        <ele>2448.13</ele>
        <time>2022-11-06T12:34:32Z</time>
      </trkpt>
      <trkpt lat="45.03285" lon="5.901">
        <ele>2448.13</ele>
        <time>2022-11-06T12:34:49Z</time>
      </trkpt>
      <trkpt lat="45.03285" lon="5.901">
        <ele>2446.69</ele>
        <time>2022-11-06T12:35:30Z</time>
      </trkpt>
      <trkpt lat="45.03285" lon="5.90099">
        <ele>2445.73</ele>
        <time>2022-11-06T12:35:53Z</time>
      </trkpt>
      <trkpt lat="45.03283" lon="5.90099">
        <ele>2445.25</ele>
        <time>2022-11-06T12:36:13Z</time>
      </trkpt>
      <trkpt lat="45.03282" lon="5.90096">
        <ele>2444.77</ele>
        <time>2022-11-06T12:36:27Z</time>
      </trkpt>
      <trkpt lat="45.0328" lon="5.90096">
        <ele>2442.85</ele>
        <time>2022-11-06T12:36:47Z</time>
      </trkpt>
      <trkpt lat="45.0328" lon="5.90096">
        <ele>2442.85</ele>
        <time>2022-11-06T12:37:16Z</time>
      </trkpt>
      <trkpt lat="45.03274" lon="5.90097">
        <ele>2441.89</ele>
        <time>2022-11-06T12:37:32Z</time>
      </trkpt>
      <trkpt lat="45.0327" lon="5.90095">
        <ele>2442.85</ele>
        <time>2022-11-06T12:37:50Z</time>
      </trkpt>
      <trkpt lat="45.03267" lon="5.90093">
        <ele>2441.89</ele>
        <time>2022-11-06T12:37:54Z</time>
      </trkpt>
      <trkpt lat="45.03255" lon="5.90089">
        <ele>2438.52</ele>
        <time>2022-11-06T12:38:06Z</time>
      </trkpt>
      <trkpt lat="45.03247" lon="5.90079">
        <ele>2436.6</ele>
        <time>2022-11-06T12:38:17Z</time>
      </trkpt>
      <trkpt lat="45.03241" lon="5.90069">
        <ele>2435.64</ele>
        <time>2022-11-06T12:38:30Z</time>
      </trkpt>
      <trkpt lat="45.03233" lon="5.90067">
        <ele>2432.75</ele>
        <time>2022-11-06T12:38:44Z</time>
      </trkpt>
      <trkpt lat="45.03226" lon="5.90054">
        <ele>2429.87</ele>
        <time>2022-11-06T12:39:01Z</time>
      </trkpt>
      <trkpt lat="45.03224" lon="5.90048">
        <ele>2427.47</ele>
        <time>2022-11-06T12:39:17Z</time>
      </trkpt>
      <trkpt lat="45.03215" lon="5.90033">
        <ele>2424.58</ele>
        <time>2022-11-06T12:39:33Z</time>
      </trkpt>
      <trkpt lat="45.03205" lon="5.9002">
        <ele>2422.18</ele>
        <time>2022-11-06T12:39:50Z</time>
      </trkpt>
      <trkpt lat="45.03198" lon="5.90007">
        <ele>2421.22</ele>
        <time>2022-11-06T12:40:05Z</time>
      </trkpt>
      <trkpt lat="45.03188" lon="5.89991">
        <ele>2419.78</ele>
        <time>2022-11-06T12:40:23Z</time>
      </trkpt>
      <trkpt lat="45.03183" lon="5.8998">
        <ele>2418.81</ele>
        <time>2022-11-06T12:40:37Z</time>
      </trkpt>
      <trkpt lat="45.03171" lon="5.8997">
        <ele>2417.37</ele>
        <time>2022-11-06T12:40:53Z</time>
      </trkpt>
      <trkpt lat="45.03159" lon="5.89959">
        <ele>2415.45</ele>
        <time>2022-11-06T12:41:06Z</time>
      </trkpt>
      <trkpt lat="45.03149" lon="5.89949">
        <ele>2414.49</ele>
        <time>2022-11-06T12:41:21Z</time>
      </trkpt>
      <trkpt lat="45.03138" lon="5.89943">
        <ele>2411.6</ele>
        <time>2022-11-06T12:41:37Z</time>
      </trkpt>
      <trkpt lat="45.03127" lon="5.89933">
        <ele>2408.72</ele>
        <time>2022-11-06T12:41:50Z</time>
      </trkpt>
      <trkpt lat="45.03126" lon="5.89932">
        <ele>2408.24</ele>
        <time>2022-11-06T12:41:51Z</time>
      </trkpt>
      <trkpt lat="45.03125" lon="5.89931">
        <ele>2408.24</ele>
        <time>2022-11-06T12:41:52Z</time>
      </trkpt>
      <trkpt lat="45.03125" lon="5.8993">
        <ele>2408.24</ele>
        <time>2022-11-06T12:41:53Z</time>
      </trkpt>
      <trkpt lat="45.03117" lon="5.89917">
        <ele>2404.88</ele>
        <time>2022-11-06T12:42:08Z</time>
      </trkpt>
      <trkpt lat="45.03115" lon="5.89906">
        <ele>2405.84</ele>
        <time>2022-11-06T12:42:23Z</time>
      </trkpt>
      <trkpt lat="45.03115" lon="5.89902">
        <ele>2405.84</ele>
        <time>2022-11-06T12:42:27Z</time>
      </trkpt>
      <trkpt lat="45.03115" lon="5.89901">
        <ele>2405.84</ele>
        <time>2022-11-06T12:42:28Z</time>
      </trkpt>
      <trkpt lat="45.03113" lon="5.89899">
        <ele>2406.32</ele>
        <time>2022-11-06T12:42:30Z</time>
      </trkpt>
      <trkpt lat="45.03112" lon="5.89898">
        <ele>2406.32</ele>
        <time>2022-11-06T12:42:31Z</time>
      </trkpt>
      <trkpt lat="45.03109" lon="5.89887">
        <ele>2406.32</ele>
        <time>2022-11-06T12:42:43Z</time>
      </trkpt>
      <trkpt lat="45.03108" lon="5.89886">
        <ele>2406.32</ele>
        <time>2022-11-06T12:42:44Z</time>
      </trkpt>
      <trkpt lat="45.031" lon="5.89871">
        <ele>2405.84</ele>
        <time>2022-11-06T12:43:00Z</time>
      </trkpt>
      <trkpt lat="45.03097" lon="5.89866">
        <ele>2405.84</ele>
        <time>2022-11-06T12:43:05Z</time>
      </trkpt>
      <trkpt lat="45.03093" lon="5.89854">
        <ele>2406.32</ele>
        <time>2022-11-06T12:43:19Z</time>
      </trkpt>
      <trkpt lat="45.03087" lon="5.89844">
        <ele>2406.32</ele>
        <time>2022-11-06T12:43:34Z</time>
      </trkpt>
      <trkpt lat="45.0308" lon="5.89835">
        <ele>2404.88</ele>
        <time>2022-11-06T12:43:50Z</time>
      </trkpt>
      <trkpt lat="45.03072" lon="5.89824">
        <ele>2404.88</ele>
        <time>2022-11-06T12:44:06Z</time>
      </trkpt>
      <trkpt lat="45.03068" lon="5.89818">
        <ele>2404.39</ele>
        <time>2022-11-06T12:44:12Z</time>
      </trkpt>
      <trkpt lat="45.03065" lon="5.89808">
        <ele>2403.43</ele>
        <time>2022-11-06T12:44:25Z</time>
      </trkpt>
      <trkpt lat="45.03063" lon="5.89805">
        <ele>2403.43</ele>
        <time>2022-11-06T12:44:28Z</time>
      </trkpt>
      <trkpt lat="45.03059" lon="5.89794">
        <ele>2401.99</ele>
        <time>2022-11-06T12:44:44Z</time>
      </trkpt>
      <trkpt lat="45.03058" lon="5.89793">
        <ele>2401.99</ele>
        <time>2022-11-06T12:44:45Z</time>
      </trkpt>
      <trkpt lat="45.03057" lon="5.89788">
        <ele>2401.99</ele>
        <time>2022-11-06T12:44:50Z</time>
      </trkpt>
      <trkpt lat="45.03056" lon="5.89787">
        <ele>2401.99</ele>
        <time>2022-11-06T12:44:51Z</time>
      </trkpt>
      <trkpt lat="45.03054" lon="5.8978">
        <ele>2401.99</ele>
        <time>2022-11-06T12:45:05Z</time>
      </trkpt>
      <trkpt lat="45.03051" lon="5.89768">
        <ele>2401.51</ele>
        <time>2022-11-06T12:45:20Z</time>
      </trkpt>
      <trkpt lat="45.03046" lon="5.89749">
        <ele>2399.59</ele>
        <time>2022-11-06T12:45:38Z</time>
      </trkpt>
      <trkpt lat="45.03045" lon="5.89748">
        <ele>2399.11</ele>
        <time>2022-11-06T12:45:39Z</time>
      </trkpt>
      <trkpt lat="45.03036" lon="5.89736">
        <ele>2396.22</ele>
        <time>2022-11-06T12:45:52Z</time>
      </trkpt>
      <trkpt lat="45.03029" lon="5.89722">
        <ele>2394.3</ele>
        <time>2022-11-06T12:46:04Z</time>
      </trkpt>
      <trkpt lat="45.03024" lon="5.89707">
        <ele>2392.86</ele>
        <time>2022-11-06T12:46:16Z</time>
      </trkpt>
      <trkpt lat="45.03019" lon="5.89695">
        <ele>2391.42</ele>
        <time>2022-11-06T12:46:29Z</time>
      </trkpt>
      <trkpt lat="45.03014" lon="5.89686">
        <ele>2389.97</ele>
        <time>2022-11-06T12:46:39Z</time>
      </trkpt>
      <trkpt lat="45.03003" lon="5.89672">
        <ele>2387.57</ele>
        <time>2022-11-06T12:46:54Z</time>
      </trkpt>
      <trkpt lat="45.02994" lon="5.89657">
        <ele>2386.13</ele>
        <time>2022-11-06T12:47:10Z</time>
      </trkpt>
      <trkpt lat="45.02983" lon="5.89642">
        <ele>2384.69</ele>
        <time>2022-11-06T12:47:26Z</time>
      </trkpt>
      <trkpt lat="45.0297" lon="5.89623">
        <ele>2383.73</ele>
        <time>2022-11-06T12:47:43Z</time>
      </trkpt>
      <trkpt lat="45.02964" lon="5.89602">
        <ele>2382.76</ele>
        <time>2022-11-06T12:47:59Z</time>
      </trkpt>
      <trkpt lat="45.02961" lon="5.89587">
        <ele>2381.8</ele>
        <time>2022-11-06T12:48:12Z</time>
      </trkpt>
      <trkpt lat="45.02956" lon="5.89564">
        <ele>2379.88</ele>
        <time>2022-11-06T12:48:29Z</time>
      </trkpt>
      <trkpt lat="45.02954" lon="5.89549">
        <ele>2378.92</ele>
        <time>2022-11-06T12:48:40Z</time>
      </trkpt>
      <trkpt lat="45.02954" lon="5.89547">
        <ele>2378.92</ele>
        <time>2022-11-06T12:48:41Z</time>
      </trkpt>
      <trkpt lat="45.02952" lon="5.89529">
        <ele>2377</ele>
        <time>2022-11-06T12:48:56Z</time>
      </trkpt>
      <trkpt lat="45.0295" lon="5.89519">
        <ele>2376.04</ele>
        <time>2022-11-06T12:49:05Z</time>
      </trkpt>
      <trkpt lat="45.02947" lon="5.89501">
        <ele>2375.07</ele>
        <time>2022-11-06T12:49:22Z</time>
      </trkpt>
      <trkpt lat="45.02944" lon="5.89484">
        <ele>2374.11</ele>
        <time>2022-11-06T12:49:38Z</time>
      </trkpt>
      <trkpt lat="45.02942" lon="5.89463">
        <ele>2372.19</ele>
        <time>2022-11-06T12:49:55Z</time>
      </trkpt>
      <trkpt lat="45.02941" lon="5.89458">
        <ele>2371.23</ele>
        <time>2022-11-06T12:50:01Z</time>
      </trkpt>
      <trkpt lat="45.02933" lon="5.89443">
        <ele>2368.83</ele>
        <time>2022-11-06T12:50:16Z</time>
      </trkpt>
      <trkpt lat="45.02933" lon="5.89441">
        <ele>2369.79</ele>
        <time>2022-11-06T12:50:24Z</time>
      </trkpt>
      <trkpt lat="45.02934" lon="5.89432">
        <ele>2369.79</ele>
        <time>2022-11-06T12:50:31Z</time>
      </trkpt>
      <trkpt lat="45.02934" lon="5.89431">
        <ele>2369.79</ele>
        <time>2022-11-06T12:50:32Z</time>
      </trkpt>
      <trkpt lat="45.02934" lon="5.89429">
        <ele>2369.79</ele>
        <time>2022-11-06T12:50:33Z</time>
      </trkpt>
      <trkpt lat="45.02934" lon="5.89427">
        <ele>2369.79</ele>
        <time>2022-11-06T12:50:34Z</time>
      </trkpt>
      <trkpt lat="45.02933" lon="5.89425">
        <ele>2369.79</ele>
        <time>2022-11-06T12:50:35Z</time>
      </trkpt>
      <trkpt lat="45.02929" lon="5.89399">
        <ele>2367.38</ele>
        <time>2022-11-06T12:50:52Z</time>
      </trkpt>
      <trkpt lat="45.02926" lon="5.89373">
        <ele>2366.42</ele>
        <time>2022-11-06T12:51:09Z</time>
      </trkpt>
      <trkpt lat="45.02925" lon="5.8935">
        <ele>2364.5</ele>
        <time>2022-11-06T12:51:26Z</time>
      </trkpt>
      <trkpt lat="45.02926" lon="5.89346">
        <ele>2364.02</ele>
        <time>2022-11-06T12:51:30Z</time>
      </trkpt>
      <trkpt lat="45.02928" lon="5.89325">
        <ele>2361.14</ele>
        <time>2022-11-06T12:51:45Z</time>
      </trkpt>
      <trkpt lat="45.02926" lon="5.89319">
        <ele>2360.17</ele>
        <time>2022-11-06T12:51:50Z</time>
      </trkpt>
      <trkpt lat="45.02926" lon="5.89315">
        <ele>2358.73</ele>
        <time>2022-11-06T12:52:00Z</time>
      </trkpt>
      <trkpt lat="45.02927" lon="5.89313">
        <ele>2358.73</ele>
        <time>2022-11-06T12:52:01Z</time>
      </trkpt>
      <trkpt lat="45.02927" lon="5.89312">
        <ele>2358.73</ele>
        <time>2022-11-06T12:52:02Z</time>
      </trkpt>
      <trkpt lat="45.02926" lon="5.89307">
        <ele>2358.25</ele>
        <time>2022-11-06T12:52:05Z</time>
      </trkpt>
      <trkpt lat="45.02924" lon="5.89286">
        <ele>2355.37</ele>
        <time>2022-11-06T12:52:19Z</time>
      </trkpt>
      <trkpt lat="45.02929" lon="5.89262">
        <ele>2352.96</ele>
        <time>2022-11-06T12:52:35Z</time>
      </trkpt>
      <trkpt lat="45.02931" lon="5.89259">
        <ele>2352.48</ele>
        <time>2022-11-06T12:52:38Z</time>
      </trkpt>
      <trkpt lat="45.02931" lon="5.89258">
        <ele>2352.48</ele>
        <time>2022-11-06T12:52:39Z</time>
      </trkpt>
      <trkpt lat="45.02935" lon="5.89237">
        <ele>2349.12</ele>
        <time>2022-11-06T12:52:52Z</time>
      </trkpt>
      <trkpt lat="45.02941" lon="5.89214">
        <ele>2346.23</ele>
        <time>2022-11-06T12:53:07Z</time>
      </trkpt>
      <trkpt lat="45.02942" lon="5.89195">
        <ele>2343.35</ele>
        <time>2022-11-06T12:53:20Z</time>
      </trkpt>
      <trkpt lat="45.02944" lon="5.89187">
        <ele>2341.43</ele>
        <time>2022-11-06T12:53:27Z</time>
      </trkpt>
      <trkpt lat="45.02942" lon="5.89168">
        <ele>2338.54</ele>
        <time>2022-11-06T12:53:39Z</time>
      </trkpt>
      <trkpt lat="45.02942" lon="5.89153">
        <ele>2335.18</ele>
        <time>2022-11-06T12:53:51Z</time>
      </trkpt>
      <trkpt lat="45.02943" lon="5.89151">
        <ele>2334.7</ele>
        <time>2022-11-06T12:54:04Z</time>
      </trkpt>
      <trkpt lat="45.02943" lon="5.89151">
        <ele>2335.18</ele>
        <time>2022-11-06T12:54:23Z</time>
      </trkpt>
      <trkpt lat="45.02944" lon="5.8915">
        <ele>2335.18</ele>
        <time>2022-11-06T12:54:51Z</time>
      </trkpt>
      <trkpt lat="45.02944" lon="5.89151">
        <ele>2335.18</ele>
        <time>2022-11-06T12:55:33Z</time>
      </trkpt>
      <trkpt lat="45.02947" lon="5.8915">
        <ele>2334.22</ele>
        <time>2022-11-06T12:55:52Z</time>
      </trkpt>
      <trkpt lat="45.0295" lon="5.89148">
        <ele>2333.74</ele>
        <time>2022-11-06T12:56:16Z</time>
      </trkpt>
      <trkpt lat="45.02961" lon="5.89135">
        <ele>2332.3</ele>
        <time>2022-11-06T12:56:34Z</time>
      </trkpt>
      <trkpt lat="45.02969" lon="5.89125">
        <ele>2330.37</ele>
        <time>2022-11-06T12:56:48Z</time>
      </trkpt>
      <trkpt lat="45.0297" lon="5.89124">
        <ele>2330.37</ele>
        <time>2022-11-06T12:56:49Z</time>
      </trkpt>
      <trkpt lat="45.02977" lon="5.89114">
        <ele>2327.01</ele>
        <time>2022-11-06T12:57:03Z</time>
      </trkpt>
      <trkpt lat="45.02982" lon="5.89105">
        <ele>2324.61</ele>
        <time>2022-11-06T12:57:17Z</time>
      </trkpt>
      <trkpt lat="45.02988" lon="5.89101">
        <ele>2323.16</ele>
        <time>2022-11-06T12:57:27Z</time>
      </trkpt>
      <trkpt lat="45.02994" lon="5.89096">
        <ele>2319.8</ele>
        <time>2022-11-06T12:57:38Z</time>
      </trkpt>
      <trkpt lat="45.02997" lon="5.89086">
        <ele>2318.36</ele>
        <time>2022-11-06T12:57:52Z</time>
      </trkpt>
      <trkpt lat="45.03002" lon="5.8907">
        <ele>2315.47</ele>
        <time>2022-11-06T12:58:08Z</time>
      </trkpt>
      <trkpt lat="45.03005" lon="5.89058">
        <ele>2313.55</ele>
        <time>2022-11-06T12:58:22Z</time>
      </trkpt>
      <trkpt lat="45.03004" lon="5.89049">
        <ele>2312.11</ele>
        <time>2022-11-06T12:58:30Z</time>
      </trkpt>
      <trkpt lat="45.03009" lon="5.89036">
        <ele>2310.19</ele>
        <time>2022-11-06T12:58:45Z</time>
      </trkpt>
      <trkpt lat="45.03012" lon="5.89028">
        <ele>2307.78</ele>
        <time>2022-11-06T12:58:59Z</time>
      </trkpt>
      <trkpt lat="45.03018" lon="5.89022">
        <ele>2305.38</ele>
        <time>2022-11-06T12:59:12Z</time>
      </trkpt>
      <trkpt lat="45.03022" lon="5.89018">
        <ele>2303.46</ele>
        <time>2022-11-06T12:59:25Z</time>
      </trkpt>
      <trkpt lat="45.03028" lon="5.89009">
        <ele>2300.57</ele>
        <time>2022-11-06T12:59:41Z</time>
      </trkpt>
      <trkpt lat="45.03032" lon="5.89001">
        <ele>2297.69</ele>
        <time>2022-11-06T12:59:57Z</time>
      </trkpt>
      <trkpt lat="45.03034" lon="5.88996">
        <ele>2295.77</ele>
        <time>2022-11-06T13:00:10Z</time>
      </trkpt>
      <trkpt lat="45.03038" lon="5.88992">
        <ele>2293.36</ele>
        <time>2022-11-06T13:00:25Z</time>
      </trkpt>
      <trkpt lat="45.03042" lon="5.88982">
        <ele>2290.96</ele>
        <time>2022-11-06T13:00:39Z</time>
      </trkpt>
      <trkpt lat="45.03043" lon="5.88976">
        <ele>2288.56</ele>
        <time>2022-11-06T13:00:53Z</time>
      </trkpt>
      <trkpt lat="45.03045" lon="5.88962">
        <ele>2289.04</ele>
        <time>2022-11-06T13:01:12Z</time>
      </trkpt>
      <trkpt lat="45.03049" lon="5.88949">
        <ele>2289.04</ele>
        <time>2022-11-06T13:01:25Z</time>
      </trkpt>
      <trkpt lat="45.03049" lon="5.88948">
        <ele>2289.04</ele>
        <time>2022-11-06T13:01:26Z</time>
      </trkpt>
      <trkpt lat="45.03056" lon="5.88928">
        <ele>2288.08</ele>
        <time>2022-11-06T13:01:42Z</time>
      </trkpt>
      <trkpt lat="45.03057" lon="5.88911">
        <ele>2287.11</ele>
        <time>2022-11-06T13:01:58Z</time>
      </trkpt>
      <trkpt lat="45.03057" lon="5.88907">
        <ele>2287.11</ele>
        <time>2022-11-06T13:02:13Z</time>
      </trkpt>
      <trkpt lat="45.03057" lon="5.88906">
        <ele>2285.67</ele>
        <time>2022-11-06T13:02:41Z</time>
      </trkpt>
      <trkpt lat="45.03057" lon="5.88905">
        <ele>2285.19</ele>
        <time>2022-11-06T13:03:36Z</time>
      </trkpt>
      <trkpt lat="45.03057" lon="5.88905">
        <ele>2285.19</ele>
        <time>2022-11-06T13:04:23Z</time>
      </trkpt>
      <trkpt lat="45.03059" lon="5.88906">
        <ele>2282.31</ele>
        <time>2022-11-06T13:04:44Z</time>
      </trkpt>
      <trkpt lat="45.03058" lon="5.88905">
        <ele>2285.19</ele>
        <time>2022-11-06T13:04:59Z</time>
      </trkpt>
      <trkpt lat="45.03058" lon="5.88905">
        <ele>2284.23</ele>
        <time>2022-11-06T13:05:19Z</time>
      </trkpt>
      <trkpt lat="45.03057" lon="5.88905">
        <ele>2285.19</ele>
        <time>2022-11-06T13:05:48Z</time>
      </trkpt>
      <trkpt lat="45.03057" lon="5.88904">
        <ele>2284.71</ele>
        <time>2022-11-06T13:06:23Z</time>
      </trkpt>
      <trkpt lat="45.03057" lon="5.88904">
        <ele>2285.19</ele>
        <time>2022-11-06T13:06:40Z</time>
      </trkpt>
      <trkpt lat="45.03058" lon="5.88899">
        <ele>2284.71</ele>
        <time>2022-11-06T13:07:04Z</time>
      </trkpt>
      <trkpt lat="45.03064" lon="5.88893">
        <ele>2284.71</ele>
        <time>2022-11-06T13:07:19Z</time>
      </trkpt>
      <trkpt lat="45.03068" lon="5.88883">
        <ele>2282.31</ele>
        <time>2022-11-06T13:07:28Z</time>
      </trkpt>
      <trkpt lat="45.03068" lon="5.88881">
        <ele>2282.31</ele>
        <time>2022-11-06T13:07:29Z</time>
      </trkpt>
      <trkpt lat="45.03073" lon="5.88859">
        <ele>2280.38</ele>
        <time>2022-11-06T13:07:47Z</time>
      </trkpt>
      <trkpt lat="45.0308" lon="5.8883">
        <ele>2277.5</ele>
        <time>2022-11-06T13:08:07Z</time>
      </trkpt>
      <trkpt lat="45.03087" lon="5.88815">
        <ele>2275.58</ele>
        <time>2022-11-06T13:08:19Z</time>
      </trkpt>
      <trkpt lat="45.03087" lon="5.88813">
        <ele>2275.58</ele>
        <time>2022-11-06T13:08:20Z</time>
      </trkpt>
      <trkpt lat="45.03088" lon="5.88812">
        <ele>2275.1</ele>
        <time>2022-11-06T13:08:21Z</time>
      </trkpt>
      <trkpt lat="45.03089" lon="5.88811">
        <ele>2275.1</ele>
        <time>2022-11-06T13:08:22Z</time>
      </trkpt>
      <trkpt lat="45.0309" lon="5.8881">
        <ele>2274.62</ele>
        <time>2022-11-06T13:08:23Z</time>
      </trkpt>
      <trkpt lat="45.0309" lon="5.88809">
        <ele>2274.62</ele>
        <time>2022-11-06T13:08:24Z</time>
      </trkpt>
      <trkpt lat="45.03098" lon="5.88791">
        <ele>2272.21</ele>
        <time>2022-11-06T13:08:41Z</time>
      </trkpt>
      <trkpt lat="45.03098" lon="5.88788">
        <ele>2271.73</ele>
        <time>2022-11-06T13:08:43Z</time>
      </trkpt>
      <trkpt lat="45.031" lon="5.88783">
        <ele>2270.29</ele>
        <time>2022-11-06T13:08:48Z</time>
      </trkpt>
      <trkpt lat="45.03105" lon="5.88768">
        <ele>2267.41</ele>
        <time>2022-11-06T13:09:01Z</time>
      </trkpt>
      <trkpt lat="45.03108" lon="5.88758">
        <ele>2264.52</ele>
        <time>2022-11-06T13:09:11Z</time>
      </trkpt>
      <trkpt lat="45.0311" lon="5.88746">
        <ele>2261.16</ele>
        <time>2022-11-06T13:09:23Z</time>
      </trkpt>
      <trkpt lat="45.03113" lon="5.88732">
        <ele>2258.27</ele>
        <time>2022-11-06T13:09:36Z</time>
      </trkpt>
      <trkpt lat="45.03115" lon="5.88717">
        <ele>2254.91</ele>
        <time>2022-11-06T13:09:49Z</time>
      </trkpt>
      <trkpt lat="45.03118" lon="5.88705">
        <ele>2252.03</ele>
        <time>2022-11-06T13:10:01Z</time>
      </trkpt>
      <trkpt lat="45.03122" lon="5.88692">
        <ele>2248.66</ele>
        <time>2022-11-06T13:10:14Z</time>
      </trkpt>
      <trkpt lat="45.03126" lon="5.88679">
        <ele>2245.3</ele>
        <time>2022-11-06T13:10:27Z</time>
      </trkpt>
      <trkpt lat="45.03131" lon="5.88667">
        <ele>2241.93</ele>
        <time>2022-11-06T13:10:38Z</time>
      </trkpt>
      <trkpt lat="45.03135" lon="5.88656">
        <ele>2239.05</ele>
        <time>2022-11-06T13:10:48Z</time>
      </trkpt>
      <trkpt lat="45.03137" lon="5.88647">
        <ele>2236.16</ele>
        <time>2022-11-06T13:10:56Z</time>
      </trkpt>
      <trkpt lat="45.0314" lon="5.88637">
        <ele>2232.8</ele>
        <time>2022-11-06T13:11:07Z</time>
      </trkpt>
      <trkpt lat="45.03143" lon="5.88631">
        <ele>2229.92</ele>
        <time>2022-11-06T13:11:20Z</time>
      </trkpt>
      <trkpt lat="45.03149" lon="5.88626">
        <ele>2226.55</ele>
        <time>2022-11-06T13:11:33Z</time>
      </trkpt>
      <trkpt lat="45.03152" lon="5.8862">
        <ele>2224.15</ele>
        <time>2022-11-06T13:11:44Z</time>
      </trkpt>
      <trkpt lat="45.03156" lon="5.88614">
        <ele>2220.78</ele>
        <time>2022-11-06T13:11:57Z</time>
      </trkpt>
      <trkpt lat="45.03158" lon="5.88602">
        <ele>2217.42</ele>
        <time>2022-11-06T13:12:13Z</time>
      </trkpt>
      <trkpt lat="45.03164" lon="5.88604">
        <ele>2215.01</ele>
        <time>2022-11-06T13:12:26Z</time>
      </trkpt>
      <trkpt lat="45.03167" lon="5.88598">
        <ele>2213.09</ele>
        <time>2022-11-06T13:12:39Z</time>
      </trkpt>
      <trkpt lat="45.03171" lon="5.88594">
        <ele>2210.69</ele>
        <time>2022-11-06T13:12:53Z</time>
      </trkpt>
      <trkpt lat="45.0317" lon="5.88588">
        <ele>2209.25</ele>
        <time>2022-11-06T13:13:08Z</time>
      </trkpt>
      <trkpt lat="45.03169" lon="5.88578">
        <ele>2206.84</ele>
        <time>2022-11-06T13:13:25Z</time>
      </trkpt>
      <trkpt lat="45.03168" lon="5.8857">
        <ele>2203.96</ele>
        <time>2022-11-06T13:13:38Z</time>
      </trkpt>
      <trkpt lat="45.03167" lon="5.88565">
        <ele>2201.08</ele>
        <time>2022-11-06T13:13:52Z</time>
      </trkpt>
      <trkpt lat="45.03165" lon="5.88559">
        <ele>2200.11</ele>
        <time>2022-11-06T13:14:06Z</time>
      </trkpt>
      <trkpt lat="45.03168" lon="5.8855">
        <ele>2197.23</ele>
        <time>2022-11-06T13:14:20Z</time>
      </trkpt>
      <trkpt lat="45.03173" lon="5.88548">
        <ele>2194.35</ele>
        <time>2022-11-06T13:14:33Z</time>
      </trkpt>
      <trkpt lat="45.03176" lon="5.8855">
        <ele>2192.42</ele>
        <time>2022-11-06T13:14:48Z</time>
      </trkpt>
      <trkpt lat="45.03176" lon="5.88542">
        <ele>2190.98</ele>
        <time>2022-11-06T13:15:06Z</time>
      </trkpt>
      <trkpt lat="45.03174" lon="5.88535">
        <ele>2189.54</ele>
        <time>2022-11-06T13:15:14Z</time>
      </trkpt>
      <trkpt lat="45.03173" lon="5.8853">
        <ele>2186.66</ele>
        <time>2022-11-06T13:15:27Z</time>
      </trkpt>
      <trkpt lat="45.03182" lon="5.88527">
        <ele>2184.73</ele>
        <time>2022-11-06T13:15:44Z</time>
      </trkpt>
      <trkpt lat="45.03188" lon="5.88528">
        <ele>2182.33</ele>
        <time>2022-11-06T13:16:00Z</time>
      </trkpt>
      <trkpt lat="45.03193" lon="5.88529">
        <ele>2179.93</ele>
        <time>2022-11-06T13:16:15Z</time>
      </trkpt>
      <trkpt lat="45.032" lon="5.88537">
        <ele>2177.52</ele>
        <time>2022-11-06T13:16:27Z</time>
      </trkpt>
      <trkpt lat="45.03205" lon="5.88546">
        <ele>2174.16</ele>
        <time>2022-11-06T13:16:41Z</time>
      </trkpt>
      <trkpt lat="45.03209" lon="5.88547">
        <ele>2172.24</ele>
        <time>2022-11-06T13:16:53Z</time>
      </trkpt>
      <trkpt lat="45.0321" lon="5.88555">
        <ele>2169.83</ele>
        <time>2022-11-06T13:17:10Z</time>
      </trkpt>
      <trkpt lat="45.03214" lon="5.88564">
        <ele>2167.43</ele>
        <time>2022-11-06T13:17:25Z</time>
      </trkpt>
      <trkpt lat="45.03215" lon="5.88569">
        <ele>2165.51</ele>
        <time>2022-11-06T13:17:38Z</time>
      </trkpt>
      <trkpt lat="45.03215" lon="5.88569">
        <ele>2165.03</ele>
        <time>2022-11-06T13:17:58Z</time>
      </trkpt>
      <trkpt lat="45.03214" lon="5.88565">
        <ele>2165.51</ele>
        <time>2022-11-06T13:18:12Z</time>
      </trkpt>
      <trkpt lat="45.03214" lon="5.88564">
        <ele>2165.99</ele>
        <time>2022-11-06T13:18:39Z</time>
      </trkpt>
      <trkpt lat="45.03213" lon="5.88562">
        <ele>2166.47</ele>
        <time>2022-11-06T13:18:57Z</time>
      </trkpt>
      <trkpt lat="45.03213" lon="5.88562">
        <ele>2166.47</ele>
        <time>2022-11-06T13:19:25Z</time>
      </trkpt>
      <trkpt lat="45.03211" lon="5.88558">
        <ele>2166.95</ele>
        <time>2022-11-06T13:19:46Z</time>
      </trkpt>
      <trkpt lat="45.03209" lon="5.88547">
        <ele>2166.95</ele>
        <time>2022-11-06T13:20:02Z</time>
      </trkpt>
      <trkpt lat="45.03209" lon="5.88546">
        <ele>2166.95</ele>
        <time>2022-11-06T13:20:22Z</time>
      </trkpt>
      <trkpt lat="45.03209" lon="5.88546">
        <ele>2171.27</ele>
        <time>2022-11-06T13:20:44Z</time>
      </trkpt>
      <trkpt lat="45.03209" lon="5.88546">
        <ele>2171.27</ele>
        <time>2022-11-06T13:20:45Z</time>
      </trkpt>
      <trkpt lat="45.03206" lon="5.8854">
        <ele>2171.76</ele>
        <time>2022-11-06T13:21:01Z</time>
      </trkpt>
      <trkpt lat="45.03206" lon="5.8854">
        <ele>2172.24</ele>
        <time>2022-11-06T13:21:36Z</time>
      </trkpt>
      <trkpt lat="45.03208" lon="5.88543">
        <ele>2171.76</ele>
        <time>2022-11-06T13:21:59Z</time>
      </trkpt>
      <trkpt lat="45.03211" lon="5.88542">
        <ele>2169.83</ele>
        <time>2022-11-06T13:22:13Z</time>
      </trkpt>
      <trkpt lat="45.03213" lon="5.88537">
        <ele>2168.87</ele>
        <time>2022-11-06T13:22:25Z</time>
      </trkpt>
      <trkpt lat="45.03215" lon="5.88534">
        <ele>2166.95</ele>
        <time>2022-11-06T13:22:40Z</time>
      </trkpt>
      <trkpt lat="45.03216" lon="5.88532">
        <ele>2166.95</ele>
        <time>2022-11-06T13:22:44Z</time>
      </trkpt>
      <trkpt lat="45.03216" lon="5.88523">
        <ele>2164.06</ele>
        <time>2022-11-06T13:22:57Z</time>
      </trkpt>
      <trkpt lat="45.03218" lon="5.88511">
        <ele>2161.18</ele>
        <time>2022-11-06T13:23:12Z</time>
      </trkpt>
      <trkpt lat="45.0322" lon="5.88507">
        <ele>2160.22</ele>
        <time>2022-11-06T13:23:17Z</time>
      </trkpt>
      <trkpt lat="45.03225" lon="5.88505">
        <ele>2157.34</ele>
        <time>2022-11-06T13:23:29Z</time>
      </trkpt>
      <trkpt lat="45.03229" lon="5.88513">
        <ele>2153.97</ele>
        <time>2022-11-06T13:23:42Z</time>
      </trkpt>
      <trkpt lat="45.03232" lon="5.88517">
        <ele>2153.01</ele>
        <time>2022-11-06T13:23:46Z</time>
      </trkpt>
      <trkpt lat="45.03239" lon="5.88521">
        <ele>2149.65</ele>
        <time>2022-11-06T13:23:59Z</time>
      </trkpt>
      <trkpt lat="45.03244" lon="5.88524">
        <ele>2146.76</ele>
        <time>2022-11-06T13:24:09Z</time>
      </trkpt>
      <trkpt lat="45.0325" lon="5.88527">
        <ele>2143.4</ele>
        <time>2022-11-06T13:24:20Z</time>
      </trkpt>
      <trkpt lat="45.03253" lon="5.88533">
        <ele>2140.99</ele>
        <time>2022-11-06T13:24:35Z</time>
      </trkpt>
      <trkpt lat="45.03255" lon="5.88536">
        <ele>2140.03</ele>
        <time>2022-11-06T13:25:00Z</time>
      </trkpt>
      <trkpt lat="45.03253" lon="5.88538">
        <ele>2139.55</ele>
        <time>2022-11-06T13:25:24Z</time>
      </trkpt>
      <trkpt lat="45.03253" lon="5.88539">
        <ele>2138.59</ele>
        <time>2022-11-06T13:25:40Z</time>
      </trkpt>
      <trkpt lat="45.03257" lon="5.88545">
        <ele>2137.15</ele>
        <time>2022-11-06T13:25:56Z</time>
      </trkpt>
      <trkpt lat="45.03256" lon="5.88547">
        <ele>2136.19</ele>
        <time>2022-11-06T13:25:58Z</time>
      </trkpt>
      <trkpt lat="45.03261" lon="5.88558">
        <ele>2133.3</ele>
        <time>2022-11-06T13:26:09Z</time>
      </trkpt>
      <trkpt lat="45.03264" lon="5.88565">
        <ele>2129.94</ele>
        <time>2022-11-06T13:26:23Z</time>
      </trkpt>
      <trkpt lat="45.03265" lon="5.88565">
        <ele>2128.5</ele>
        <time>2022-11-06T13:27:04Z</time>
      </trkpt>
      <trkpt lat="45.03264" lon="5.88568">
        <ele>2128.02</ele>
        <time>2022-11-06T13:27:22Z</time>
      </trkpt>
      <trkpt lat="45.03266" lon="5.88571">
        <ele>2126.57</ele>
        <time>2022-11-06T13:27:42Z</time>
      </trkpt>
      <trkpt lat="45.03267" lon="5.88571">
        <ele>2126.09</ele>
        <time>2022-11-06T13:28:05Z</time>
      </trkpt>
      <trkpt lat="45.03268" lon="5.88573">
        <ele>2125.61</ele>
        <time>2022-11-06T13:28:17Z</time>
      </trkpt>
      <trkpt lat="45.03267" lon="5.88576">
        <ele>2126.09</ele>
        <time>2022-11-06T13:28:31Z</time>
      </trkpt>
      <trkpt lat="45.03266" lon="5.88578">
        <ele>2128.02</ele>
        <time>2022-11-06T13:28:47Z</time>
      </trkpt>
      <trkpt lat="45.03265" lon="5.88583">
        <ele>2128.98</ele>
        <time>2022-11-06T13:29:10Z</time>
      </trkpt>
      <trkpt lat="45.03264" lon="5.88588">
        <ele>2129.94</ele>
        <time>2022-11-06T13:29:25Z</time>
      </trkpt>
      <trkpt lat="45.03266" lon="5.88591">
        <ele>2129.46</ele>
        <time>2022-11-06T13:29:40Z</time>
      </trkpt>
      <trkpt lat="45.03271" lon="5.88595">
        <ele>2128.5</ele>
        <time>2022-11-06T13:29:53Z</time>
      </trkpt>
      <trkpt lat="45.0327" lon="5.88601">
        <ele>2128.02</ele>
        <time>2022-11-06T13:30:06Z</time>
      </trkpt>
      <trkpt lat="45.03274" lon="5.88612">
        <ele>2128.98</ele>
        <time>2022-11-06T13:30:20Z</time>
      </trkpt>
      <trkpt lat="45.03276" lon="5.88623">
        <ele>2128.98</ele>
        <time>2022-11-06T13:30:34Z</time>
      </trkpt>
      <trkpt lat="45.03276" lon="5.88624">
        <ele>2129.94</ele>
        <time>2022-11-06T13:30:36Z</time>
      </trkpt>
      <trkpt lat="45.03275" lon="5.88635">
        <ele>2129.94</ele>
        <time>2022-11-06T13:30:50Z</time>
      </trkpt>
      <trkpt lat="45.03276" lon="5.88645">
        <ele>2129.94</ele>
        <time>2022-11-06T13:31:05Z</time>
      </trkpt>
      <trkpt lat="45.0328" lon="5.88659">
        <ele>2129.94</ele>
        <time>2022-11-06T13:31:23Z</time>
      </trkpt>
      <trkpt lat="45.03282" lon="5.88663">
        <ele>2132.82</ele>
        <time>2022-11-06T13:31:37Z</time>
      </trkpt>
      <trkpt lat="45.03282" lon="5.88666">
        <ele>2133.3</ele>
        <time>2022-11-06T13:31:54Z</time>
      </trkpt>
      <trkpt lat="45.03282" lon="5.88676">
        <ele>2135.23</ele>
        <time>2022-11-06T13:32:10Z</time>
      </trkpt>
      <trkpt lat="45.03287" lon="5.88686">
        <ele>2136.19</ele>
        <time>2022-11-06T13:32:26Z</time>
      </trkpt>
      <trkpt lat="45.03293" lon="5.88687">
        <ele>2135.23</ele>
        <time>2022-11-06T13:32:39Z</time>
      </trkpt>
      <trkpt lat="45.03294" lon="5.88688">
        <ele>2135.23</ele>
        <time>2022-11-06T13:32:40Z</time>
      </trkpt>
      <trkpt lat="45.03295" lon="5.8869">
        <ele>2135.23</ele>
        <time>2022-11-06T13:32:41Z</time>
      </trkpt>
      <trkpt lat="45.03296" lon="5.88691">
        <ele>2135.23</ele>
        <time>2022-11-06T13:32:42Z</time>
      </trkpt>
      <trkpt lat="45.03297" lon="5.88692">
        <ele>2135.23</ele>
        <time>2022-11-06T13:32:43Z</time>
      </trkpt>
      <trkpt lat="45.03297" lon="5.88693">
        <ele>2135.23</ele>
        <time>2022-11-06T13:32:44Z</time>
      </trkpt>
      <trkpt lat="45.03299" lon="5.88694">
        <ele>2134.74</ele>
        <time>2022-11-06T13:32:46Z</time>
      </trkpt>
      <trkpt lat="45.033" lon="5.88695">
        <ele>2134.74</ele>
        <time>2022-11-06T13:32:47Z</time>
      </trkpt>
      <trkpt lat="45.03303" lon="5.88699">
        <ele>2134.26</ele>
        <time>2022-11-06T13:32:52Z</time>
      </trkpt>
      <trkpt lat="45.03304" lon="5.887">
        <ele>2134.26</ele>
        <time>2022-11-06T13:32:53Z</time>
      </trkpt>
      <trkpt lat="45.0331" lon="5.88702">
        <ele>2134.26</ele>
        <time>2022-11-06T13:33:05Z</time>
      </trkpt>
      <trkpt lat="45.03318" lon="5.88704">
        <ele>2134.74</ele>
        <time>2022-11-06T13:33:18Z</time>
      </trkpt>
      <trkpt lat="45.03325" lon="5.88707">
        <ele>2133.3</ele>
        <time>2022-11-06T13:33:29Z</time>
      </trkpt>
      <trkpt lat="45.03332" lon="5.88714">
        <ele>2132.34</ele>
        <time>2022-11-06T13:33:38Z</time>
      </trkpt>
      <trkpt lat="45.03336" lon="5.88715">
        <ele>2130.9</ele>
        <time>2022-11-06T13:33:52Z</time>
      </trkpt>
      <trkpt lat="45.03338" lon="5.88716">
        <ele>2130.42</ele>
        <time>2022-11-06T13:34:19Z</time>
      </trkpt>
      <trkpt lat="45.0334" lon="5.88723">
        <ele>2130.42</ele>
        <time>2022-11-06T13:34:33Z</time>
      </trkpt>
      <trkpt lat="45.03346" lon="5.88722">
        <ele>2128.98</ele>
        <time>2022-11-06T13:34:47Z</time>
      </trkpt>
      <trkpt lat="45.03351" lon="5.88725">
        <ele>2126.57</ele>
        <time>2022-11-06T13:35:01Z</time>
      </trkpt>
      <trkpt lat="45.0336" lon="5.88724">
        <ele>2124.17</ele>
        <time>2022-11-06T13:35:18Z</time>
      </trkpt>
      <trkpt lat="45.03365" lon="5.88733">
        <ele>2121.77</ele>
        <time>2022-11-06T13:35:28Z</time>
      </trkpt>
      <trkpt lat="45.03375" lon="5.8875">
        <ele>2118.4</ele>
        <time>2022-11-06T13:35:42Z</time>
      </trkpt>
      <trkpt lat="45.03375" lon="5.88751">
        <ele>2117.92</ele>
        <time>2022-11-06T13:35:43Z</time>
      </trkpt>
      <trkpt lat="45.03383" lon="5.88758">
        <ele>2115.04</ele>
        <time>2022-11-06T13:35:54Z</time>
      </trkpt>
      <trkpt lat="45.03384" lon="5.88759">
        <ele>2115.04</ele>
        <time>2022-11-06T13:35:55Z</time>
      </trkpt>
      <trkpt lat="45.03398" lon="5.88768">
        <ele>2113.12</ele>
        <time>2022-11-06T13:36:11Z</time>
      </trkpt>
      <trkpt lat="45.03415" lon="5.88773">
        <ele>2110.23</ele>
        <time>2022-11-06T13:36:28Z</time>
      </trkpt>
      <trkpt lat="45.03417" lon="5.88773">
        <ele>2110.23</ele>
        <time>2022-11-06T13:36:30Z</time>
      </trkpt>
      <trkpt lat="45.03418" lon="5.88775">
        <ele>2109.75</ele>
        <time>2022-11-06T13:36:31Z</time>
      </trkpt>
      <trkpt lat="45.03428" lon="5.88794">
        <ele>2107.35</ele>
        <time>2022-11-06T13:36:48Z</time>
      </trkpt>
      <trkpt lat="45.0343" lon="5.88796">
        <ele>2106.87</ele>
        <time>2022-11-06T13:36:51Z</time>
      </trkpt>
      <trkpt lat="45.03433" lon="5.88798">
        <ele>2106.87</ele>
        <time>2022-11-06T13:36:54Z</time>
      </trkpt>
      <trkpt lat="45.03436" lon="5.888">
        <ele>2105.42</ele>
        <time>2022-11-06T13:37:09Z</time>
      </trkpt>
      <trkpt lat="45.03436" lon="5.888">
        <ele>2104.46</ele>
        <time>2022-11-06T13:37:44Z</time>
      </trkpt>
      <trkpt lat="45.03438" lon="5.88801">
        <ele>2104.94</ele>
        <time>2022-11-06T13:38:13Z</time>
      </trkpt>
      <trkpt lat="45.03448" lon="5.88801">
        <ele>2104.46</ele>
        <time>2022-11-06T13:38:27Z</time>
      </trkpt>
      <trkpt lat="45.0345" lon="5.88802">
        <ele>2104.94</ele>
        <time>2022-11-06T13:38:30Z</time>
      </trkpt>
      <trkpt lat="45.03452" lon="5.88802">
        <ele>2104.94</ele>
        <time>2022-11-06T13:38:31Z</time>
      </trkpt>
      <trkpt lat="45.03459" lon="5.888">
        <ele>2104.46</ele>
        <time>2022-11-06T13:38:43Z</time>
      </trkpt>
      <trkpt lat="45.03468" lon="5.88798">
        <ele>2104.46</ele>
        <time>2022-11-06T13:38:57Z</time>
      </trkpt>
      <trkpt lat="45.03472" lon="5.88805">
        <ele>2103.98</ele>
        <time>2022-11-06T13:39:12Z</time>
      </trkpt>
      <trkpt lat="45.03478" lon="5.88806">
        <ele>2104.46</ele>
        <time>2022-11-06T13:39:25Z</time>
      </trkpt>
      <trkpt lat="45.03479" lon="5.88805">
        <ele>2104.46</ele>
        <time>2022-11-06T13:39:26Z</time>
      </trkpt>
      <trkpt lat="45.0349" lon="5.88809">
        <ele>2105.91</ele>
        <time>2022-11-06T13:39:42Z</time>
      </trkpt>
      <trkpt lat="45.03494" lon="5.88809">
        <ele>2107.35</ele>
        <time>2022-11-06T13:40:01Z</time>
      </trkpt>
      <trkpt lat="45.03498" lon="5.88809">
        <ele>2107.83</ele>
        <time>2022-11-06T13:40:05Z</time>
      </trkpt>
      <trkpt lat="45.03501" lon="5.88812">
        <ele>2108.31</ele>
        <time>2022-11-06T13:40:09Z</time>
      </trkpt>
      <trkpt lat="45.03506" lon="5.88815">
        <ele>2109.75</ele>
        <time>2022-11-06T13:40:24Z</time>
      </trkpt>
      <trkpt lat="45.03507" lon="5.88815">
        <ele>2110.23</ele>
        <time>2022-11-06T13:40:41Z</time>
      </trkpt>
      <trkpt lat="45.03508" lon="5.88814">
        <ele>2110.23</ele>
        <time>2022-11-06T13:40:58Z</time>
      </trkpt>
      <trkpt lat="45.0351" lon="5.88816">
        <ele>2110.23</ele>
        <time>2022-11-06T13:41:10Z</time>
      </trkpt>
      <trkpt lat="45.03509" lon="5.88816">
        <ele>2109.75</ele>
        <time>2022-11-06T13:41:39Z</time>
      </trkpt>
      <trkpt lat="45.03509" lon="5.88817">
        <ele>2109.75</ele>
        <time>2022-11-06T13:42:09Z</time>
      </trkpt>
      <trkpt lat="45.03509" lon="5.88817">
        <ele>2109.75</ele>
        <time>2022-11-06T13:42:26Z</time>
      </trkpt>
      <trkpt lat="45.03509" lon="5.88816">
        <ele>2109.75</ele>
        <time>2022-11-06T13:43:05Z</time>
      </trkpt>
      <trkpt lat="45.03509" lon="5.88815">
        <ele>2109.75</ele>
        <time>2022-11-06T13:44:13Z</time>
      </trkpt>
      <trkpt lat="45.03509" lon="5.88814">
        <ele>2109.75</ele>
        <time>2022-11-06T13:45:27Z</time>
      </trkpt>
      <trkpt lat="45.03509" lon="5.88815">
        <ele>2109.75</ele>
        <time>2022-11-06T13:46:50Z</time>
      </trkpt>
      <trkpt lat="45.0351" lon="5.88816">
        <ele>2109.75</ele>
        <time>2022-11-06T13:47:27Z</time>
      </trkpt>
      <trkpt lat="45.03506" lon="5.88814">
        <ele>2109.75</ele>
        <time>2022-11-06T13:47:41Z</time>
      </trkpt>
      <trkpt lat="45.03507" lon="5.88813">
        <ele>2109.75</ele>
        <time>2022-11-06T13:47:54Z</time>
      </trkpt>
      <trkpt lat="45.03507" lon="5.88814">
        <ele>2109.75</ele>
        <time>2022-11-06T13:48:21Z</time>
      </trkpt>
      <trkpt lat="45.03508" lon="5.88814">
        <ele>2109.75</ele>
        <time>2022-11-06T13:48:32Z</time>
      </trkpt>
      <trkpt lat="45.03507" lon="5.88815">
        <ele>2109.75</ele>
        <time>2022-11-06T13:48:50Z</time>
      </trkpt>
      <trkpt lat="45.03507" lon="5.88814">
        <ele>2109.75</ele>
        <time>2022-11-06T13:49:30Z</time>
      </trkpt>
      <trkpt lat="45.03507" lon="5.88814">
        <ele>2109.75</ele>
        <time>2022-11-06T13:50:07Z</time>
      </trkpt>
      <trkpt lat="45.03507" lon="5.88814">
        <ele>2109.75</ele>
        <time>2022-11-06T13:50:36Z</time>
      </trkpt>
      <trkpt lat="45.03507" lon="5.88814">
        <ele>2109.75</ele>
        <time>2022-11-06T13:54:00Z</time>
      </trkpt>
      <trkpt lat="45.03509" lon="5.88814">
        <ele>2109.75</ele>
        <time>2022-11-06T13:54:14Z</time>
      </trkpt>
      <trkpt lat="45.03514" lon="5.88818">
        <ele>2109.75</ele>
        <time>2022-11-06T13:54:23Z</time>
      </trkpt>
      <trkpt lat="45.0352" lon="5.88832">
        <ele>2109.75</ele>
        <time>2022-11-06T13:54:40Z</time>
      </trkpt>
      <trkpt lat="45.03529" lon="5.8884">
        <ele>2111.67</ele>
        <time>2022-11-06T13:54:56Z</time>
      </trkpt>
      <trkpt lat="45.03534" lon="5.88846">
        <ele>2114.56</ele>
        <time>2022-11-06T13:55:11Z</time>
      </trkpt>
      <trkpt lat="45.0354" lon="5.88852">
        <ele>2116.96</ele>
        <time>2022-11-06T13:55:25Z</time>
      </trkpt>
      <trkpt lat="45.03548" lon="5.88859">
        <ele>2118.88</ele>
        <time>2022-11-06T13:55:40Z</time>
      </trkpt>
      <trkpt lat="45.0355" lon="5.88867">
        <ele>2120.81</ele>
        <time>2022-11-06T13:55:57Z</time>
      </trkpt>
      <trkpt lat="45.03551" lon="5.88876">
        <ele>2123.69</ele>
        <time>2022-11-06T13:56:13Z</time>
      </trkpt>
      <trkpt lat="45.03551" lon="5.88885">
        <ele>2125.13</ele>
        <time>2022-11-06T13:56:25Z</time>
      </trkpt>
      <trkpt lat="45.03554" lon="5.88902">
        <ele>2127.53</ele>
        <time>2022-11-06T13:56:43Z</time>
      </trkpt>
      <trkpt lat="45.03558" lon="5.88914">
        <ele>2128.5</ele>
        <time>2022-11-06T13:56:56Z</time>
      </trkpt>
      <trkpt lat="45.03563" lon="5.88934">
        <ele>2128.02</ele>
        <time>2022-11-06T13:57:13Z</time>
      </trkpt>
      <trkpt lat="45.03568" lon="5.88945">
        <ele>2127.53</ele>
        <time>2022-11-06T13:57:23Z</time>
      </trkpt>
      <trkpt lat="45.03579" lon="5.88958">
        <ele>2128.98</ele>
        <time>2022-11-06T13:57:40Z</time>
      </trkpt>
      <trkpt lat="45.03586" lon="5.88969">
        <ele>2130.42</ele>
        <time>2022-11-06T13:57:58Z</time>
      </trkpt>
      <trkpt lat="45.03592" lon="5.88967">
        <ele>2132.82</ele>
        <time>2022-11-06T13:58:14Z</time>
      </trkpt>
      <trkpt lat="45.03593" lon="5.88968">
        <ele>2132.82</ele>
        <time>2022-11-06T13:58:37Z</time>
      </trkpt>
      <trkpt lat="45.03593" lon="5.88967">
        <ele>2133.3</ele>
        <time>2022-11-06T13:58:52Z</time>
      </trkpt>
      <trkpt lat="45.03592" lon="5.88966">
        <ele>2133.3</ele>
        <time>2022-11-06T13:59:04Z</time>
      </trkpt>
      <trkpt lat="45.03591" lon="5.88966">
        <ele>2133.3</ele>
        <time>2022-11-06T13:59:17Z</time>
      </trkpt>
      <trkpt lat="45.03592" lon="5.88967">
        <ele>2132.82</ele>
        <time>2022-11-06T13:59:44Z</time>
      </trkpt>
      <trkpt lat="45.03591" lon="5.88966">
        <ele>2132.82</ele>
        <time>2022-11-06T13:59:59Z</time>
      </trkpt>
      <trkpt lat="45.03592" lon="5.88967">
        <ele>2132.82</ele>
        <time>2022-11-06T14:00:23Z</time>
      </trkpt>
      <trkpt lat="45.03592" lon="5.88966">
        <ele>2132.82</ele>
        <time>2022-11-06T14:00:33Z</time>
      </trkpt>
      <trkpt lat="45.03592" lon="5.88965">
        <ele>2132.82</ele>
        <time>2022-11-06T14:00:53Z</time>
      </trkpt>
      <trkpt lat="45.03592" lon="5.88965">
        <ele>2132.82</ele>
        <time>2022-11-06T14:01:40Z</time>
      </trkpt>
      <trkpt lat="45.03592" lon="5.88965">
        <ele>2132.82</ele>
        <time>2022-11-06T14:04:26Z</time>
      </trkpt>
      <trkpt lat="45.03592" lon="5.88967">
        <ele>2132.82</ele>
        <time>2022-11-06T14:06:05Z</time>
      </trkpt>
      <trkpt lat="45.0359" lon="5.88966">
        <ele>2132.82</ele>
        <time>2022-11-06T14:06:21Z</time>
      </trkpt>
      <trkpt lat="45.03589" lon="5.88968">
        <ele>2132.82</ele>
        <time>2022-11-06T14:06:32Z</time>
      </trkpt>
      <trkpt lat="45.03589" lon="5.88968">
        <ele>2132.82</ele>
        <time>2022-11-06T14:06:58Z</time>
      </trkpt>
      <trkpt lat="45.03588" lon="5.88962">
        <ele>2132.82</ele>
        <time>2022-11-06T14:07:13Z</time>
      </trkpt>
      <trkpt lat="45.03582" lon="5.88948">
        <ele>2132.34</ele>
        <time>2022-11-06T14:07:28Z</time>
      </trkpt>
      <trkpt lat="45.03589" lon="5.88945">
        <ele>2129.46</ele>
        <time>2022-11-06T14:07:42Z</time>
      </trkpt>
      <trkpt lat="45.03593" lon="5.88941">
        <ele>2128.02</ele>
        <time>2022-11-06T14:07:49Z</time>
      </trkpt>
      <trkpt lat="45.03594" lon="5.88939">
        <ele>2127.53</ele>
        <time>2022-11-06T14:07:50Z</time>
      </trkpt>
      <trkpt lat="45.03594" lon="5.88937">
        <ele>2127.53</ele>
        <time>2022-11-06T14:07:51Z</time>
      </trkpt>
      <trkpt lat="45.03603" lon="5.88927">
        <ele>2126.09</ele>
        <time>2022-11-06T14:08:05Z</time>
      </trkpt>
      <trkpt lat="45.03605" lon="5.88925">
        <ele>2126.09</ele>
        <time>2022-11-06T14:08:08Z</time>
      </trkpt>
      <trkpt lat="45.03614" lon="5.88922">
        <ele>2126.09</ele>
        <time>2022-11-06T14:08:19Z</time>
      </trkpt>
      <trkpt lat="45.03629" lon="5.88921">
        <ele>2126.09</ele>
        <time>2022-11-06T14:08:36Z</time>
      </trkpt>
      <trkpt lat="45.03637" lon="5.88917">
        <ele>2124.17</ele>
        <time>2022-11-06T14:08:48Z</time>
      </trkpt>
      <trkpt lat="45.03644" lon="5.88912">
        <ele>2122.73</ele>
        <time>2022-11-06T14:08:58Z</time>
      </trkpt>
      <trkpt lat="45.03651" lon="5.88901">
        <ele>2120.81</ele>
        <time>2022-11-06T14:09:13Z</time>
      </trkpt>
      <trkpt lat="45.03651" lon="5.88894">
        <ele>2118.4</ele>
        <time>2022-11-06T14:09:25Z</time>
      </trkpt>
      <trkpt lat="45.03659" lon="5.88883">
        <ele>2116.48</ele>
        <time>2022-11-06T14:09:41Z</time>
      </trkpt>
      <trkpt lat="45.03664" lon="5.88878">
        <ele>2116.48</ele>
        <time>2022-11-06T14:09:47Z</time>
      </trkpt>
      <trkpt lat="45.03673" lon="5.88867">
        <ele>2115.04</ele>
        <time>2022-11-06T14:10:00Z</time>
      </trkpt>
      <trkpt lat="45.03684" lon="5.88855">
        <ele>2115.04</ele>
        <time>2022-11-06T14:10:17Z</time>
      </trkpt>
      <trkpt lat="45.03687" lon="5.88842">
        <ele>2115.04</ele>
        <time>2022-11-06T14:10:29Z</time>
      </trkpt>
      <trkpt lat="45.03687" lon="5.8884">
        <ele>2115.04</ele>
        <time>2022-11-06T14:10:30Z</time>
      </trkpt>
      <trkpt lat="45.03686" lon="5.88839">
        <ele>2115.04</ele>
        <time>2022-11-06T14:10:31Z</time>
      </trkpt>
      <trkpt lat="45.03684" lon="5.8883">
        <ele>2115.04</ele>
        <time>2022-11-06T14:10:46Z</time>
      </trkpt>
      <trkpt lat="45.03686" lon="5.88828">
        <ele>2115.04</ele>
        <time>2022-11-06T14:10:50Z</time>
      </trkpt>
      <trkpt lat="45.03694" lon="5.88818">
        <ele>2115.04</ele>
        <time>2022-11-06T14:11:04Z</time>
      </trkpt>
      <trkpt lat="45.03695" lon="5.88815">
        <ele>2114.08</ele>
        <time>2022-11-06T14:11:19Z</time>
      </trkpt>
      <trkpt lat="45.03702" lon="5.88813">
        <ele>2114.08</ele>
        <time>2022-11-06T14:11:31Z</time>
      </trkpt>
      <trkpt lat="45.03705" lon="5.88809">
        <ele>2115.04</ele>
        <time>2022-11-06T14:11:37Z</time>
      </trkpt>
      <trkpt lat="45.03712" lon="5.888">
        <ele>2116.96</ele>
        <time>2022-11-06T14:11:51Z</time>
      </trkpt>
      <trkpt lat="45.03718" lon="5.88792">
        <ele>2117.92</ele>
        <time>2022-11-06T14:12:02Z</time>
      </trkpt>
      <trkpt lat="45.03723" lon="5.88782">
        <ele>2119.36</ele>
        <time>2022-11-06T14:12:16Z</time>
      </trkpt>
      <trkpt lat="45.03729" lon="5.88773">
        <ele>2121.29</ele>
        <time>2022-11-06T14:12:33Z</time>
      </trkpt>
      <trkpt lat="45.03727" lon="5.88762">
        <ele>2122.25</ele>
        <time>2022-11-06T14:12:47Z</time>
      </trkpt>
      <trkpt lat="45.03727" lon="5.88761">
        <ele>2122.25</ele>
        <time>2022-11-06T14:12:48Z</time>
      </trkpt>
      <trkpt lat="45.03728" lon="5.88753">
        <ele>2120.81</ele>
        <time>2022-11-06T14:12:58Z</time>
      </trkpt>
      <trkpt lat="45.03731" lon="5.88746">
        <ele>2120.81</ele>
        <time>2022-11-06T14:13:05Z</time>
      </trkpt>
      <trkpt lat="45.03735" lon="5.8874">
        <ele>2121.29</ele>
        <time>2022-11-06T14:13:19Z</time>
      </trkpt>
      <trkpt lat="45.03735" lon="5.88741">
        <ele>2119.84</ele>
        <time>2022-11-06T14:13:52Z</time>
      </trkpt>
      <trkpt lat="45.03735" lon="5.88739">
        <ele>2120.32</ele>
        <time>2022-11-06T14:14:08Z</time>
      </trkpt>
      <trkpt lat="45.03741" lon="5.88725">
        <ele>2122.73</ele>
        <time>2022-11-06T14:14:25Z</time>
      </trkpt>
      <trkpt lat="45.03746" lon="5.88717">
        <ele>2124.17</ele>
        <time>2022-11-06T14:14:36Z</time>
      </trkpt>
      <trkpt lat="45.03746" lon="5.88715">
        <ele>2124.17</ele>
        <time>2022-11-06T14:14:37Z</time>
      </trkpt>
      <trkpt lat="45.03747" lon="5.88714">
        <ele>2124.17</ele>
        <time>2022-11-06T14:14:38Z</time>
      </trkpt>
      <trkpt lat="45.03748" lon="5.88713">
        <ele>2124.17</ele>
        <time>2022-11-06T14:14:39Z</time>
      </trkpt>
      <trkpt lat="45.03749" lon="5.88712">
        <ele>2124.17</ele>
        <time>2022-11-06T14:14:40Z</time>
      </trkpt>
      <trkpt lat="45.03757" lon="5.88705">
        <ele>2123.69</ele>
        <time>2022-11-06T14:14:55Z</time>
      </trkpt>
      <trkpt lat="45.0376" lon="5.88703">
        <ele>2123.21</ele>
        <time>2022-11-06T14:15:00Z</time>
      </trkpt>
      <trkpt lat="45.03762" lon="5.88702">
        <ele>2123.21</ele>
        <time>2022-11-06T14:15:03Z</time>
      </trkpt>
      <trkpt lat="45.03766" lon="5.88702">
        <ele>2122.25</ele>
        <time>2022-11-06T14:15:07Z</time>
      </trkpt>
      <trkpt lat="45.03772" lon="5.88696">
        <ele>2121.29</ele>
        <time>2022-11-06T14:15:20Z</time>
      </trkpt>
      <trkpt lat="45.0377" lon="5.88682">
        <ele>2123.21</ele>
        <time>2022-11-06T14:15:35Z</time>
      </trkpt>
      <trkpt lat="45.03767" lon="5.88672">
        <ele>2123.69</ele>
        <time>2022-11-06T14:15:49Z</time>
      </trkpt>
      <trkpt lat="45.03768" lon="5.88659">
        <ele>2124.17</ele>
        <time>2022-11-06T14:16:04Z</time>
      </trkpt>
      <trkpt lat="45.03774" lon="5.88649">
        <ele>2126.09</ele>
        <time>2022-11-06T14:16:17Z</time>
      </trkpt>
      <trkpt lat="45.03777" lon="5.88636">
        <ele>2125.61</ele>
        <time>2022-11-06T14:16:30Z</time>
      </trkpt>
      <trkpt lat="45.03779" lon="5.88624">
        <ele>2126.57</ele>
        <time>2022-11-06T14:16:45Z</time>
      </trkpt>
      <trkpt lat="45.03783" lon="5.88612">
        <ele>2128.02</ele>
        <time>2022-11-06T14:17:01Z</time>
      </trkpt>
      <trkpt lat="45.03784" lon="5.88604">
        <ele>2128.98</ele>
        <time>2022-11-06T14:17:08Z</time>
      </trkpt>
      <trkpt lat="45.03785" lon="5.88598">
        <ele>2129.94</ele>
        <time>2022-11-06T14:17:24Z</time>
      </trkpt>
      <trkpt lat="45.03789" lon="5.88588">
        <ele>2131.38</ele>
        <time>2022-11-06T14:17:40Z</time>
      </trkpt>
      <trkpt lat="45.03789" lon="5.88578">
        <ele>2133.3</ele>
        <time>2022-11-06T14:17:53Z</time>
      </trkpt>
      <trkpt lat="45.03789" lon="5.88576">
        <ele>2133.78</ele>
        <time>2022-11-06T14:17:54Z</time>
      </trkpt>
      <trkpt lat="45.03792" lon="5.88562">
        <ele>2135.71</ele>
        <time>2022-11-06T14:18:11Z</time>
      </trkpt>
      <trkpt lat="45.03794" lon="5.88549">
        <ele>2137.63</ele>
        <time>2022-11-06T14:18:25Z</time>
      </trkpt>
      <trkpt lat="45.03794" lon="5.88528">
        <ele>2139.55</ele>
        <time>2022-11-06T14:18:43Z</time>
      </trkpt>
      <trkpt lat="45.03792" lon="5.88513">
        <ele>2141.47</ele>
        <time>2022-11-06T14:19:00Z</time>
      </trkpt>
      <trkpt lat="45.03792" lon="5.88504">
        <ele>2141.95</ele>
        <time>2022-11-06T14:19:07Z</time>
      </trkpt>
      <trkpt lat="45.03792" lon="5.88503">
        <ele>2142.44</ele>
        <time>2022-11-06T14:19:08Z</time>
      </trkpt>
      <trkpt lat="45.03792" lon="5.88501">
        <ele>2142.44</ele>
        <time>2022-11-06T14:19:09Z</time>
      </trkpt>
      <trkpt lat="45.03793" lon="5.88474">
        <ele>2142.92</ele>
        <time>2022-11-06T14:19:26Z</time>
      </trkpt>
      <trkpt lat="45.03794" lon="5.88444">
        <ele>2143.88</ele>
        <time>2022-11-06T14:19:44Z</time>
      </trkpt>
      <trkpt lat="45.03794" lon="5.88414">
        <ele>2142.44</ele>
        <time>2022-11-06T14:20:01Z</time>
      </trkpt>
      <trkpt lat="45.03792" lon="5.8838">
        <ele>2140.99</ele>
        <time>2022-11-06T14:20:21Z</time>
      </trkpt>
      <trkpt lat="45.03791" lon="5.88355">
        <ele>2140.51</ele>
        <time>2022-11-06T14:20:38Z</time>
      </trkpt>
      <trkpt lat="45.03791" lon="5.88342">
        <ele>2140.03</ele>
        <time>2022-11-06T14:20:49Z</time>
      </trkpt>
      <trkpt lat="45.03791" lon="5.8834">
        <ele>2140.03</ele>
        <time>2022-11-06T14:20:50Z</time>
      </trkpt>
      <trkpt lat="45.03791" lon="5.8833">
        <ele>2139.07</ele>
        <time>2022-11-06T14:21:09Z</time>
      </trkpt>
      <trkpt lat="45.03791" lon="5.88325">
        <ele>2139.55</ele>
        <time>2022-11-06T14:21:15Z</time>
      </trkpt>
      <trkpt lat="45.03786" lon="5.88301">
        <ele>2139.07</ele>
        <time>2022-11-06T14:21:34Z</time>
      </trkpt>
      <trkpt lat="45.03786" lon="5.88299">
        <ele>2139.07</ele>
        <time>2022-11-06T14:21:36Z</time>
      </trkpt>
      <trkpt lat="45.03785" lon="5.88279">
        <ele>2138.59</ele>
        <time>2022-11-06T14:21:52Z</time>
      </trkpt>
      <trkpt lat="45.03787" lon="5.88256">
        <ele>2138.11</ele>
        <time>2022-11-06T14:22:09Z</time>
      </trkpt>
      <trkpt lat="45.03791" lon="5.88235">
        <ele>2138.11</ele>
        <time>2022-11-06T14:22:27Z</time>
      </trkpt>
      <trkpt lat="45.03796" lon="5.88209">
        <ele>2136.67</ele>
        <time>2022-11-06T14:22:47Z</time>
      </trkpt>
      <trkpt lat="45.03795" lon="5.88203">
        <ele>2135.23</ele>
        <time>2022-11-06T14:23:03Z</time>
      </trkpt>
      <trkpt lat="45.03797" lon="5.88188">
        <ele>2134.74</ele>
        <time>2022-11-06T14:23:16Z</time>
      </trkpt>
      <trkpt lat="45.03796" lon="5.8818">
        <ele>2132.82</ele>
        <time>2022-11-06T14:23:30Z</time>
      </trkpt>
      <trkpt lat="45.03797" lon="5.88175">
        <ele>2132.82</ele>
        <time>2022-11-06T14:23:42Z</time>
      </trkpt>
      <trkpt lat="45.03799" lon="5.88167">
        <ele>2132.34</ele>
        <time>2022-11-06T14:23:55Z</time>
      </trkpt>
      <trkpt lat="45.03799" lon="5.88164">
        <ele>2132.34</ele>
        <time>2022-11-06T14:23:57Z</time>
      </trkpt>
      <trkpt lat="45.03799" lon="5.88145">
        <ele>2130.9</ele>
        <time>2022-11-06T14:24:12Z</time>
      </trkpt>
      <trkpt lat="45.03797" lon="5.8812">
        <ele>2128.02</ele>
        <time>2022-11-06T14:24:28Z</time>
      </trkpt>
      <trkpt lat="45.03797" lon="5.88113">
        <ele>2127.05</ele>
        <time>2022-11-06T14:24:33Z</time>
      </trkpt>
      <trkpt lat="45.03797" lon="5.88111">
        <ele>2127.05</ele>
        <time>2022-11-06T14:24:34Z</time>
      </trkpt>
      <trkpt lat="45.03797" lon="5.8811">
        <ele>2126.57</ele>
        <time>2022-11-06T14:24:35Z</time>
      </trkpt>
      <trkpt lat="45.03802" lon="5.88097">
        <ele>2124.17</ele>
        <time>2022-11-06T14:24:45Z</time>
      </trkpt>
      <trkpt lat="45.038" lon="5.88088">
        <ele>2123.21</ele>
        <time>2022-11-06T14:24:52Z</time>
      </trkpt>
      <trkpt lat="45.03799" lon="5.88088">
        <ele>2123.21</ele>
        <time>2022-11-06T14:24:53Z</time>
      </trkpt>
      <trkpt lat="45.03799" lon="5.88083">
        <ele>2121.77</ele>
        <time>2022-11-06T14:24:58Z</time>
      </trkpt>
      <trkpt lat="45.03795" lon="5.88069">
        <ele>2118.4</ele>
        <time>2022-11-06T14:25:10Z</time>
      </trkpt>
      <trkpt lat="45.03797" lon="5.88056">
        <ele>2115.04</ele>
        <time>2022-11-06T14:25:22Z</time>
      </trkpt>
      <trkpt lat="45.03796" lon="5.88039">
        <ele>2112.15</ele>
        <time>2022-11-06T14:25:37Z</time>
      </trkpt>
      <trkpt lat="45.03798" lon="5.88023">
        <ele>2109.27</ele>
        <time>2022-11-06T14:25:51Z</time>
      </trkpt>
      <trkpt lat="45.03798" lon="5.88006">
        <ele>2106.39</ele>
        <time>2022-11-06T14:26:06Z</time>
      </trkpt>
      <trkpt lat="45.03798" lon="5.87987">
        <ele>2103.02</ele>
        <time>2022-11-06T14:26:21Z</time>
      </trkpt>
      <trkpt lat="45.03802" lon="5.87971">
        <ele>2099.66</ele>
        <time>2022-11-06T14:26:35Z</time>
      </trkpt>
      <trkpt lat="45.03802" lon="5.87971">
        <ele>2098.7</ele>
        <time>2022-11-06T14:26:48Z</time>
      </trkpt>
      <trkpt lat="45.03802" lon="5.87971">
        <ele>2096.77</ele>
        <time>2022-11-06T14:26:52Z</time>
      </trkpt>
      <trkpt lat="45.03802" lon="5.87971">
        <ele>2098.21</ele>
        <time>2022-11-06T14:27:28Z</time>
      </trkpt>
      <trkpt lat="45.03801" lon="5.87965">
        <ele>2097.73</ele>
        <time>2022-11-06T14:27:34Z</time>
      </trkpt>
      <trkpt lat="45.038" lon="5.87952">
        <ele>2096.29</ele>
        <time>2022-11-06T14:27:44Z</time>
      </trkpt>
      <trkpt lat="45.038" lon="5.8795">
        <ele>2096.29</ele>
        <time>2022-11-06T14:27:45Z</time>
      </trkpt>
      <trkpt lat="45.03799" lon="5.87949">
        <ele>2095.81</ele>
        <time>2022-11-06T14:27:46Z</time>
      </trkpt>
      <trkpt lat="45.03796" lon="5.87937">
        <ele>2093.89</ele>
        <time>2022-11-06T14:27:55Z</time>
      </trkpt>
      <trkpt lat="45.03795" lon="5.87935">
        <ele>2093.89</ele>
        <time>2022-11-06T14:27:56Z</time>
      </trkpt>
      <trkpt lat="45.03796" lon="5.87922">
        <ele>2090.52</ele>
        <time>2022-11-06T14:28:08Z</time>
      </trkpt>
      <trkpt lat="45.03796" lon="5.87912">
        <ele>2087.64</ele>
        <time>2022-11-06T14:28:18Z</time>
      </trkpt>
      <trkpt lat="45.03795" lon="5.87894">
        <ele>2084.76</ele>
        <time>2022-11-06T14:28:33Z</time>
      </trkpt>
      <trkpt lat="45.03797" lon="5.87879">
        <ele>2081.39</ele>
        <time>2022-11-06T14:28:47Z</time>
      </trkpt>
      <trkpt lat="45.03797" lon="5.87865">
        <ele>2078.03</ele>
        <time>2022-11-06T14:29:00Z</time>
      </trkpt>
      <trkpt lat="45.03799" lon="5.87851">
        <ele>2075.14</ele>
        <time>2022-11-06T14:29:13Z</time>
      </trkpt>
      <trkpt lat="45.03799" lon="5.87836">
        <ele>2072.26</ele>
        <time>2022-11-06T14:29:29Z</time>
      </trkpt>
      <trkpt lat="45.038" lon="5.87823">
        <ele>2069.38</ele>
        <time>2022-11-06T14:29:42Z</time>
      </trkpt>
      <trkpt lat="45.038" lon="5.87813">
        <ele>2066.97</ele>
        <time>2022-11-06T14:29:53Z</time>
      </trkpt>
      <trkpt lat="45.03806" lon="5.87806">
        <ele>2064.09</ele>
        <time>2022-11-06T14:30:10Z</time>
      </trkpt>
      <trkpt lat="45.03806" lon="5.87805">
        <ele>2063.61</ele>
        <time>2022-11-06T14:30:11Z</time>
      </trkpt>
      <trkpt lat="45.03814" lon="5.87793">
        <ele>2060.72</ele>
        <time>2022-11-06T14:30:26Z</time>
      </trkpt>
      <trkpt lat="45.03821" lon="5.87782">
        <ele>2057.84</ele>
        <time>2022-11-06T14:30:38Z</time>
      </trkpt>
      <trkpt lat="45.03829" lon="5.87771">
        <ele>2054.47</ele>
        <time>2022-11-06T14:30:51Z</time>
      </trkpt>
      <trkpt lat="45.03834" lon="5.87761">
        <ele>2051.59</ele>
        <time>2022-11-06T14:31:02Z</time>
      </trkpt>
      <trkpt lat="45.03839" lon="5.87755">
        <ele>2048.23</ele>
        <time>2022-11-06T14:31:12Z</time>
      </trkpt>
      <trkpt lat="45.03844" lon="5.87745">
        <ele>2045.82</ele>
        <time>2022-11-06T14:31:24Z</time>
      </trkpt>
      <trkpt lat="45.03847" lon="5.87737">
        <ele>2042.46</ele>
        <time>2022-11-06T14:31:34Z</time>
      </trkpt>
      <trkpt lat="45.0385" lon="5.87728">
        <ele>2039.57</ele>
        <time>2022-11-06T14:31:46Z</time>
      </trkpt>
      <trkpt lat="45.03845" lon="5.87716">
        <ele>2037.17</ele>
        <time>2022-11-06T14:31:56Z</time>
      </trkpt>
      <trkpt lat="45.03843" lon="5.87713">
        <ele>2036.69</ele>
        <time>2022-11-06T14:31:59Z</time>
      </trkpt>
      <trkpt lat="45.03842" lon="5.87712">
        <ele>2036.21</ele>
        <time>2022-11-06T14:32:00Z</time>
      </trkpt>
      <trkpt lat="45.03838" lon="5.87702">
        <ele>2033.33</ele>
        <time>2022-11-06T14:32:12Z</time>
      </trkpt>
      <trkpt lat="45.03843" lon="5.87694">
        <ele>2030.44</ele>
        <time>2022-11-06T14:32:23Z</time>
      </trkpt>
      <trkpt lat="45.03842" lon="5.87692">
        <ele>2029.96</ele>
        <time>2022-11-06T14:32:24Z</time>
      </trkpt>
      <trkpt lat="45.03835" lon="5.87687">
        <ele>2026.6</ele>
        <time>2022-11-06T14:32:36Z</time>
      </trkpt>
      <trkpt lat="45.03843" lon="5.87677">
        <ele>2023.23</ele>
        <time>2022-11-06T14:32:51Z</time>
      </trkpt>
      <trkpt lat="45.03842" lon="5.87676">
        <ele>2023.23</ele>
        <time>2022-11-06T14:32:52Z</time>
      </trkpt>
      <trkpt lat="45.03841" lon="5.87675">
        <ele>2022.75</ele>
        <time>2022-11-06T14:32:53Z</time>
      </trkpt>
      <trkpt lat="45.03838" lon="5.87666">
        <ele>2019.87</ele>
        <time>2022-11-06T14:33:06Z</time>
      </trkpt>
      <trkpt lat="45.03845" lon="5.87659">
        <ele>2016.98</ele>
        <time>2022-11-06T14:33:16Z</time>
      </trkpt>
      <trkpt lat="45.03844" lon="5.87647">
        <ele>2014.1</ele>
        <time>2022-11-06T14:33:27Z</time>
      </trkpt>
      <trkpt lat="45.03844" lon="5.87637">
        <ele>2011.22</ele>
        <time>2022-11-06T14:33:40Z</time>
      </trkpt>
      <trkpt lat="45.03845" lon="5.87636">
        <ele>2010.73</ele>
        <time>2022-11-06T14:33:42Z</time>
      </trkpt>
      <trkpt lat="45.03847" lon="5.87629">
        <ele>2007.85</ele>
        <time>2022-11-06T14:33:55Z</time>
      </trkpt>
      <trkpt lat="45.03849" lon="5.8762">
        <ele>2004.97</ele>
        <time>2022-11-06T14:34:11Z</time>
      </trkpt>
      <trkpt lat="45.03848" lon="5.87621">
        <ele>2004.01</ele>
        <time>2022-11-06T14:34:28Z</time>
      </trkpt>
      <trkpt lat="45.03848" lon="5.87621">
        <ele>2002.56</ele>
        <time>2022-11-06T14:34:56Z</time>
      </trkpt>
      <trkpt lat="45.03848" lon="5.87621">
        <ele>2002.56</ele>
        <time>2022-11-06T14:35:21Z</time>
      </trkpt>
      <trkpt lat="45.03848" lon="5.87621">
        <ele>2003.04</ele>
        <time>2022-11-06T14:35:41Z</time>
      </trkpt>
      <trkpt lat="45.03848" lon="5.87621">
        <ele>2003.52</ele>
        <time>2022-11-06T14:36:11Z</time>
      </trkpt>
      <trkpt lat="45.03845" lon="5.87617">
        <ele>2002.56</ele>
        <time>2022-11-06T14:36:27Z</time>
      </trkpt>
      <trkpt lat="45.03849" lon="5.87603">
        <ele>1999.68</ele>
        <time>2022-11-06T14:36:44Z</time>
      </trkpt>
      <trkpt lat="45.0385" lon="5.876">
        <ele>1997.28</ele>
        <time>2022-11-06T14:36:59Z</time>
      </trkpt>
      <trkpt lat="45.0385" lon="5.87594">
        <ele>1995.83</ele>
        <time>2022-11-06T14:37:17Z</time>
      </trkpt>
      <trkpt lat="45.03852" lon="5.87586">
        <ele>1995.35</ele>
        <time>2022-11-06T14:37:24Z</time>
      </trkpt>
      <trkpt lat="45.03856" lon="5.87573">
        <ele>1991.99</ele>
        <time>2022-11-06T14:37:37Z</time>
      </trkpt>
      <trkpt lat="45.03857" lon="5.87571">
        <ele>1991.51</ele>
        <time>2022-11-06T14:37:39Z</time>
      </trkpt>
      <trkpt lat="45.03858" lon="5.8757">
        <ele>1991.51</ele>
        <time>2022-11-06T14:37:40Z</time>
      </trkpt>
      <trkpt lat="45.03859" lon="5.87569">
        <ele>1991.03</ele>
        <time>2022-11-06T14:37:41Z</time>
      </trkpt>
      <trkpt lat="45.03866" lon="5.87562">
        <ele>1987.66</ele>
        <time>2022-11-06T14:37:51Z</time>
      </trkpt>
      <trkpt lat="45.03866" lon="5.87561">
        <ele>1987.66</ele>
        <time>2022-11-06T14:37:52Z</time>
      </trkpt>
      <trkpt lat="45.03866" lon="5.8756">
        <ele>1987.66</ele>
        <time>2022-11-06T14:37:53Z</time>
      </trkpt>
      <trkpt lat="45.03865" lon="5.87559">
        <ele>1987.18</ele>
        <time>2022-11-06T14:37:54Z</time>
      </trkpt>
      <trkpt lat="45.03863" lon="5.87558">
        <ele>1987.18</ele>
        <time>2022-11-06T14:37:57Z</time>
      </trkpt>
      <trkpt lat="45.03862" lon="5.87557">
        <ele>1987.18</ele>
        <time>2022-11-06T14:37:58Z</time>
      </trkpt>
      <trkpt lat="45.03854" lon="5.87548">
        <ele>1984.3</ele>
        <time>2022-11-06T14:38:10Z</time>
      </trkpt>
      <trkpt lat="45.03858" lon="5.87538">
        <ele>1981.41</ele>
        <time>2022-11-06T14:38:21Z</time>
      </trkpt>
      <trkpt lat="45.03867" lon="5.87534">
        <ele>1978.05</ele>
        <time>2022-11-06T14:38:32Z</time>
      </trkpt>
      <trkpt lat="45.03872" lon="5.87525">
        <ele>1975.17</ele>
        <time>2022-11-06T14:38:45Z</time>
      </trkpt>
      <trkpt lat="45.03875" lon="5.87518">
        <ele>1971.8</ele>
        <time>2022-11-06T14:38:58Z</time>
      </trkpt>
      <trkpt lat="45.03884" lon="5.87513">
        <ele>1968.92</ele>
        <time>2022-11-06T14:39:10Z</time>
      </trkpt>
      <trkpt lat="45.03892" lon="5.87512">
        <ele>1966.03</ele>
        <time>2022-11-06T14:39:21Z</time>
      </trkpt>
      <trkpt lat="45.03901" lon="5.8751">
        <ele>1962.67</ele>
        <time>2022-11-06T14:39:34Z</time>
      </trkpt>
      <trkpt lat="45.03911" lon="5.87513">
        <ele>1959.78</ele>
        <time>2022-11-06T14:39:47Z</time>
      </trkpt>
      <trkpt lat="45.03922" lon="5.87515">
        <ele>1956.42</ele>
        <time>2022-11-06T14:40:01Z</time>
      </trkpt>
      <trkpt lat="45.03924" lon="5.87512">
        <ele>1955.46</ele>
        <time>2022-11-06T14:40:05Z</time>
      </trkpt>
      <trkpt lat="45.03929" lon="5.87508">
        <ele>1952.57</ele>
        <time>2022-11-06T14:40:18Z</time>
      </trkpt>
      <trkpt lat="45.03939" lon="5.87509">
        <ele>1950.17</ele>
        <time>2022-11-06T14:40:37Z</time>
      </trkpt>
      <trkpt lat="45.03951" lon="5.87513">
        <ele>1946.81</ele>
        <time>2022-11-06T14:40:50Z</time>
      </trkpt>
      <trkpt lat="45.03953" lon="5.87514">
        <ele>1946.33</ele>
        <time>2022-11-06T14:40:52Z</time>
      </trkpt>
      <trkpt lat="45.03964" lon="5.87517">
        <ele>1942.96</ele>
        <time>2022-11-06T14:41:04Z</time>
      </trkpt>
      <trkpt lat="45.03974" lon="5.87524">
        <ele>1940.08</ele>
        <time>2022-11-06T14:41:17Z</time>
      </trkpt>
      <trkpt lat="45.03985" lon="5.87529">
        <ele>1937.19</ele>
        <time>2022-11-06T14:41:31Z</time>
      </trkpt>
      <trkpt lat="45.03998" lon="5.87535">
        <ele>1933.83</ele>
        <time>2022-11-06T14:41:46Z</time>
      </trkpt>
      <trkpt lat="45.04005" lon="5.87533">
        <ele>1930.46</ele>
        <time>2022-11-06T14:41:58Z</time>
      </trkpt>
      <trkpt lat="45.04006" lon="5.87532">
        <ele>1929.98</ele>
        <time>2022-11-06T14:42:18Z</time>
      </trkpt>
      <trkpt lat="45.04007" lon="5.87532">
        <ele>1929.5</ele>
        <time>2022-11-06T14:42:21Z</time>
      </trkpt>
      <trkpt lat="45.04009" lon="5.87531">
        <ele>1929.98</ele>
        <time>2022-11-06T14:42:23Z</time>
      </trkpt>
      <trkpt lat="45.0401" lon="5.8753">
        <ele>1929.98</ele>
        <time>2022-11-06T14:42:24Z</time>
      </trkpt>
      <trkpt lat="45.04018" lon="5.8752">
        <ele>1929.02</ele>
        <time>2022-11-06T14:42:35Z</time>
      </trkpt>
      <trkpt lat="45.04019" lon="5.87519">
        <ele>1929.02</ele>
        <time>2022-11-06T14:42:36Z</time>
      </trkpt>
      <trkpt lat="45.0402" lon="5.87516">
        <ele>1928.54</ele>
        <time>2022-11-06T14:42:38Z</time>
      </trkpt>
      <trkpt lat="45.04022" lon="5.87514">
        <ele>1928.06</ele>
        <time>2022-11-06T14:42:41Z</time>
      </trkpt>
      <trkpt lat="45.04023" lon="5.87513">
        <ele>1928.06</ele>
        <time>2022-11-06T14:42:42Z</time>
      </trkpt>
      <trkpt lat="45.04027" lon="5.87502">
        <ele>1926.14</ele>
        <time>2022-11-06T14:42:56Z</time>
      </trkpt>
      <trkpt lat="45.04031" lon="5.87489">
        <ele>1924.22</ele>
        <time>2022-11-06T14:43:11Z</time>
      </trkpt>
      <trkpt lat="45.0403" lon="5.8749">
        <ele>1924.22</ele>
        <time>2022-11-06T14:43:33Z</time>
      </trkpt>
      <trkpt lat="45.04029" lon="5.8749">
        <ele>1924.22</ele>
        <time>2022-11-06T14:43:49Z</time>
      </trkpt>
      <trkpt lat="45.04029" lon="5.87491">
        <ele>1923.25</ele>
        <time>2022-11-06T14:44:22Z</time>
      </trkpt>
      <trkpt lat="45.04033" lon="5.87484">
        <ele>1923.25</ele>
        <time>2022-11-06T14:44:44Z</time>
      </trkpt>
      <trkpt lat="45.04041" lon="5.87473">
        <ele>1921.33</ele>
        <time>2022-11-06T14:44:59Z</time>
      </trkpt>
      <trkpt lat="45.04043" lon="5.87472">
        <ele>1920.37</ele>
        <time>2022-11-06T14:45:03Z</time>
      </trkpt>
      <trkpt lat="45.04046" lon="5.87464">
        <ele>1918.93</ele>
        <time>2022-11-06T14:45:14Z</time>
      </trkpt>
      <trkpt lat="45.04054" lon="5.8746">
        <ele>1916.04</ele>
        <time>2022-11-06T14:45:28Z</time>
      </trkpt>
      <trkpt lat="45.04058" lon="5.87453">
        <ele>1914.12</ele>
        <time>2022-11-06T14:45:40Z</time>
      </trkpt>
      <trkpt lat="45.04058" lon="5.8745">
        <ele>1912.2</ele>
        <time>2022-11-06T14:45:56Z</time>
      </trkpt>
      <trkpt lat="45.04061" lon="5.87448">
        <ele>1911.72</ele>
        <time>2022-11-06T14:46:11Z</time>
      </trkpt>
      <trkpt lat="45.04064" lon="5.87447">
        <ele>1911.24</ele>
        <time>2022-11-06T14:46:15Z</time>
      </trkpt>
      <trkpt lat="45.04076" lon="5.87441">
        <ele>1908.83</ele>
        <time>2022-11-06T14:46:31Z</time>
      </trkpt>
      <trkpt lat="45.04086" lon="5.87437">
        <ele>1905.95</ele>
        <time>2022-11-06T14:46:44Z</time>
      </trkpt>
      <trkpt lat="45.04094" lon="5.87432">
        <ele>1903.07</ele>
        <time>2022-11-06T14:46:58Z</time>
      </trkpt>
      <trkpt lat="45.04105" lon="5.87428">
        <ele>1900.18</ele>
        <time>2022-11-06T14:47:11Z</time>
      </trkpt>
      <trkpt lat="45.04115" lon="5.87425">
        <ele>1897.78</ele>
        <time>2022-11-06T14:47:21Z</time>
      </trkpt>
      <trkpt lat="45.04127" lon="5.8742">
        <ele>1894.9</ele>
        <time>2022-11-06T14:47:37Z</time>
      </trkpt>
      <trkpt lat="45.04125" lon="5.87409">
        <ele>1892.97</ele>
        <time>2022-11-06T14:47:51Z</time>
      </trkpt>
      <trkpt lat="45.04124" lon="5.87404">
        <ele>1892.01</ele>
        <time>2022-11-06T14:47:55Z</time>
      </trkpt>
      <trkpt lat="45.04124" lon="5.874">
        <ele>1891.05</ele>
        <time>2022-11-06T14:47:58Z</time>
      </trkpt>
      <trkpt lat="45.04123" lon="5.87399">
        <ele>1890.57</ele>
        <time>2022-11-06T14:47:59Z</time>
      </trkpt>
      <trkpt lat="45.04122" lon="5.87397">
        <ele>1890.57</ele>
        <time>2022-11-06T14:48:01Z</time>
      </trkpt>
      <trkpt lat="45.04122" lon="5.87396">
        <ele>1890.57</ele>
        <time>2022-11-06T14:48:02Z</time>
      </trkpt>
      <trkpt lat="45.04118" lon="5.87388">
        <ele>1888.17</ele>
        <time>2022-11-06T14:48:14Z</time>
      </trkpt>
      <trkpt lat="45.04118" lon="5.87376">
        <ele>1884.8</ele>
        <time>2022-11-06T14:48:27Z</time>
      </trkpt>
      <trkpt lat="45.04118" lon="5.87368">
        <ele>1883.36</ele>
        <time>2022-11-06T14:48:38Z</time>
      </trkpt>
      <trkpt lat="45.04116" lon="5.87356">
        <ele>1880</ele>
        <time>2022-11-06T14:48:50Z</time>
      </trkpt>
      <trkpt lat="45.04123" lon="5.87349">
        <ele>1877.11</ele>
        <time>2022-11-06T14:49:03Z</time>
      </trkpt>
      <trkpt lat="45.0412" lon="5.87337">
        <ele>1874.23</ele>
        <time>2022-11-06T14:49:15Z</time>
      </trkpt>
      <trkpt lat="45.04126" lon="5.87327">
        <ele>1870.86</ele>
        <time>2022-11-06T14:49:29Z</time>
      </trkpt>
      <trkpt lat="45.04133" lon="5.87319">
        <ele>1867.98</ele>
        <time>2022-11-06T14:49:43Z</time>
      </trkpt>
      <trkpt lat="45.04137" lon="5.87318">
        <ele>1866.54</ele>
        <time>2022-11-06T14:49:49Z</time>
      </trkpt>
      <trkpt lat="45.04142" lon="5.87314">
        <ele>1864.61</ele>
        <time>2022-11-06T14:49:58Z</time>
      </trkpt>
      <trkpt lat="45.04144" lon="5.87313">
        <ele>1864.13</ele>
        <time>2022-11-06T14:49:59Z</time>
      </trkpt>
      <trkpt lat="45.04149" lon="5.87314">
        <ele>1863.17</ele>
        <time>2022-11-06T14:50:05Z</time>
      </trkpt>
      <trkpt lat="45.04154" lon="5.87314">
        <ele>1861.25</ele>
        <time>2022-11-06T14:50:19Z</time>
      </trkpt>
      <trkpt lat="45.04162" lon="5.8731">
        <ele>1858.85</ele>
        <time>2022-11-06T14:50:32Z</time>
      </trkpt>
      <trkpt lat="45.04168" lon="5.87305">
        <ele>1857.4</ele>
        <time>2022-11-06T14:50:40Z</time>
      </trkpt>
      <trkpt lat="45.04173" lon="5.87298">
        <ele>1855.48</ele>
        <time>2022-11-06T14:50:50Z</time>
      </trkpt>
      <trkpt lat="45.04174" lon="5.87295">
        <ele>1855</ele>
        <time>2022-11-06T14:50:53Z</time>
      </trkpt>
      <trkpt lat="45.04174" lon="5.87292">
        <ele>1854.52</ele>
        <time>2022-11-06T14:50:55Z</time>
      </trkpt>
      <trkpt lat="45.04176" lon="5.87281">
        <ele>1851.64</ele>
        <time>2022-11-06T14:51:09Z</time>
      </trkpt>
      <trkpt lat="45.04177" lon="5.8728">
        <ele>1851.64</ele>
        <time>2022-11-06T14:51:10Z</time>
      </trkpt>
      <trkpt lat="45.0418" lon="5.87267">
        <ele>1849.23</ele>
        <time>2022-11-06T14:51:22Z</time>
      </trkpt>
      <trkpt lat="45.04184" lon="5.87265">
        <ele>1846.83</ele>
        <time>2022-11-06T14:51:35Z</time>
      </trkpt>
      <trkpt lat="45.04194" lon="5.87258">
        <ele>1844.43</ele>
        <time>2022-11-06T14:51:50Z</time>
      </trkpt>
      <trkpt lat="45.04196" lon="5.87257">
        <ele>1843.95</ele>
        <time>2022-11-06T14:51:52Z</time>
      </trkpt>
      <trkpt lat="45.04207" lon="5.87254">
        <ele>1840.58</ele>
        <time>2022-11-06T14:52:08Z</time>
      </trkpt>
      <trkpt lat="45.0422" lon="5.87251">
        <ele>1837.7</ele>
        <time>2022-11-06T14:52:23Z</time>
      </trkpt>
      <trkpt lat="45.04226" lon="5.87252">
        <ele>1834.81</ele>
        <time>2022-11-06T14:52:42Z</time>
      </trkpt>
      <trkpt lat="45.04228" lon="5.87251">
        <ele>1833.85</ele>
        <time>2022-11-06T14:53:04Z</time>
      </trkpt>
      <trkpt lat="45.04228" lon="5.87249">
        <ele>1833.37</ele>
        <time>2022-11-06T14:53:49Z</time>
      </trkpt>
      <trkpt lat="45.04229" lon="5.87246">
        <ele>1832.89</ele>
        <time>2022-11-06T14:54:24Z</time>
      </trkpt>
      <trkpt lat="45.0423" lon="5.87248">
        <ele>1833.85</ele>
        <time>2022-11-06T14:55:36Z</time>
      </trkpt>
      <trkpt lat="45.04233" lon="5.87251">
        <ele>1832.41</ele>
        <time>2022-11-06T14:56:07Z</time>
      </trkpt>
      <trkpt lat="45.04239" lon="5.87263">
        <ele>1830.01</ele>
        <time>2022-11-06T14:56:18Z</time>
      </trkpt>
      <trkpt lat="45.0424" lon="5.87264">
        <ele>1830.01</ele>
        <time>2022-11-06T14:56:19Z</time>
      </trkpt>
      <trkpt lat="45.04242" lon="5.87277">
        <ele>1826.64</ele>
        <time>2022-11-06T14:56:32Z</time>
      </trkpt>
      <trkpt lat="45.04247" lon="5.87294">
        <ele>1823.76</ele>
        <time>2022-11-06T14:56:48Z</time>
      </trkpt>
      <trkpt lat="45.04252" lon="5.873">
        <ele>1820.87</ele>
        <time>2022-11-06T14:56:58Z</time>
      </trkpt>
      <trkpt lat="45.04252" lon="5.87302">
        <ele>1820.39</ele>
        <time>2022-11-06T14:57:00Z</time>
      </trkpt>
      <trkpt lat="45.04255" lon="5.87306">
        <ele>1819.91</ele>
        <time>2022-11-06T14:57:03Z</time>
      </trkpt>
      <trkpt lat="45.04257" lon="5.87308">
        <ele>1818.95</ele>
        <time>2022-11-06T14:57:06Z</time>
      </trkpt>
      <trkpt lat="45.04257" lon="5.87313">
        <ele>1817.99</ele>
        <time>2022-11-06T14:57:11Z</time>
      </trkpt>
      <trkpt lat="45.04258" lon="5.87314">
        <ele>1817.51</ele>
        <time>2022-11-06T14:57:12Z</time>
      </trkpt>
      <trkpt lat="45.04259" lon="5.87322">
        <ele>1814.63</ele>
        <time>2022-11-06T14:57:27Z</time>
      </trkpt>
      <trkpt lat="45.04259" lon="5.87323">
        <ele>1813.18</ele>
        <time>2022-11-06T14:57:33Z</time>
      </trkpt>
      <trkpt lat="45.04262" lon="5.87326">
        <ele>1812.22</ele>
        <time>2022-11-06T14:57:39Z</time>
      </trkpt>
      <trkpt lat="45.04264" lon="5.87327">
        <ele>1811.74</ele>
        <time>2022-11-06T14:57:42Z</time>
      </trkpt>
      <trkpt lat="45.04266" lon="5.87327">
        <ele>1809.34</ele>
        <time>2022-11-06T14:57:53Z</time>
      </trkpt>
      <trkpt lat="45.04268" lon="5.87328">
        <ele>1808.38</ele>
        <time>2022-11-06T14:57:55Z</time>
      </trkpt>
      <trkpt lat="45.04273" lon="5.87333">
        <ele>1805.49</ele>
        <time>2022-11-06T14:58:10Z</time>
      </trkpt>
      <trkpt lat="45.0428" lon="5.87333">
        <ele>1802.13</ele>
        <time>2022-11-06T14:58:22Z</time>
      </trkpt>
      <trkpt lat="45.04289" lon="5.87331">
        <ele>1798.76</ele>
        <time>2022-11-06T14:58:34Z</time>
      </trkpt>
      <trkpt lat="45.04291" lon="5.87327">
        <ele>1797.8</ele>
        <time>2022-11-06T14:58:38Z</time>
      </trkpt>
      <trkpt lat="45.04308" lon="5.87324">
        <ele>1794.92</ele>
        <time>2022-11-06T14:58:53Z</time>
      </trkpt>
      <trkpt lat="45.04317" lon="5.87321">
        <ele>1792.03</ele>
        <time>2022-11-06T14:59:05Z</time>
      </trkpt>
      <trkpt lat="45.04322" lon="5.87322">
        <ele>1789.63</ele>
        <time>2022-11-06T14:59:17Z</time>
      </trkpt>
      <trkpt lat="45.04324" lon="5.87318">
        <ele>1786.27</ele>
        <time>2022-11-06T14:59:32Z</time>
      </trkpt>
      <trkpt lat="45.04326" lon="5.87314">
        <ele>1782.9</ele>
        <time>2022-11-06T14:59:45Z</time>
      </trkpt>
      <trkpt lat="45.04325" lon="5.87312">
        <ele>1780.02</ele>
        <time>2022-11-06T15:00:01Z</time>
      </trkpt>
      <trkpt lat="45.04324" lon="5.87311">
        <ele>1776.65</ele>
        <time>2022-11-06T15:00:26Z</time>
      </trkpt>
      <trkpt lat="45.04323" lon="5.87312">
        <ele>1780.02</ele>
        <time>2022-11-06T15:00:31Z</time>
      </trkpt>
      <trkpt lat="45.04323" lon="5.87312">
        <ele>1781.46</ele>
        <time>2022-11-06T15:00:34Z</time>
      </trkpt>
      <trkpt lat="45.04326" lon="5.8731">
        <ele>1778.1</ele>
        <time>2022-11-06T15:00:47Z</time>
      </trkpt>
      <trkpt lat="45.04329" lon="5.87308">
        <ele>1775.21</ele>
        <time>2022-11-06T15:01:05Z</time>
      </trkpt>
      <trkpt lat="45.04334" lon="5.87305">
        <ele>1771.85</ele>
        <time>2022-11-06T15:01:21Z</time>
      </trkpt>
      <trkpt lat="45.04338" lon="5.87303">
        <ele>1770.41</ele>
        <time>2022-11-06T15:01:29Z</time>
      </trkpt>
      <trkpt lat="45.04342" lon="5.87297">
        <ele>1767.04</ele>
        <time>2022-11-06T15:01:43Z</time>
      </trkpt>
      <trkpt lat="45.04345" lon="5.87294">
        <ele>1764.16</ele>
        <time>2022-11-06T15:01:55Z</time>
      </trkpt>
      <trkpt lat="45.0435" lon="5.87286">
        <ele>1761.75</ele>
        <time>2022-11-06T15:02:05Z</time>
      </trkpt>
      <trkpt lat="45.04358" lon="5.87279">
        <ele>1758.87</ele>
        <time>2022-11-06T15:02:18Z</time>
      </trkpt>
      <trkpt lat="45.04365" lon="5.87274">
        <ele>1755.99</ele>
        <time>2022-11-06T15:02:33Z</time>
      </trkpt>
      <trkpt lat="45.04368" lon="5.87267">
        <ele>1752.62</ele>
        <time>2022-11-06T15:02:44Z</time>
      </trkpt>
      <trkpt lat="45.04374" lon="5.87263">
        <ele>1749.74</ele>
        <time>2022-11-06T15:02:57Z</time>
      </trkpt>
      <trkpt lat="45.04378" lon="5.8726">
        <ele>1747.81</ele>
        <time>2022-11-06T15:03:04Z</time>
      </trkpt>
      <trkpt lat="45.04386" lon="5.87258">
        <ele>1744.93</ele>
        <time>2022-11-06T15:03:15Z</time>
      </trkpt>
      <trkpt lat="45.0439" lon="5.87251">
        <ele>1742.53</ele>
        <time>2022-11-06T15:03:25Z</time>
      </trkpt>
      <trkpt lat="45.04393" lon="5.87251">
        <ele>1741.57</ele>
        <time>2022-11-06T15:03:29Z</time>
      </trkpt>
      <trkpt lat="45.04397" lon="5.8725">
        <ele>1740.6</ele>
        <time>2022-11-06T15:03:33Z</time>
      </trkpt>
      <trkpt lat="45.04404" lon="5.87247">
        <ele>1737.72</ele>
        <time>2022-11-06T15:03:45Z</time>
      </trkpt>
      <trkpt lat="45.04417" lon="5.87244">
        <ele>1734.84</ele>
        <time>2022-11-06T15:03:59Z</time>
      </trkpt>
      <trkpt lat="45.04417" lon="5.87235">
        <ele>1731.47</ele>
        <time>2022-11-06T15:04:15Z</time>
      </trkpt>
      <trkpt lat="45.04414" lon="5.87233">
        <ele>1728.59</ele>
        <time>2022-11-06T15:04:35Z</time>
      </trkpt>
      <trkpt lat="45.04414" lon="5.87235">
        <ele>1731.95</ele>
        <time>2022-11-06T15:04:41Z</time>
      </trkpt>
      <trkpt lat="45.04414" lon="5.87235">
        <ele>1732.43</ele>
        <time>2022-11-06T15:04:43Z</time>
      </trkpt>
      <trkpt lat="45.04411" lon="5.87229">
        <ele>1732.43</ele>
        <time>2022-11-06T15:04:53Z</time>
      </trkpt>
      <trkpt lat="45.04411" lon="5.87228">
        <ele>1730.99</ele>
        <time>2022-11-06T15:05:21Z</time>
      </trkpt>
      <trkpt lat="45.04412" lon="5.87228">
        <ele>1730.99</ele>
        <time>2022-11-06T15:05:52Z</time>
      </trkpt>
      <trkpt lat="45.04412" lon="5.87226">
        <ele>1730.99</ele>
        <time>2022-11-06T15:06:09Z</time>
      </trkpt>
      <trkpt lat="45.04425" lon="5.87221">
        <ele>1727.63</ele>
        <time>2022-11-06T15:06:33Z</time>
      </trkpt>
      <trkpt lat="45.04436" lon="5.87218">
        <ele>1724.74</ele>
        <time>2022-11-06T15:06:48Z</time>
      </trkpt>
      <trkpt lat="45.04446" lon="5.87213">
        <ele>1721.38</ele>
        <time>2022-11-06T15:07:00Z</time>
      </trkpt>
      <trkpt lat="45.04455" lon="5.87206">
        <ele>1718.01</ele>
        <time>2022-11-06T15:07:15Z</time>
      </trkpt>
      <trkpt lat="45.04462" lon="5.872">
        <ele>1715.13</ele>
        <time>2022-11-06T15:07:28Z</time>
      </trkpt>
      <trkpt lat="45.04469" lon="5.87198">
        <ele>1711.76</ele>
        <time>2022-11-06T15:07:42Z</time>
      </trkpt>
      <trkpt lat="45.04477" lon="5.87193">
        <ele>1708.88</ele>
        <time>2022-11-06T15:07:56Z</time>
      </trkpt>
      <trkpt lat="45.04488" lon="5.87194">
        <ele>1705.52</ele>
        <time>2022-11-06T15:08:09Z</time>
      </trkpt>
      <trkpt lat="45.04497" lon="5.87194">
        <ele>1702.63</ele>
        <time>2022-11-06T15:08:21Z</time>
      </trkpt>
      <trkpt lat="45.04512" lon="5.87196">
        <ele>1699.75</ele>
        <time>2022-11-06T15:08:35Z</time>
      </trkpt>
      <trkpt lat="45.04514" lon="5.87196">
        <ele>1699.75</ele>
        <time>2022-11-06T15:08:36Z</time>
      </trkpt>
      <trkpt lat="45.04515" lon="5.87196">
        <ele>1699.27</ele>
        <time>2022-11-06T15:08:37Z</time>
      </trkpt>
      <trkpt lat="45.04516" lon="5.87196">
        <ele>1698.79</ele>
        <time>2022-11-06T15:08:38Z</time>
      </trkpt>
      <trkpt lat="45.04526" lon="5.87193">
        <ele>1696.38</ele>
        <time>2022-11-06T15:08:52Z</time>
      </trkpt>
      <trkpt lat="45.04532" lon="5.87196">
        <ele>1693.5</ele>
        <time>2022-11-06T15:09:08Z</time>
      </trkpt>
      <trkpt lat="45.04534" lon="5.87203">
        <ele>1692.06</ele>
        <time>2022-11-06T15:09:32Z</time>
      </trkpt>
      <trkpt lat="45.04538" lon="5.872">
        <ele>1691.1</ele>
        <time>2022-11-06T15:09:44Z</time>
      </trkpt>
      <trkpt lat="45.04545" lon="5.87204">
        <ele>1688.69</ele>
        <time>2022-11-06T15:10:08Z</time>
      </trkpt>
      <trkpt lat="45.04547" lon="5.87204">
        <ele>1688.21</ele>
        <time>2022-11-06T15:10:43Z</time>
      </trkpt>
      <trkpt lat="45.04555" lon="5.87212">
        <ele>1687.25</ele>
        <time>2022-11-06T15:10:55Z</time>
      </trkpt>
      <trkpt lat="45.04555" lon="5.87213">
        <ele>1686.77</ele>
        <time>2022-11-06T15:10:56Z</time>
      </trkpt>
      <trkpt lat="45.04556" lon="5.87214">
        <ele>1686.77</ele>
        <time>2022-11-06T15:10:57Z</time>
      </trkpt>
      <trkpt lat="45.04557" lon="5.87216">
        <ele>1686.77</ele>
        <time>2022-11-06T15:10:58Z</time>
      </trkpt>
      <trkpt lat="45.04557" lon="5.87217">
        <ele>1686.77</ele>
        <time>2022-11-06T15:10:59Z</time>
      </trkpt>
      <trkpt lat="45.04558" lon="5.87218">
        <ele>1686.29</ele>
        <time>2022-11-06T15:11:00Z</time>
      </trkpt>
      <trkpt lat="45.04559" lon="5.87219">
        <ele>1686.29</ele>
        <time>2022-11-06T15:11:01Z</time>
      </trkpt>
      <trkpt lat="45.04559" lon="5.8722">
        <ele>1686.29</ele>
        <time>2022-11-06T15:11:02Z</time>
      </trkpt>
      <trkpt lat="45.04563" lon="5.87226">
        <ele>1685.81</ele>
        <time>2022-11-06T15:11:07Z</time>
      </trkpt>
      <trkpt lat="45.04564" lon="5.87227">
        <ele>1685.33</ele>
        <time>2022-11-06T15:11:08Z</time>
      </trkpt>
      <trkpt lat="45.04564" lon="5.87228">
        <ele>1685.33</ele>
        <time>2022-11-06T15:11:09Z</time>
      </trkpt>
      <trkpt lat="45.04565" lon="5.87229">
        <ele>1685.33</ele>
        <time>2022-11-06T15:11:10Z</time>
      </trkpt>
      <trkpt lat="45.04569" lon="5.87238">
        <ele>1684.37</ele>
        <time>2022-11-06T15:11:17Z</time>
      </trkpt>
      <trkpt lat="45.04569" lon="5.8724">
        <ele>1684.37</ele>
        <time>2022-11-06T15:11:18Z</time>
      </trkpt>
      <trkpt lat="45.0457" lon="5.87241">
        <ele>1683.89</ele>
        <time>2022-11-06T15:11:19Z</time>
      </trkpt>
      <trkpt lat="45.04578" lon="5.87252">
        <ele>1682.44</ele>
        <time>2022-11-06T15:11:31Z</time>
      </trkpt>
      <trkpt lat="45.04579" lon="5.87253">
        <ele>1682.44</ele>
        <time>2022-11-06T15:11:32Z</time>
      </trkpt>
      <trkpt lat="45.04583" lon="5.87256">
        <ele>1681.96</ele>
        <time>2022-11-06T15:11:37Z</time>
      </trkpt>
      <trkpt lat="45.04597" lon="5.87263">
        <ele>1681</ele>
        <time>2022-11-06T15:11:51Z</time>
      </trkpt>
      <trkpt lat="45.04603" lon="5.87266">
        <ele>1680.52</ele>
        <time>2022-11-06T15:11:56Z</time>
      </trkpt>
      <trkpt lat="45.04604" lon="5.87266">
        <ele>1680.52</ele>
        <time>2022-11-06T15:11:57Z</time>
      </trkpt>
      <trkpt lat="45.04605" lon="5.87267">
        <ele>1680.52</ele>
        <time>2022-11-06T15:11:58Z</time>
      </trkpt>
      <trkpt lat="45.04606" lon="5.87267">
        <ele>1680.52</ele>
        <time>2022-11-06T15:11:59Z</time>
      </trkpt>
      <trkpt lat="45.04607" lon="5.87268">
        <ele>1680.04</ele>
        <time>2022-11-06T15:12:00Z</time>
      </trkpt>
      <trkpt lat="45.04608" lon="5.87268">
        <ele>1680.04</ele>
        <time>2022-11-06T15:12:01Z</time>
      </trkpt>
      <trkpt lat="45.0461" lon="5.87269">
        <ele>1680.04</ele>
        <time>2022-11-06T15:12:02Z</time>
      </trkpt>
      <trkpt lat="45.04614" lon="5.87271">
        <ele>1679.56</ele>
        <time>2022-11-06T15:12:06Z</time>
      </trkpt>
      <trkpt lat="45.04615" lon="5.87271">
        <ele>1679.56</ele>
        <time>2022-11-06T15:12:07Z</time>
      </trkpt>
      <trkpt lat="45.04617" lon="5.87272">
        <ele>1679.56</ele>
        <time>2022-11-06T15:12:08Z</time>
      </trkpt>
      <trkpt lat="45.04618" lon="5.87272">
        <ele>1679.56</ele>
        <time>2022-11-06T15:12:09Z</time>
      </trkpt>
      <trkpt lat="45.0463" lon="5.87271">
        <ele>1678.6</ele>
        <time>2022-11-06T15:12:18Z</time>
      </trkpt>
      <trkpt lat="45.04631" lon="5.87272">
        <ele>1678.6</ele>
        <time>2022-11-06T15:12:19Z</time>
      </trkpt>
      <trkpt lat="45.04646" lon="5.87273">
        <ele>1677.64</ele>
        <time>2022-11-06T15:12:31Z</time>
      </trkpt>
      <trkpt lat="45.04656" lon="5.87273">
        <ele>1677.64</ele>
        <time>2022-11-06T15:12:39Z</time>
      </trkpt>
      <trkpt lat="45.04657" lon="5.87273">
        <ele>1677.64</ele>
        <time>2022-11-06T15:12:40Z</time>
      </trkpt>
      <trkpt lat="45.04676" lon="5.87278">
        <ele>1676.2</ele>
        <time>2022-11-06T15:12:55Z</time>
      </trkpt>
      <trkpt lat="45.04684" lon="5.87282">
        <ele>1675.72</ele>
        <time>2022-11-06T15:13:02Z</time>
      </trkpt>
      <trkpt lat="45.04686" lon="5.87283">
        <ele>1675.72</ele>
        <time>2022-11-06T15:13:03Z</time>
      </trkpt>
      <trkpt lat="45.04687" lon="5.87284">
        <ele>1675.72</ele>
        <time>2022-11-06T15:13:04Z</time>
      </trkpt>
      <trkpt lat="45.04692" lon="5.87287">
        <ele>1675.23</ele>
        <time>2022-11-06T15:13:09Z</time>
      </trkpt>
      <trkpt lat="45.04693" lon="5.87288">
        <ele>1675.23</ele>
        <time>2022-11-06T15:13:10Z</time>
      </trkpt>
      <trkpt lat="45.04695" lon="5.87288">
        <ele>1675.23</ele>
        <time>2022-11-06T15:13:11Z</time>
      </trkpt>
      <trkpt lat="45.04701" lon="5.87293">
        <ele>1674.75</ele>
        <time>2022-11-06T15:13:25Z</time>
      </trkpt>
      <trkpt lat="45.04701" lon="5.87292">
        <ele>1673.79</ele>
        <time>2022-11-06T15:13:48Z</time>
      </trkpt>
      <trkpt lat="45.04701" lon="5.87292">
        <ele>1673.31</ele>
        <time>2022-11-06T15:14:00Z</time>
      </trkpt>
    </trkseg>
  </trk>
</gpx>